Time,TemperatureF,DewpointF,PressureIn,WindDirection,WindDirectionDegrees,WindSpeedMPH,WindSpeedGustMPH,Humidity,HourlyPrecipIn,Conditions,Clouds,dailyrainin,SoftwareType,DateUTC
2013-10-31 00:00:00,61.1,60.5,30.07,SSE,162,0.0,0.0,98,0.00,,,0.00,VWS V14.01,2013-10-31 04:00:00,
2013-10-31 00:01:00,61.1,60.5,30.07,SSE,162,0.0,0.0,98,0.00,,,0.00,VWS V14.01,2013-10-31 04:01:00,
2013-10-31 00:02:00,61.1,60.5,30.07,SSE,162,0.0,0.0,98,0.00,,,0.00,VWS V14.01,2013-10-31 04:02:00,
2013-10-31 00:03:00,61.1,60.5,30.07,SSE,162,0.0,0.0,98,0.00,,,0.00,VWS V14.01,2013-10-31 04:03:00,
2013-10-31 00:04:00,61.1,60.5,30.06,SSE,162,0.0,0.0,98,0.00,,,0.00,VWS V14.01,2013-10-31 04:04:00,
2013-10-31 00:05:00,61.1,60.5,30.06,SSE,162,0.0,0.0,98,0.00,,,0.00,VWS V14.01,2013-10-31 04:05:00,
2013-10-31 00:06:00,61.0,60.4,30.06,SSE,162,0.0,0.0,98,0.00,,,0.00,VWS V14.01,2013-10-31 04:06:00,
2013-10-31 00:07:00,61.0,60.4,30.06,SSE,162,0.0,0.0,98,0.00,,,0.00,VWS V14.01,2013-10-31 04:07:00,
2013-10-31 00:08:00,61.0,60.4,30.06,SSE,162,0.0,0.0,98,0.00,,,0.00,VWS V14.01,2013-10-31 04:08:00,
2013-10-31 00:09:00,60.9,60.3,30.06,SSE,162,0.0,0.0,98,0.00,,,0.00,VWS V14.01,2013-10-31 04:09:00,
2013-10-31 00:10:00,60.9,60.3,30.06,SSE,162,0.0,0.0,98,0.00,,,0.00,VWS V14.01,2013-10-31 04:10:00,
2013-10-31 00:11:00,60.9,60.3,30.06,SSE,162,0.0,0.0,98,0.00,,,0.00,VWS V14.01,2013-10-31 04:11:00,
2013-10-31 00:12:00,60.9,60.3,30.06,SSE,162,0.0,0.0,98,0.00,,,0.00,VWS V14.01,2013-10-31 04:12:00,
2013-10-31 00:13:00,60.9,60.3,30.06,SSE,162,0.0,0.0,98,0.00,,,0.00,VWS V14.01,2013-10-31 04:13:00,
2013-10-31 00:14:00,60.9,60.3,30.06,SSE,162,0.0,0.0,98,0.00,,,0.00,VWS V14.01,2013-10-31 04:14:00,
2013-10-31 00:15:00,60.9,60.3,30.06,SSE,162,0.0,0.0,98,0.00,,,0.00,VWS V14.01,2013-10-31 04:15:00,
2013-10-31 00:16:00,60.9,60.3,30.06,SSW,205,0.0,0.0,98,0.00,,,0.00,VWS V14.01,2013-10-31 04:16:00,
2013-10-31 00:17:00,60.9,60.3,30.06,South,188,0.0,0.0,98,0.00,,,0.00,VWS V14.01,2013-10-31 04:17:00,
2013-10-31 00:18:00,61.0,60.4,30.06,SSW,205,0.0,0.0,98,0.00,,,0.00,VWS V14.01,2013-10-31 04:18:00,
2013-10-31 00:19:00,61.0,60.4,30.06,SSW,198,0.0,0.0,98,0.00,,,0.00,VWS V14.01,2013-10-31 04:19:00,
2013-10-31 00:20:00,61.1,60.5,30.06,SSW,195,0.0,1.0,98,0.00,,,0.00,VWS V14.01,2013-10-31 04:20:00,
2013-10-31 00:21:00,61.2,60.6,30.06,SSW,203,0.0,0.0,98,0.00,,,0.00,VWS V14.01,2013-10-31 04:21:00,
2013-10-31 00:22:00,61.2,60.6,30.06,SSW,203,0.0,0.0,98,0.00,,,0.00,VWS V14.01,2013-10-31 04:22:00,
2013-10-31 00:23:00,61.2,60.6,30.06,SSW,203,0.0,0.0,98,0.00,,,0.00,VWS V14.01,2013-10-31 04:23:00,
2013-10-31 00:24:00,61.3,60.7,30.06,SSW,198,0.0,0.0,98,0.00,,,0.00,VWS V14.01,2013-10-31 04:24:00,
2013-10-31 00:25:00,61.3,60.7,30.06,SSW,200,0.0,0.0,98,0.00,,,0.00,VWS V14.01,2013-10-31 04:25:00,
2013-10-31 00:26:00,61.3,60.7,30.06,SSW,207,0.0,0.0,98,0.00,,,0.00,VWS V14.01,2013-10-31 04:26:00,
2013-10-31 00:27:00,61.3,60.7,30.06,SSW,207,0.0,0.0,98,0.00,,,0.00,VWS V14.01,2013-10-31 04:27:00,
2013-10-31 00:28:00,61.4,60.8,30.06,SSW,204,0.0,1.0,98,0.00,,,0.00,VWS V14.01,2013-10-31 04:28:00,
2013-10-31 00:29:00,61.4,60.8,30.06,SSW,208,1.0,1.0,98,0.00,,,0.00,VWS V14.01,2013-10-31 04:29:00,
2013-10-31 00:30:00,61.4,60.8,30.06,SSW,207,0.0,1.0,98,0.00,,,0.00,VWS V14.01,2013-10-31 04:30:00,
2013-10-31 00:31:00,61.5,60.9,30.06,South,172,0.0,1.0,98,0.00,,,0.00,VWS V14.01,2013-10-31 04:31:00,
2013-10-31 00:32:00,61.5,60.9,30.06,South,172,0.0,1.0,98,0.00,,,0.00,VWS V14.01,2013-10-31 04:32:00,
2013-10-31 00:33:00,61.5,60.9,30.06,SSE,159,0.0,0.0,98,0.00,,,0.00,VWS V14.01,2013-10-31 04:33:00,
2013-10-31 00:34:00,61.6,61.0,30.06,SSE,156,0.0,0.0,98,0.00,,,0.00,VWS V14.01,2013-10-31 04:34:00,
2013-10-31 00:35:00,61.6,61.0,30.06,SSE,163,0.0,0.0,98,0.00,,,0.00,VWS V14.01,2013-10-31 04:35:00,
2013-10-31 00:36:00,61.6,61.0,30.06,SSW,201,0.0,1.0,98,0.00,,,0.00,VWS V14.01,2013-10-31 04:36:00,
2013-10-31 00:37:00,61.6,61.0,30.06,SSW,201,0.0,1.0,98,0.00,,,0.00,VWS V14.01,2013-10-31 04:37:00,
2013-10-31 00:38:00,61.6,61.0,30.06,SSW,209,0.0,1.0,98,0.00,,,0.00,VWS V14.01,2013-10-31 04:38:00,
2013-10-31 00:39:00,61.6,61.0,30.05,SSE,149,0.0,0.0,98,0.00,,,0.00,VWS V14.01,2013-10-31 04:39:00,
2013-10-31 00:40:00,61.6,61.0,30.06,South,181,0.0,0.0,98,0.00,,,0.00,VWS V14.01,2013-10-31 04:40:00,
2013-10-31 00:41:00,61.7,61.1,30.05,SSW,203,0.0,0.0,98,0.00,,,0.00,VWS V14.01,2013-10-31 04:41:00,
2013-10-31 00:42:00,61.7,61.1,30.05,SSW,203,0.0,0.0,98,0.00,,,0.00,VWS V14.01,2013-10-31 04:42:00,
2013-10-31 00:43:00,61.7,61.1,30.05,South,191,0.0,0.0,98,0.00,,,0.00,VWS V14.01,2013-10-31 04:43:00,
2013-10-31 00:44:00,61.7,61.1,30.05,SSE,162,0.0,1.0,98,0.00,,,0.00,VWS V14.01,2013-10-31 04:44:00,
2013-10-31 00:45:00,61.7,61.1,30.05,SE,141,0.0,0.0,98,0.00,,,0.00,VWS V14.01,2013-10-31 04:45:00,
2013-10-31 00:46:00,61.7,61.1,30.06,SW,235,2.0,2.0,98,0.00,,,0.00,VWS V14.01,2013-10-31 04:46:00,
2013-10-31 00:47:00,61.7,61.1,30.06,SW,235,2.0,2.0,98,0.00,,,0.00,VWS V14.01,2013-10-31 04:47:00,
2013-10-31 00:48:00,61.7,61.1,30.05,SSE,149,0.0,2.0,98,0.00,,,0.00,VWS V14.01,2013-10-31 04:48:00,
2013-10-31 00:49:00,61.8,61.2,30.06,SSE,165,0.0,2.0,98,0.00,,,0.00,VWS V14.01,2013-10-31 04:49:00,
2013-10-31 00:50:00,61.8,61.2,30.05,South,190,0.0,0.0,98,0.00,,,0.00,VWS V14.01,2013-10-31 04:50:00,
2013-10-31 00:51:00,61.8,61.2,30.05,SSW,192,0.0,1.0,98,0.00,,,0.00,VWS V14.01,2013-10-31 04:51:00,
2013-10-31 00:52:00,61.8,61.2,30.05,SSW,192,0.0,1.0,98,0.00,,,0.00,VWS V14.01,2013-10-31 04:52:00,
2013-10-31 00:53:00,61.8,61.2,30.05,SSE,153,0.0,0.0,98,0.00,,,0.00,VWS V14.01,2013-10-31 04:53:00,
2013-10-31 00:54:00,61.8,61.2,30.05,SSW,207,0.0,1.0,98,0.00,,,0.00,VWS V14.01,2013-10-31 04:54:00,
2013-10-31 00:55:00,61.8,61.2,30.05,SSE,158,0.0,0.0,98,0.00,,,0.00,VWS V14.01,2013-10-31 04:55:00,
2013-10-31 00:56:00,61.9,61.3,30.05,South,169,0.0,0.0,98,0.00,,,0.00,VWS V14.01,2013-10-31 04:56:00,
2013-10-31 00:57:00,61.9,61.3,30.05,SSE,152,0.0,0.0,98,0.00,,,0.00,VWS V14.01,2013-10-31 04:57:00,
2013-10-31 00:58:00,61.9,61.3,30.05,South,172,1.0,2.0,98,0.00,,,0.00,VWS V14.01,2013-10-31 04:58:00,
2013-10-31 00:59:00,61.9,61.3,30.05,SSW,207,0.0,1.0,98,0.00,,,0.00,VWS V14.01,2013-10-31 04:59:00,
2013-10-31 01:00:00,62.0,61.4,30.05,SSW,198,0.0,1.0,98,0.00,,,0.00,VWS V14.01,2013-10-31 05:00:00,
2013-10-31 01:01:00,62.0,61.1,30.05,South,169,0.0,2.0,97,0.00,,,0.00,VWS V14.01,2013-10-31 05:01:00,
2013-10-31 01:02:00,62.0,61.1,30.05,South,169,0.0,2.0,97,0.00,,,0.00,VWS V14.01,2013-10-31 05:02:00,
2013-10-31 01:03:00,62.0,61.1,30.05,SSW,195,1.0,2.0,97,0.00,,,0.00,VWS V14.01,2013-10-31 05:03:00,
2013-10-31 01:04:00,62.1,61.2,30.05,SE,136,1.0,2.0,97,0.00,,,0.00,VWS V14.01,2013-10-31 05:04:00,
2013-10-31 01:05:00,62.1,61.2,30.05,South,187,1.0,3.0,97,0.00,,,0.00,VWS V14.01,2013-10-31 05:05:00,
2013-10-31 01:06:00,62.2,61.3,30.05,SSW,198,0.0,2.0,97,0.00,,,0.00,VWS V14.01,2013-10-31 05:06:00,
2013-10-31 01:07:00,62.2,61.3,30.05,SSW,198,0.0,2.0,97,0.00,,,0.00,VWS V14.01,2013-10-31 05:07:00,
2013-10-31 01:08:00,62.2,61.3,30.05,SSW,193,1.0,3.0,97,0.00,,,0.00,VWS V14.01,2013-10-31 05:08:00,
2013-10-31 01:09:00,62.3,61.2,30.05,South,176,0.0,1.0,96,0.00,,,0.00,VWS V14.01,2013-10-31 05:09:00,
2013-10-31 01:10:00,62.3,61.2,30.05,South,186,2.0,2.0,96,0.00,,,0.00,VWS V14.01,2013-10-31 05:10:00,
2013-10-31 01:11:00,62.4,61.2,30.05,South,187,1.0,2.0,96,0.00,,,0.00,VWS V14.01,2013-10-31 05:11:00,
2013-10-31 01:12:00,62.4,61.2,30.05,SSE,159,1.0,2.0,96,0.00,,,0.00,VWS V14.01,2013-10-31 05:12:00,
2013-10-31 01:13:00,62.4,61.2,30.05,SSE,158,1.0,2.0,96,0.00,,,0.00,VWS V14.01,2013-10-31 05:13:00,
2013-10-31 01:14:00,62.5,61.3,30.05,SSW,194,1.0,4.0,96,0.00,,,0.00,VWS V14.01,2013-10-31 05:14:00,
2013-10-31 01:15:00,62.5,61.0,30.05,SE,141,2.0,2.0,95,0.00,,,0.00,VWS V14.01,2013-10-31 05:15:00,
2013-10-31 01:16:00,62.6,61.2,30.05,SSE,152,0.0,3.0,95,0.00,,,0.00,VWS V14.01,2013-10-31 05:16:00,
2013-10-31 01:17:00,62.6,61.2,30.05,SSE,152,0.0,3.0,95,0.00,,,0.00,VWS V14.01,2013-10-31 05:17:00,
2013-10-31 01:18:00,62.6,61.2,30.05,SSE,165,1.0,2.0,95,0.00,,,0.00,VWS V14.01,2013-10-31 05:18:00,
2013-10-31 01:19:00,62.6,61.2,30.05,SW,232,3.0,3.0,95,0.00,,,0.00,VWS V14.01,2013-10-31 05:19:00,
2013-10-31 01:20:00,62.6,61.2,30.05,SE,128,0.0,3.0,95,0.00,,,0.00,VWS V14.01,2013-10-31 05:20:00,
2013-10-31 01:21:00,62.7,61.2,30.05,SSE,149,1.0,3.0,95,0.00,,,0.00,VWS V14.01,2013-10-31 05:21:00,
2013-10-31 01:22:00,62.7,61.2,30.05,South,170,1.0,3.0,95,0.00,,,0.00,VWS V14.01,2013-10-31 05:22:00,
2013-10-31 01:23:00,62.7,61.0,30.05,South,188,2.0,2.0,94,0.00,,,0.00,VWS V14.01,2013-10-31 05:23:00,
2013-10-31 01:24:00,62.7,61.0,30.05,SSW,203,1.0,2.0,94,0.00,,,0.00,VWS V14.01,2013-10-31 05:24:00,
2013-10-31 01:25:00,62.7,61.0,30.05,SSE,164,0.0,2.0,94,0.00,,,0.00,VWS V14.01,2013-10-31 05:25:00,
2013-10-31 01:26:00,62.7,61.0,30.05,SSE,164,1.0,5.0,94,0.00,,,0.00,VWS V14.01,2013-10-31 05:26:00,
2013-10-31 01:27:00,62.7,61.0,30.05,SW,218,2.0,5.0,94,0.00,,,0.00,VWS V14.01,2013-10-31 05:27:00,
2013-10-31 01:28:00,62.8,61.0,30.05,SE,146,2.0,3.0,94,0.00,,,0.00,VWS V14.01,2013-10-31 05:28:00,
2013-10-31 01:29:00,62.8,61.0,30.05,South,184,2.0,2.0,94,0.00,,,0.00,VWS V14.01,2013-10-31 05:29:00,
2013-10-31 01:30:00,62.8,61.0,30.05,SSW,200,3.0,3.0,94,0.00,,,0.00,VWS V14.01,2013-10-31 05:30:00,
2013-10-31 01:31:00,62.8,61.0,30.05,South,184,1.0,1.0,94,0.00,,,0.00,VWS V14.01,2013-10-31 05:31:00,
2013-10-31 01:32:00,62.8,61.0,30.05,SSE,153,2.0,2.0,94,0.00,,,0.00,VWS V14.01,2013-10-31 05:32:00,
2013-10-31 01:33:00,62.8,61.0,30.05,SW,226,0.0,2.0,94,0.00,,,0.00,VWS V14.01,2013-10-31 05:33:00,
2013-10-31 01:34:00,62.8,61.0,30.05,SE,129,0.0,3.0,94,0.00,,,0.00,VWS V14.01,2013-10-31 05:34:00,
2013-10-31 01:35:00,62.8,61.0,30.05,SSE,148,1.0,3.0,94,0.00,,,0.00,VWS V14.01,2013-10-31 05:35:00,
2013-10-31 01:36:00,62.8,61.0,30.05,South,190,0.0,1.0,94,0.00,,,0.00,VWS V14.01,2013-10-31 05:36:00,
2013-10-31 01:37:00,62.8,61.0,30.05,SSW,204,1.0,1.0,94,0.00,,,0.00,VWS V14.01,2013-10-31 05:37:00,
2013-10-31 01:38:00,62.8,61.0,30.05,South,172,0.0,1.0,94,0.00,,,0.00,VWS V14.01,2013-10-31 05:38:00,
2013-10-31 01:39:00,62.8,61.0,30.05,SSE,167,0.0,1.0,94,0.00,,,0.00,VWS V14.01,2013-10-31 05:39:00,
2013-10-31 01:40:00,62.8,61.0,30.05,South,190,1.0,1.0,94,0.00,,,0.00,VWS V14.01,2013-10-31 05:40:00,
2013-10-31 01:41:00,62.7,61.0,30.04,South,188,0.0,0.0,94,0.00,,,0.00,VWS V14.01,2013-10-31 05:41:00,
2013-10-31 01:42:00,62.7,61.0,30.05,South,188,0.0,4.0,94,0.00,,,0.00,VWS V14.01,2013-10-31 05:42:00,
2013-10-31 01:43:00,62.7,61.0,30.04,South,181,0.0,1.0,94,0.00,,,0.00,VWS V14.01,2013-10-31 05:43:00,
2013-10-31 01:44:00,62.7,61.0,30.04,SSE,152,0.0,1.0,94,0.00,,,0.00,VWS V14.01,2013-10-31 05:44:00,
2013-10-31 01:45:00,62.6,60.8,30.04,SE,146,3.0,3.0,94,0.00,,,0.00,VWS V14.01,2013-10-31 05:45:00,
2013-10-31 01:46:00,62.6,60.8,30.04,SSE,149,0.0,0.0,94,0.00,,,0.00,VWS V14.01,2013-10-31 05:46:00,
2013-10-31 01:47:00,62.6,60.8,30.04,SSE,149,0.0,0.0,94,0.00,,,0.00,VWS V14.01,2013-10-31 05:47:00,
2013-10-31 01:48:00,62.6,60.8,30.04,SSE,164,0.0,0.0,94,0.00,,,0.00,VWS V14.01,2013-10-31 05:48:00,
2013-10-31 01:49:00,62.6,60.8,30.04,South,181,2.0,2.0,94,0.00,,,0.00,VWS V14.01,2013-10-31 05:49:00,
2013-10-31 01:50:00,62.6,60.8,30.04,ESE,119,1.0,2.0,94,0.00,,,0.00,VWS V14.01,2013-10-31 05:50:00,
2013-10-31 01:51:00,62.5,60.8,30.04,SSW,194,0.0,1.0,94,0.00,,,0.00,VWS V14.01,2013-10-31 05:51:00,
2013-10-31 01:52:00,62.5,60.8,30.04,South,190,1.0,3.0,94,0.00,,,0.00,VWS V14.01,2013-10-31 05:52:00,
2013-10-31 01:53:00,62.5,60.8,30.04,South,179,0.0,2.0,94,0.00,,,0.00,VWS V14.01,2013-10-31 05:53:00,
2013-10-31 01:54:00,62.5,60.8,30.04,SSW,210,2.0,3.0,94,0.00,,,0.00,VWS V14.01,2013-10-31 05:54:00,
2013-10-31 01:55:00,62.4,60.7,30.04,South,180,1.0,3.0,94,0.00,,,0.00,VWS V14.01,2013-10-31 05:55:00,
2013-10-31 01:56:00,62.4,60.7,30.04,SSW,210,0.0,0.0,94,0.00,,,0.00,VWS V14.01,2013-10-31 05:56:00,
2013-10-31 01:57:00,62.4,60.7,30.04,SSW,209,0.0,1.0,94,0.00,,,0.00,VWS V14.01,2013-10-31 05:57:00,
2013-10-31 01:58:00,62.4,60.7,30.04,SSE,159,1.0,3.0,94,0.00,,,0.00,VWS V14.01,2013-10-31 05:58:00,
2013-10-31 01:59:00,62.4,60.7,30.04,SSW,200,3.0,3.0,94,0.00,,,0.00,VWS V14.01,2013-10-31 05:59:00,
2013-10-31 02:00:00,62.4,60.7,30.04,South,186,1.0,3.0,94,0.00,,,0.00,VWS V14.01,2013-10-31 06:00:00,
2013-10-31 02:01:00,62.4,60.7,30.04,ESE,122,2.0,2.0,94,0.00,,,0.00,VWS V14.01,2013-10-31 06:01:00,
2013-10-31 02:02:00,62.4,60.7,30.04,SSE,164,1.0,2.0,94,0.00,,,0.00,VWS V14.01,2013-10-31 06:02:00,
2013-10-31 02:03:00,62.3,60.6,30.04,SE,132,0.0,2.0,94,0.00,,,0.00,VWS V14.01,2013-10-31 06:03:00,
2013-10-31 02:04:00,62.3,60.6,30.04,SW,217,0.0,1.0,94,0.00,,,0.00,VWS V14.01,2013-10-31 06:04:00,
2013-10-31 02:05:00,62.3,60.6,30.04,SSW,203,0.0,0.0,94,0.00,,,0.00,VWS V14.01,2013-10-31 06:05:00,
2013-10-31 02:06:00,62.3,60.6,30.04,SSW,192,2.0,3.0,94,0.00,,,0.00,VWS V14.01,2013-10-31 06:06:00,
2013-10-31 02:07:00,62.3,60.6,30.04,SSW,192,2.0,3.0,94,0.00,,,0.00,VWS V14.01,2013-10-31 06:07:00,
2013-10-31 02:08:00,62.2,60.5,30.04,SE,136,0.0,3.0,94,0.00,,,0.00,VWS V14.01,2013-10-31 06:08:00,
2013-10-31 02:09:00,62.2,60.5,30.04,SSE,155,1.0,2.0,94,0.00,,,0.00,VWS V14.01,2013-10-31 06:09:00,
2013-10-31 02:10:00,62.2,60.5,30.04,South,186,0.0,2.0,94,0.00,,,0.00,VWS V14.01,2013-10-31 06:10:00,
2013-10-31 02:11:00,62.2,60.5,30.03,SSW,210,0.0,3.0,94,0.00,,,0.00,VWS V14.01,2013-10-31 06:11:00,
2013-10-31 02:12:00,62.2,60.5,30.03,SSW,210,0.0,3.0,94,0.00,,,0.00,VWS V14.01,2013-10-31 06:12:00,
2013-10-31 02:13:00,62.2,60.5,30.03,SE,145,0.0,2.0,94,0.00,,,0.00,VWS V14.01,2013-10-31 06:13:00,
2013-10-31 02:14:00,62.2,60.2,30.03,SE,143,0.0,1.0,93,0.00,,,0.00,VWS V14.01,2013-10-31 06:14:00,
2013-10-31 02:15:00,62.2,60.2,30.03,SE,142,1.0,1.0,93,0.00,,,0.00,VWS V14.01,2013-10-31 06:15:00,
2013-10-31 02:16:00,62.2,60.2,30.03,South,186,0.0,2.0,93,0.00,,,0.00,VWS V14.01,2013-10-31 06:16:00,
2013-10-31 02:17:00,62.2,60.2,30.03,South,186,0.0,2.0,93,0.00,,,0.00,VWS V14.01,2013-10-31 06:17:00,
2013-10-31 02:18:00,62.2,60.2,30.03,South,169,0.0,3.0,93,0.00,,,0.00,VWS V14.01,2013-10-31 06:18:00,
2013-10-31 02:19:00,62.2,60.2,30.03,SSW,203,3.0,3.0,93,0.00,,,0.00,VWS V14.01,2013-10-31 06:19:00,
2013-10-31 02:20:00,62.2,60.2,30.03,South,190,2.0,3.0,93,0.00,,,0.00,VWS V14.01,2013-10-31 06:20:00,
2013-10-31 02:21:00,62.2,60.2,30.03,SW,215,1.0,1.0,93,0.00,,,0.00,VWS V14.01,2013-10-31 06:21:00,
2013-10-31 02:22:00,62.2,60.2,30.03,SW,215,1.0,1.0,93,0.00,,,0.00,VWS V14.01,2013-10-31 06:22:00,
2013-10-31 02:23:00,62.2,60.2,30.03,South,188,0.0,2.0,93,0.00,,,0.00,VWS V14.01,2013-10-31 06:23:00,
2013-10-31 02:24:00,62.2,60.2,30.03,SSE,167,0.0,0.0,93,0.00,,,0.00,VWS V14.01,2013-10-31 06:24:00,
2013-10-31 02:25:00,62.2,60.2,30.03,SE,143,0.0,3.0,93,0.00,,,0.00,VWS V14.01,2013-10-31 06:25:00,
2013-10-31 02:26:00,62.2,60.2,30.03,SW,225,2.0,2.0,93,0.00,,,0.00,VWS V14.01,2013-10-31 06:26:00,
2013-10-31 02:27:00,62.2,60.2,30.03,SW,225,2.0,2.0,93,0.00,,,0.00,VWS V14.01,2013-10-31 06:27:00,
2013-10-31 02:28:00,62.2,60.2,30.03,SSW,210,1.0,2.0,93,0.00,,,0.00,VWS V14.01,2013-10-31 06:28:00,
2013-10-31 02:29:00,62.2,60.2,30.03,South,186,0.0,2.0,93,0.00,,,0.00,VWS V14.01,2013-10-31 06:29:00,
2013-10-31 02:30:00,62.2,60.2,30.03,South,184,2.0,3.0,93,0.00,,,0.00,VWS V14.01,2013-10-31 06:30:00,
2013-10-31 02:31:00,62.2,60.2,30.03,South,181,0.0,4.0,93,0.00,,,0.00,VWS V14.01,2013-10-31 06:31:00,
2013-10-31 02:32:00,62.2,60.2,30.03,South,181,0.0,4.0,93,0.00,,,0.00,VWS V14.01,2013-10-31 06:32:00,
2013-10-31 02:33:00,62.2,59.8,30.03,SW,222,2.0,2.0,92,0.00,,,0.00,VWS V14.01,2013-10-31 06:33:00,
2013-10-31 02:34:00,62.2,59.8,30.03,SW,218,2.0,2.0,92,0.00,,,0.00,VWS V14.01,2013-10-31 06:34:00,
2013-10-31 02:35:00,62.2,59.8,30.03,SW,231,3.0,5.0,92,0.00,,,0.00,VWS V14.01,2013-10-31 06:35:00,
2013-10-31 02:36:00,62.3,60.0,30.03,SSW,207,1.0,1.0,92,0.00,,,0.00,VWS V14.01,2013-10-31 06:36:00,
2013-10-31 02:37:00,62.3,60.0,30.03,SSW,203,1.0,1.0,92,0.00,,,0.00,VWS V14.01,2013-10-31 06:37:00,
2013-10-31 02:38:00,62.3,60.0,30.03,SW,214,0.0,1.0,92,0.00,,,0.00,VWS V14.01,2013-10-31 06:38:00,
2013-10-31 02:39:00,62.3,60.0,30.03,SSE,159,0.0,2.0,92,0.00,,,0.00,VWS V14.01,2013-10-31 06:39:00,
2013-10-31 02:40:00,62.3,60.0,30.03,South,179,0.0,0.0,92,0.00,,,0.00,VWS V14.01,2013-10-31 06:40:00,
2013-10-31 02:41:00,62.3,59.6,30.03,SSW,203,1.0,2.0,91,0.00,,,0.00,VWS V14.01,2013-10-31 06:41:00,
2013-10-31 02:42:00,62.3,59.6,30.03,SSW,203,1.0,2.0,91,0.00,,,0.00,VWS V14.01,2013-10-31 06:42:00,
2013-10-31 02:43:00,62.4,59.7,30.03,South,181,1.0,2.0,91,0.00,,,0.00,VWS V14.01,2013-10-31 06:43:00,
2013-10-31 02:44:00,62.4,59.7,30.03,South,187,2.0,2.0,91,0.00,,,0.00,VWS V14.01,2013-10-31 06:44:00,
2013-10-31 02:45:00,62.4,59.7,30.03,SSE,153,0.0,3.0,91,0.00,,,0.00,VWS V14.01,2013-10-31 06:45:00,
2013-10-31 02:46:00,62.4,59.7,30.02,South,191,1.0,2.0,91,0.00,,,0.00,VWS V14.01,2013-10-31 06:46:00,
2013-10-31 02:47:00,62.4,59.7,30.02,South,181,2.0,2.0,91,0.00,,,0.00,VWS V14.01,2013-10-31 06:47:00,
2013-10-31 02:48:00,62.4,59.7,30.02,SSE,148,0.0,2.0,91,0.00,,,0.00,VWS V14.01,2013-10-31 06:48:00,
2013-10-31 02:49:00,62.4,59.7,30.02,SSW,201,1.0,1.0,91,0.00,,,0.00,VWS V14.01,2013-10-31 06:49:00,
2013-10-31 02:50:00,62.4,59.7,30.02,SSE,158,0.0,3.0,91,0.00,,,0.00,VWS V14.01,2013-10-31 06:50:00,
2013-10-31 02:51:00,62.4,59.7,30.02,South,181,2.0,3.0,91,0.00,,,0.00,VWS V14.01,2013-10-31 06:51:00,
2013-10-31 02:52:00,62.4,59.7,30.02,South,181,2.0,3.0,91,0.00,,,0.00,VWS V14.01,2013-10-31 06:52:00,
2013-10-31 02:53:00,62.4,59.7,30.02,SSE,147,0.0,2.0,91,0.00,,,0.00,VWS V14.01,2013-10-31 06:53:00,
2013-10-31 02:54:00,62.4,59.7,30.02,South,184,0.0,0.0,91,0.00,,,0.00,VWS V14.01,2013-10-31 06:54:00,
2013-10-31 02:55:00,62.4,59.7,30.02,SSE,159,1.0,1.0,91,0.00,,,0.00,VWS V14.01,2013-10-31 06:55:00,
2013-10-31 02:56:00,62.4,59.7,30.02,SE,143,0.0,1.0,91,0.00,,,0.00,VWS V14.01,2013-10-31 06:56:00,
2013-10-31 02:57:00,62.4,59.7,30.02,SE,145,0.0,1.0,91,0.00,,,0.00,VWS V14.01,2013-10-31 06:57:00,
2013-10-31 02:58:00,62.3,59.6,30.02,South,187,0.0,2.0,91,0.00,,,0.00,VWS V14.01,2013-10-31 06:58:00,
2013-10-31 02:59:00,62.3,59.6,30.02,South,179,0.0,1.0,91,0.00,,,0.00,VWS V14.01,2013-10-31 06:59:00,
2013-10-31 03:00:00,62.2,59.5,30.02,SE,141,0.0,1.0,91,0.00,,,0.00,VWS V14.01,2013-10-31 07:00:00,
2013-10-31 03:01:00,62.2,59.5,30.01,SSE,151,0.0,3.0,91,0.00,,,0.00,VWS V14.01,2013-10-31 07:01:00,
2013-10-31 03:02:00,62.2,59.5,30.01,SSE,151,0.0,3.0,91,0.00,,,0.00,VWS V14.01,2013-10-31 07:02:00,
2013-10-31 03:03:00,62.2,59.5,30.01,South,179,1.0,1.0,91,0.00,,,0.00,VWS V14.01,2013-10-31 07:03:00,
2013-10-31 03:04:00,62.2,59.5,30.01,SSE,155,0.0,2.0,91,0.00,,,0.00,VWS V14.01,2013-10-31 07:04:00,
2013-10-31 03:05:00,62.1,59.5,30.01,SSE,159,0.0,1.0,91,0.00,,,0.00,VWS V14.01,2013-10-31 07:05:00,
2013-10-31 03:06:00,62.1,59.5,30.02,SSE,167,1.0,2.0,91,0.00,,,0.00,VWS V14.01,2013-10-31 07:06:00,
2013-10-31 03:07:00,62.1,59.5,30.02,SSW,210,1.0,2.0,91,0.00,,,0.00,VWS V14.01,2013-10-31 07:07:00,
2013-10-31 03:08:00,62.1,59.5,30.02,South,169,0.0,1.0,91,0.00,,,0.00,VWS V14.01,2013-10-31 07:08:00,
2013-10-31 03:09:00,62.1,59.5,30.02,SSE,158,4.0,4.0,91,0.00,,,0.00,VWS V14.01,2013-10-31 07:09:00,
2013-10-31 03:10:00,62.1,59.5,30.02,SSW,204,1.0,4.0,91,0.00,,,0.00,VWS V14.01,2013-10-31 07:10:00,
2013-10-31 03:11:00,62.0,59.3,30.01,SSW,212,2.0,3.0,91,0.00,,,0.00,VWS V14.01,2013-10-31 07:11:00,
2013-10-31 03:12:00,62.0,59.3,30.01,SSW,212,2.0,3.0,91,0.00,,,0.00,VWS V14.01,2013-10-31 07:12:00,
2013-10-31 03:13:00,62.1,59.5,30.01,South,184,1.0,4.0,91,0.00,,,0.00,VWS V14.01,2013-10-31 07:13:00,
2013-10-31 03:14:00,62.1,59.1,30.01,SSE,162,0.0,3.0,90,0.00,,,0.00,VWS V14.01,2013-10-31 07:14:00,
2013-10-31 03:15:00,62.1,59.1,30.01,SSW,200,0.0,1.0,90,0.00,,,0.00,VWS V14.01,2013-10-31 07:15:00,
2013-10-31 03:16:00,62.1,59.1,30.01,SSE,153,1.0,2.0,90,0.00,,,0.00,VWS V14.01,2013-10-31 07:16:00,
2013-10-31 03:17:00,62.1,59.1,30.01,SSE,153,1.0,2.0,90,0.00,,,0.00,VWS V14.01,2013-10-31 07:17:00,
2013-10-31 03:18:00,62.1,59.1,30.01,South,177,0.0,2.0,90,0.00,,,0.00,VWS V14.01,2013-10-31 07:18:00,
2013-10-31 03:19:00,62.1,59.1,30.01,SE,142,0.0,2.0,90,0.00,,,0.00,VWS V14.01,2013-10-31 07:19:00,
2013-10-31 03:20:00,62.1,59.1,30.01,SSE,166,0.0,2.0,90,0.00,,,0.00,VWS V14.01,2013-10-31 07:20:00,
2013-10-31 03:21:00,62.1,59.1,30.01,SSW,193,1.0,2.0,90,0.00,,,0.00,VWS V14.01,2013-10-31 07:21:00,
2013-10-31 03:22:00,62.1,59.1,30.01,SSW,193,1.0,2.0,90,0.00,,,0.00,VWS V14.01,2013-10-31 07:22:00,
2013-10-31 03:23:00,62.1,59.1,30.01,SSE,160,0.0,1.0,90,0.00,,,0.00,VWS V14.01,2013-10-31 07:23:00,
2013-10-31 03:24:00,62.0,59.0,30.01,South,184,1.0,1.0,90,0.00,,,0.00,VWS V14.01,2013-10-31 07:24:00,
2013-10-31 03:25:00,62.0,59.0,30.01,South,186,0.0,1.0,90,0.00,,,0.00,VWS V14.01,2013-10-31 07:25:00,
2013-10-31 03:26:00,61.9,58.9,30.01,SSW,208,2.0,2.0,90,0.00,,,0.00,VWS V14.01,2013-10-31 07:26:00,
2013-10-31 03:27:00,61.9,58.9,30.01,SSW,210,1.0,2.0,90,0.00,,,0.00,VWS V14.01,2013-10-31 07:27:00,
2013-10-31 03:28:00,61.9,58.9,30.01,SSW,194,0.0,2.0,90,0.00,,,0.00,VWS V14.01,2013-10-31 07:28:00,
2013-10-31 03:29:00,61.9,58.9,30.01,South,187,0.0,1.0,90,0.00,,,0.00,VWS V14.01,2013-10-31 07:29:00,
2013-10-31 03:30:00,61.9,58.9,30.01,SSE,156,0.0,2.0,90,0.00,,,0.00,VWS V14.01,2013-10-31 07:30:00,
2013-10-31 03:31:00,61.8,58.8,30.01,SW,218,1.0,1.0,90,0.00,,,0.00,VWS V14.01,2013-10-31 07:31:00,
2013-10-31 03:32:00,61.8,58.8,30.01,SSW,207,0.0,1.0,90,0.00,,,0.00,VWS V14.01,2013-10-31 07:32:00,
2013-10-31 03:33:00,61.8,58.8,30.01,SSE,165,0.0,2.0,90,0.00,,,0.00,VWS V14.01,2013-10-31 07:33:00,
2013-10-31 03:34:00,61.8,58.8,30.01,SSW,193,1.0,2.0,90,0.00,,,0.00,VWS V14.01,2013-10-31 07:34:00,
2013-10-31 03:35:00,61.7,58.7,30.01,South,181,2.0,2.0,90,0.00,,,0.00,VWS V14.01,2013-10-31 07:35:00,
2013-10-31 03:36:00,61.7,58.7,30.01,SSW,205,2.0,2.0,90,0.00,,,0.00,VWS V14.01,2013-10-31 07:36:00,
2013-10-31 03:37:00,61.7,58.7,30.01,SSW,198,1.0,2.0,90,0.00,,,0.00,VWS V14.01,2013-10-31 07:37:00,
2013-10-31 03:38:00,61.7,58.7,30.01,South,187,2.0,2.0,90,0.00,,,0.00,VWS V14.01,2013-10-31 07:38:00,
2013-10-31 03:39:00,61.7,58.7,30.01,SSE,167,0.0,2.0,90,0.00,,,0.00,VWS V14.01,2013-10-31 07:39:00,
2013-10-31 03:40:00,61.8,58.8,30.01,South,191,0.0,2.0,90,0.00,,,0.00,VWS V14.01,2013-10-31 07:40:00,
2013-10-31 03:41:00,61.8,58.8,30.01,SE,145,0.0,2.0,90,0.00,,,0.00,VWS V14.01,2013-10-31 07:41:00,
2013-10-31 03:42:00,61.8,58.8,30.01,SE,146,0.0,2.0,90,0.00,,,0.00,VWS V14.01,2013-10-31 07:42:00,
2013-10-31 03:43:00,61.7,58.7,30.01,SSW,209,1.0,3.0,90,0.00,,,0.00,VWS V14.01,2013-10-31 07:43:00,
2013-10-31 03:44:00,61.8,58.8,30.01,SSW,212,3.0,3.0,90,0.00,,,0.00,VWS V14.01,2013-10-31 07:44:00,
2013-10-31 03:45:00,61.8,58.8,30.01,South,188,0.0,3.0,90,0.00,,,0.00,VWS V14.01,2013-10-31 07:45:00,
2013-10-31 03:46:00,61.8,58.8,30.01,SSW,194,2.0,2.0,90,0.00,,,0.00,VWS V14.01,2013-10-31 07:46:00,
2013-10-31 03:47:00,61.8,58.8,30.01,SSW,201,2.0,2.0,90,0.00,,,0.00,VWS V14.01,2013-10-31 07:47:00,
2013-10-31 03:48:00,61.8,58.8,30.01,SE,136,0.0,4.0,90,0.00,,,0.00,VWS V14.01,2013-10-31 07:48:00,
2013-10-31 03:49:00,61.8,58.8,30.01,SSW,194,4.0,4.0,90,0.00,,,0.00,VWS V14.01,2013-10-31 07:49:00,
2013-10-31 03:50:00,61.8,58.8,30.01,South,190,0.0,4.0,90,0.00,,,0.00,VWS V14.01,2013-10-31 07:50:00,
2013-10-31 03:51:00,61.8,58.8,30.01,SSW,200,2.0,2.0,90,0.00,,,0.00,VWS V14.01,2013-10-31 07:51:00,
2013-10-31 03:52:00,61.9,58.9,30.01,SSE,159,5.0,5.0,90,0.00,,,0.00,VWS V14.01,2013-10-31 07:52:00,
2013-10-31 03:53:00,61.9,58.6,30.01,SSW,195,1.0,5.0,89,0.00,,,0.00,VWS V14.01,2013-10-31 07:53:00,
2013-10-31 03:54:00,61.9,58.6,30.01,SE,142,0.0,1.0,89,0.00,,,0.00,VWS V14.01,2013-10-31 07:54:00,
2013-10-31 03:55:00,61.9,58.6,30.01,South,185,2.0,2.0,89,0.00,,,0.00,VWS V14.01,2013-10-31 07:55:00,
2013-10-31 03:56:00,62.0,58.7,30.01,SSE,167,2.0,5.0,89,0.00,,,0.00,VWS V14.01,2013-10-31 07:56:00,
2013-10-31 03:57:00,62.0,58.7,30.01,South,175,4.0,5.0,89,0.00,,,0.00,VWS V14.01,2013-10-31 07:57:00,
2013-10-31 03:58:00,62.0,58.7,30.01,SSW,207,3.0,4.0,89,0.00,,,0.00,VWS V14.01,2013-10-31 07:58:00,
2013-10-31 03:59:00,62.1,58.8,30.01,South,183,4.0,5.0,89,0.00,,,0.00,VWS V14.01,2013-10-31 07:59:00,
2013-10-31 04:00:00,62.1,58.5,30.01,SSE,163,2.0,6.0,88,0.00,,,0.00,VWS V14.01,2013-10-31 08:00:00,
2013-10-31 04:01:00,62.2,58.6,30.01,SSE,164,3.0,3.0,88,0.00,,,0.00,VWS V14.01,2013-10-31 08:01:00,
2013-10-31 04:02:00,62.3,58.7,30.01,South,179,2.0,3.0,88,0.00,,,0.00,VWS V14.01,2013-10-31 08:02:00,
2013-10-31 04:03:00,62.3,58.7,30.01,South,179,1.0,3.0,88,0.00,,,0.00,VWS V14.01,2013-10-31 08:03:00,
2013-10-31 04:04:00,62.3,58.7,30.01,SE,130,3.0,3.0,88,0.00,,,0.00,VWS V14.01,2013-10-31 08:04:00,
2013-10-31 04:05:00,62.4,58.5,30.01,SSE,155,1.0,4.0,87,0.00,,,0.00,VWS V14.01,2013-10-31 08:05:00,
2013-10-31 04:06:00,62.4,58.5,30.00,SW,219,0.0,2.0,87,0.00,,,0.00,VWS V14.01,2013-10-31 08:06:00,
2013-10-31 04:07:00,62.4,58.5,30.00,SE,129,0.0,2.0,87,0.00,,,0.00,VWS V14.01,2013-10-31 08:07:00,
2013-10-31 04:08:00,62.4,58.5,30.00,ESE,114,2.0,3.0,87,0.00,,,0.00,VWS V14.01,2013-10-31 08:08:00,
2013-10-31 04:09:00,62.5,58.6,30.00,South,184,1.0,5.0,87,0.00,,,0.00,VWS V14.01,2013-10-31 08:09:00,
2013-10-31 04:10:00,62.5,58.6,30.00,SSW,200,1.0,1.0,87,0.00,,,0.00,VWS V14.01,2013-10-31 08:10:00,
2013-10-31 04:11:00,62.5,58.6,30.00,SSE,158,1.0,3.0,87,0.00,,,0.00,VWS V14.01,2013-10-31 08:11:00,
2013-10-31 04:12:00,62.5,58.6,30.00,SSW,211,1.0,3.0,87,0.00,,,0.00,VWS V14.01,2013-10-31 08:12:00,
2013-10-31 04:13:00,62.6,58.4,30.00,South,176,1.0,4.0,86,0.00,,,0.00,VWS V14.01,2013-10-31 08:13:00,
2013-10-31 04:14:00,62.5,58.3,30.00,SW,218,3.0,3.0,86,0.00,,,0.00,VWS V14.01,2013-10-31 08:14:00,
2013-10-31 04:15:00,62.6,58.4,29.99,SE,143,2.0,3.0,86,0.00,,,0.00,VWS V14.01,2013-10-31 08:15:00,
2013-10-31 04:16:00,62.5,58.3,30.00,SSW,200,0.0,2.0,86,0.00,,,0.00,VWS V14.01,2013-10-31 08:16:00,
2013-10-31 04:17:00,62.6,58.4,30.00,SSW,200,0.0,2.0,86,0.00,,,0.00,VWS V14.01,2013-10-31 08:17:00,
2013-10-31 04:18:00,62.6,58.4,29.99,South,172,2.0,3.0,86,0.00,,,0.00,VWS V14.01,2013-10-31 08:18:00,
2013-10-31 04:19:00,62.5,58.3,29.99,South,179,0.0,2.0,86,0.00,,,0.00,VWS V14.01,2013-10-31 08:19:00,
2013-10-31 04:20:00,62.5,58.3,29.99,SSW,197,2.0,3.0,86,0.00,,,0.00,VWS V14.01,2013-10-31 08:20:00,
2013-10-31 04:21:00,62.5,58.3,29.99,SE,145,0.0,2.0,86,0.00,,,0.00,VWS V14.01,2013-10-31 08:21:00,
2013-10-31 04:22:00,62.5,58.3,29.99,SE,145,0.0,2.0,86,0.00,,,0.00,VWS V14.01,2013-10-31 08:22:00,
2013-10-31 04:23:00,62.5,58.3,29.99,SSE,162,0.0,1.0,86,0.00,,,0.00,VWS V14.01,2013-10-31 08:23:00,
2013-10-31 04:24:00,62.5,58.3,29.99,SW,222,0.0,2.0,86,0.00,,,0.00,VWS V14.01,2013-10-31 08:24:00,
2013-10-31 04:25:00,62.5,58.3,29.99,SSE,163,2.0,3.0,86,0.00,,,0.00,VWS V14.01,2013-10-31 08:25:00,
2013-10-31 04:26:00,62.5,58.3,29.98,SSW,204,1.0,2.0,86,0.00,,,0.00,VWS V14.01,2013-10-31 08:26:00,
2013-10-31 04:27:00,62.5,58.3,29.98,SSE,148,1.0,2.0,86,0.00,,,0.00,VWS V14.01,2013-10-31 08:27:00,
2013-10-31 04:28:00,62.5,58.3,29.98,SE,141,1.0,3.0,86,0.00,,,0.00,VWS V14.01,2013-10-31 08:28:00,
2013-10-31 04:29:00,62.4,58.2,29.98,SSE,160,1.0,2.0,86,0.00,,,0.00,VWS V14.01,2013-10-31 08:29:00,
2013-10-31 04:30:00,62.5,58.3,29.98,SSE,149,1.0,4.0,86,0.00,,,0.00,VWS V14.01,2013-10-31 08:30:00,
2013-10-31 04:31:00,62.4,58.2,29.98,SSE,165,2.0,4.0,86,0.00,,,0.00,VWS V14.01,2013-10-31 08:31:00,
2013-10-31 04:32:00,62.4,58.2,29.98,South,191,0.0,4.0,86,0.00,,,0.00,VWS V14.01,2013-10-31 08:32:00,
2013-10-31 04:33:00,62.4,58.2,29.98,SSE,147,0.0,1.0,86,0.00,,,0.00,VWS V14.01,2013-10-31 08:33:00,
2013-10-31 04:34:00,62.5,58.3,29.98,SE,143,0.0,3.0,86,0.00,,,0.00,VWS V14.01,2013-10-31 08:34:00,
2013-10-31 04:35:00,62.5,58.3,29.98,SE,143,2.0,4.0,86,0.00,,,0.00,VWS V14.01,2013-10-31 08:35:00,
2013-10-31 04:36:00,62.5,58.3,29.98,South,170,1.0,3.0,86,0.00,,,0.00,VWS V14.01,2013-10-31 08:36:00,
2013-10-31 04:37:00,62.5,58.3,29.98,South,186,1.0,3.0,86,0.00,,,0.00,VWS V14.01,2013-10-31 08:37:00,
2013-10-31 04:38:00,62.5,58.3,29.98,SSE,156,1.0,2.0,86,0.00,,,0.00,VWS V14.01,2013-10-31 08:38:00,
2013-10-31 04:39:00,62.5,58.3,29.98,SSW,207,2.0,2.0,86,0.00,,,0.00,VWS V14.01,2013-10-31 08:39:00,
2013-10-31 04:40:00,62.5,58.3,29.98,South,174,2.0,3.0,86,0.00,,,0.00,VWS V14.01,2013-10-31 08:40:00,
2013-10-31 04:41:00,62.6,58.0,29.98,SSE,164,1.0,3.0,85,0.00,,,0.00,VWS V14.01,2013-10-31 08:41:00,
2013-10-31 04:42:00,62.6,58.0,29.98,SW,235,2.0,3.0,85,0.00,,,0.00,VWS V14.01,2013-10-31 08:42:00,
2013-10-31 04:43:00,62.6,58.0,29.98,SSW,205,2.0,2.0,85,0.00,,,0.00,VWS V14.01,2013-10-31 08:43:00,
2013-10-31 04:44:00,62.6,58.0,29.98,South,188,3.0,4.0,85,0.00,,,0.00,VWS V14.01,2013-10-31 08:44:00,
2013-10-31 04:45:00,62.6,58.0,29.98,SSW,204,2.0,4.0,85,0.00,,,0.00,VWS V14.01,2013-10-31 08:45:00,
2013-10-31 04:46:00,62.7,58.1,29.98,SE,139,2.0,3.0,85,0.00,,,0.00,VWS V14.01,2013-10-31 08:46:00,
2013-10-31 04:47:00,62.7,58.1,29.98,South,172,2.0,3.0,85,0.00,,,0.00,VWS V14.01,2013-10-31 08:47:00,
2013-10-31 04:48:00,62.7,58.1,29.98,SE,133,2.0,4.0,85,0.00,,,0.00,VWS V14.01,2013-10-31 08:48:00,
2013-10-31 04:49:00,62.8,58.2,29.98,SW,222,3.0,4.0,85,0.00,,,0.00,VWS V14.01,2013-10-31 08:49:00,
2013-10-31 04:50:00,62.8,58.2,29.98,South,172,3.0,3.0,85,0.00,,,0.00,VWS V14.01,2013-10-31 08:50:00,
2013-10-31 04:51:00,62.8,58.2,29.98,SSE,150,0.0,2.0,85,0.00,,,0.00,VWS V14.01,2013-10-31 08:51:00,
2013-10-31 04:52:00,62.8,58.2,29.98,South,179,0.0,2.0,85,0.00,,,0.00,VWS V14.01,2013-10-31 08:52:00,
2013-10-31 04:53:00,62.8,58.2,29.98,SSW,194,1.0,2.0,85,0.00,,,0.00,VWS V14.01,2013-10-31 08:53:00,
2013-10-31 04:54:00,62.9,58.3,29.98,SSE,148,2.0,4.0,85,0.00,,,0.00,VWS V14.01,2013-10-31 08:54:00,
2013-10-31 04:55:00,62.9,58.3,29.98,SSE,165,4.0,4.0,85,0.00,,,0.00,VWS V14.01,2013-10-31 08:55:00,
2013-10-31 04:56:00,62.9,58.0,29.98,South,180,2.0,4.0,84,0.00,,,0.00,VWS V14.01,2013-10-31 08:56:00,
2013-10-31 04:57:00,62.9,58.0,29.98,SSW,200,1.0,4.0,84,0.00,,,0.00,VWS V14.01,2013-10-31 08:57:00,
2013-10-31 04:58:00,63.0,58.1,29.98,South,186,3.0,3.0,84,0.00,,,0.00,VWS V14.01,2013-10-31 08:58:00,
2013-10-31 04:59:00,63.0,58.1,29.98,SSW,194,1.0,3.0,84,0.00,,,0.00,VWS V14.01,2013-10-31 08:59:00,
2013-10-31 05:00:00,63.0,58.1,29.98,SSE,147,2.0,4.0,84,0.00,,,0.00,VWS V14.01,2013-10-31 09:00:00,
2013-10-31 05:01:00,63.0,58.1,29.98,SSW,203,2.0,3.0,84,0.00,,,0.00,VWS V14.01,2013-10-31 09:01:00,
2013-10-31 05:02:00,63.0,58.1,29.98,South,170,3.0,3.0,84,0.00,,,0.00,VWS V14.01,2013-10-31 09:02:00,
2013-10-31 05:03:00,63.0,58.1,29.98,South,169,4.0,4.0,84,0.00,,,0.00,VWS V14.01,2013-10-31 09:03:00,
2013-10-31 05:04:00,63.0,58.1,29.98,SSE,150,1.0,4.0,84,0.00,,,0.00,VWS V14.01,2013-10-31 09:04:00,
2013-10-31 05:05:00,63.0,58.1,29.98,SSW,201,1.0,5.0,84,0.00,,,0.00,VWS V14.01,2013-10-31 09:05:00,
2013-10-31 05:06:00,63.0,58.1,29.98,SSE,149,2.0,3.0,84,0.00,,,0.00,VWS V14.01,2013-10-31 09:06:00,
2013-10-31 05:07:00,63.0,58.1,29.98,South,177,2.0,3.0,84,0.00,,,0.00,VWS V14.01,2013-10-31 09:07:00,
2013-10-31 05:08:00,63.0,58.1,29.98,SSW,202,3.0,5.0,84,0.00,,,0.00,VWS V14.01,2013-10-31 09:08:00,
2013-10-31 05:09:00,63.0,58.1,29.98,South,179,1.0,3.0,84,0.00,,,0.00,VWS V14.01,2013-10-31 09:09:00,
2013-10-31 05:10:00,63.0,58.1,29.98,WSW,253,3.0,3.0,84,0.00,,,0.00,VWS V14.01,2013-10-31 09:10:00,
2013-10-31 05:11:00,63.0,58.1,29.98,SSW,194,3.0,4.0,84,0.00,,,0.00,VWS V14.01,2013-10-31 09:11:00,
2013-10-31 05:12:00,63.0,58.1,29.98,SSE,162,2.0,4.0,84,0.00,,,0.00,VWS V14.01,2013-10-31 09:12:00,
2013-10-31 05:13:00,63.0,58.1,29.98,South,172,1.0,2.0,84,0.00,,,0.00,VWS V14.01,2013-10-31 09:13:00,
2013-10-31 05:14:00,63.0,58.1,29.98,SSW,200,3.0,4.0,84,0.00,,,0.00,VWS V14.01,2013-10-31 09:14:00,
2013-10-31 05:15:00,63.0,58.1,29.98,South,188,1.0,3.0,84,0.00,,,0.00,VWS V14.01,2013-10-31 09:15:00,
2013-10-31 05:16:00,63.0,58.1,29.98,South,187,0.0,2.0,84,0.00,,,0.00,VWS V14.01,2013-10-31 09:16:00,
2013-10-31 05:17:00,63.0,58.1,29.98,South,187,1.0,2.0,84,0.00,,,0.00,VWS V14.01,2013-10-31 09:17:00,
2013-10-31 05:18:00,63.0,58.1,29.98,South,186,1.0,2.0,84,0.00,,,0.00,VWS V14.01,2013-10-31 09:18:00,
2013-10-31 05:19:00,63.0,58.1,29.98,South,188,1.0,1.0,84,0.00,,,0.00,VWS V14.01,2013-10-31 09:19:00,
2013-10-31 05:20:00,63.0,58.1,29.98,SW,221,2.0,3.0,84,0.00,,,0.00,VWS V14.01,2013-10-31 09:20:00,
2013-10-31 05:21:00,63.0,58.1,29.98,SE,136,2.0,3.0,84,0.00,,,0.00,VWS V14.01,2013-10-31 09:21:00,
2013-10-31 05:22:00,63.0,58.1,29.98,South,186,1.0,3.0,84,0.00,,,0.00,VWS V14.01,2013-10-31 09:22:00,
2013-10-31 05:23:00,63.0,58.1,29.98,SSE,158,3.0,3.0,84,0.00,,,0.00,VWS V14.01,2013-10-31 09:23:00,
2013-10-31 05:24:00,63.0,58.1,29.98,SSE,163,2.0,4.0,84,0.00,,,0.00,VWS V14.01,2013-10-31 09:24:00,
2013-10-31 05:25:00,63.0,58.1,29.98,SW,236,2.0,4.0,84,0.00,,,0.00,VWS V14.01,2013-10-31 09:25:00,
2013-10-31 05:26:00,63.0,58.1,29.98,SE,132,1.0,3.0,84,0.00,,,0.00,VWS V14.01,2013-10-31 09:26:00,
2013-10-31 05:27:00,63.0,58.1,29.98,SE,139,0.0,3.0,84,0.00,,,0.00,VWS V14.01,2013-10-31 09:27:00,
2013-10-31 05:28:00,63.0,58.1,29.98,SSE,156,1.0,6.0,84,0.00,,,0.00,VWS V14.01,2013-10-31 09:28:00,
2013-10-31 05:29:00,63.0,58.1,29.98,South,186,2.0,5.0,84,0.00,,,0.00,VWS V14.01,2013-10-31 09:29:00,
2013-10-31 05:30:00,63.0,58.1,29.98,SSW,204,4.0,4.0,84,0.00,,,0.00,VWS V14.01,2013-10-31 09:30:00,
2013-10-31 05:31:00,63.0,58.1,29.98,SSW,197,0.0,3.0,84,0.00,,,0.00,VWS V14.01,2013-10-31 09:31:00,
2013-10-31 05:32:00,63.0,58.1,29.98,SSW,197,1.0,3.0,84,0.00,,,0.00,VWS V14.01,2013-10-31 09:32:00,
2013-10-31 05:33:00,63.0,58.1,29.98,SE,145,3.0,4.0,84,0.00,,,0.00,VWS V14.01,2013-10-31 09:33:00,
2013-10-31 05:34:00,63.0,58.1,29.98,SE,142,2.0,5.0,84,0.00,,,0.00,VWS V14.01,2013-10-31 09:34:00,
2013-10-31 05:35:00,63.0,58.1,29.98,East,90,3.0,5.0,84,0.00,,,0.00,VWS V14.01,2013-10-31 09:35:00,
2013-10-31 05:36:00,63.0,58.1,29.98,SE,125,1.0,6.0,84,0.00,,,0.00,VWS V14.01,2013-10-31 09:36:00,
2013-10-31 05:37:00,63.0,58.1,29.98,SW,214,2.0,6.0,84,0.00,,,0.00,VWS V14.01,2013-10-31 09:37:00,
2013-10-31 05:38:00,63.0,58.1,29.98,SSE,153,3.0,3.0,84,0.00,,,0.00,VWS V14.01,2013-10-31 09:38:00,
2013-10-31 05:39:00,63.0,58.1,29.98,SSE,158,3.0,3.0,84,0.00,,,0.00,VWS V14.01,2013-10-31 09:39:00,
2013-10-31 05:40:00,63.0,58.1,29.98,SSW,197,3.0,4.0,84,0.00,,,0.00,VWS V14.01,2013-10-31 09:40:00,
2013-10-31 05:41:00,63.0,58.1,29.98,SSE,167,2.0,3.0,84,0.00,,,0.00,VWS V14.01,2013-10-31 09:41:00,
2013-10-31 05:42:00,63.0,58.1,29.98,SSE,150,5.0,5.0,84,0.00,,,0.00,VWS V14.01,2013-10-31 09:42:00,
2013-10-31 05:43:00,63.1,58.2,29.98,SE,141,2.0,5.0,84,0.00,,,0.00,VWS V14.01,2013-10-31 09:43:00,
2013-10-31 05:44:00,63.0,58.1,29.98,SSE,165,0.0,3.0,84,0.00,,,0.00,VWS V14.01,2013-10-31 09:44:00,
2013-10-31 05:45:00,63.0,58.1,29.98,SSW,198,3.0,5.0,84,0.00,,,0.00,VWS V14.01,2013-10-31 09:45:00,
2013-10-31 05:46:00,63.1,58.2,29.98,SSW,200,0.0,2.0,84,0.00,,,0.00,VWS V14.01,2013-10-31 09:46:00,
2013-10-31 05:47:00,63.0,58.1,29.98,SSE,164,5.0,5.0,84,0.00,,,0.00,VWS V14.01,2013-10-31 09:47:00,
2013-10-31 05:48:00,63.0,58.1,29.98,South,174,2.0,5.0,84,0.00,,,0.00,VWS V14.01,2013-10-31 09:48:00,
2013-10-31 05:49:00,63.0,58.1,29.98,SSE,158,2.0,4.0,84,0.00,,,0.00,VWS V14.01,2013-10-31 09:49:00,
2013-10-31 05:50:00,63.0,58.1,29.98,SSW,209,2.0,3.0,84,0.00,,,0.00,VWS V14.01,2013-10-31 09:50:00,
2013-10-31 05:51:00,63.1,58.2,29.98,SSW,201,1.0,2.0,84,0.00,,,0.00,VWS V14.01,2013-10-31 09:51:00,
2013-10-31 05:52:00,63.0,58.1,29.98,SSE,147,2.0,2.0,84,0.00,,,0.00,VWS V14.01,2013-10-31 09:52:00,
2013-10-31 05:53:00,63.1,58.2,29.98,SSW,204,5.0,5.0,84,0.00,,,0.00,VWS V14.01,2013-10-31 09:53:00,
2013-10-31 05:54:00,63.1,58.2,29.98,SW,214,1.0,5.0,84,0.00,,,0.00,VWS V14.01,2013-10-31 09:54:00,
2013-10-31 05:55:00,63.1,58.2,29.98,South,181,3.0,6.0,84,0.00,,,0.00,VWS V14.01,2013-10-31 09:55:00,
2013-10-31 05:56:00,63.2,58.3,29.98,South,177,3.0,4.0,84,0.00,,,0.00,VWS V14.01,2013-10-31 09:56:00,
2013-10-31 05:57:00,63.2,58.3,29.98,SSE,163,4.0,6.0,84,0.00,,,0.00,VWS V14.01,2013-10-31 09:57:00,
2013-10-31 05:58:00,63.2,58.0,29.98,SW,218,2.0,6.0,83,0.00,,,0.00,VWS V14.01,2013-10-31 09:58:00,
2013-10-31 05:59:00,63.2,58.0,29.98,SSE,159,6.0,6.0,83,0.00,,,0.00,VWS V14.01,2013-10-31 09:59:00,
2013-10-31 06:00:00,63.3,58.1,29.98,SW,214,1.0,4.0,83,0.00,,,0.00,VWS V14.01,2013-10-31 10:00:00,
2013-10-31 06:01:00,63.3,58.1,29.98,SW,214,3.0,5.0,83,0.00,,,0.00,VWS V14.01,2013-10-31 10:01:00,
2013-10-31 06:02:00,63.3,58.1,29.98,SSW,207,4.0,6.0,83,0.00,,,0.00,VWS V14.01,2013-10-31 10:02:00,
2013-10-31 06:03:00,63.4,58.2,29.98,SW,218,3.0,9.0,83,0.00,,,0.00,VWS V14.01,2013-10-31 10:03:00,
2013-10-31 06:04:00,63.4,58.2,29.98,South,188,8.0,10.0,83,0.00,,,0.00,VWS V14.01,2013-10-31 10:04:00,
2013-10-31 06:05:00,63.5,58.2,29.98,SE,135,2.0,8.0,83,0.00,,,0.00,VWS V14.01,2013-10-31 10:05:00,
2013-10-31 06:06:00,63.6,58.0,29.98,SW,214,3.0,4.0,82,0.00,,,0.00,VWS V14.01,2013-10-31 10:06:00,
2013-10-31 06:07:00,63.6,58.0,29.98,SSE,158,6.0,6.0,82,0.00,,,0.00,VWS V14.01,2013-10-31 10:07:00,
2013-10-31 06:08:00,63.6,58.0,29.98,South,169,3.0,6.0,82,0.00,,,0.00,VWS V14.01,2013-10-31 10:08:00,
2013-10-31 06:09:00,63.6,58.0,29.98,SW,222,3.0,6.0,82,0.00,,,0.00,VWS V14.01,2013-10-31 10:09:00,
2013-10-31 06:10:00,63.6,58.0,29.98,SSE,166,2.0,4.0,82,0.00,,,0.00,VWS V14.01,2013-10-31 10:10:00,
2013-10-31 06:11:00,63.7,58.1,29.98,SSW,207,4.0,4.0,82,0.00,,,0.00,VWS V14.01,2013-10-31 10:11:00,
2013-10-31 06:12:00,63.7,58.1,29.98,ESE,120,1.0,4.0,82,0.00,,,0.00,VWS V14.01,2013-10-31 10:12:00,
2013-10-31 06:13:00,63.7,58.1,29.98,SSW,204,5.0,5.0,82,0.00,,,0.00,VWS V14.01,2013-10-31 10:13:00,
2013-10-31 06:14:00,63.7,58.1,29.98,SE,143,3.0,5.0,82,0.00,,,0.00,VWS V14.01,2013-10-31 10:14:00,
2013-10-31 06:15:00,63.7,58.1,29.98,SSW,194,2.0,4.0,82,0.00,,,0.00,VWS V14.01,2013-10-31 10:15:00,
2013-10-31 06:16:00,63.7,58.1,29.98,SSE,155,4.0,4.0,82,0.00,,,0.00,VWS V14.01,2013-10-31 10:16:00,
2013-10-31 06:17:00,63.6,58.0,29.98,SSE,150,1.0,5.0,82,0.00,,,0.00,VWS V14.01,2013-10-31 10:17:00,
2013-10-31 06:18:00,63.6,58.0,29.98,SSE,166,2.0,3.0,82,0.00,,,0.00,VWS V14.01,2013-10-31 10:18:00,
2013-10-31 06:19:00,63.6,58.0,29.98,South,186,3.0,3.0,82,0.00,,,0.00,VWS V14.01,2013-10-31 10:19:00,
2013-10-31 06:20:00,63.6,58.0,29.98,SSE,166,4.0,6.0,82,0.00,,,0.00,VWS V14.01,2013-10-31 10:20:00,
2013-10-31 06:21:00,63.6,58.0,29.98,SSW,209,3.0,3.0,82,0.00,,,0.00,VWS V14.01,2013-10-31 10:21:00,
2013-10-31 06:22:00,63.6,58.0,29.98,SW,222,6.0,6.0,82,0.00,,,0.00,VWS V14.01,2013-10-31 10:22:00,
2013-10-31 06:23:00,63.6,58.0,29.98,SSW,211,4.0,6.0,82,0.00,,,0.00,VWS V14.01,2013-10-31 10:23:00,
2013-10-31 06:24:00,63.6,58.0,29.98,South,187,6.0,8.0,82,0.00,,,0.00,VWS V14.01,2013-10-31 10:24:00,
2013-10-31 06:25:00,63.6,58.0,29.98,WSW,243,3.0,6.0,82,0.00,,,0.00,VWS V14.01,2013-10-31 10:25:00,
2013-10-31 06:26:00,63.6,58.0,29.98,SSW,200,1.0,7.0,82,0.00,,,0.00,VWS V14.01,2013-10-31 10:26:00,
2013-10-31 06:27:00,63.6,58.0,29.98,SSE,159,4.0,7.0,82,0.00,,,0.00,VWS V14.01,2013-10-31 10:27:00,
2013-10-31 06:28:00,63.6,58.0,29.98,SSE,150,2.0,7.0,82,0.00,,,0.00,VWS V14.01,2013-10-31 10:28:00,
2013-10-31 06:29:00,63.6,58.0,29.97,SSE,158,5.0,5.0,82,0.00,,,0.00,VWS V14.01,2013-10-31 10:29:00,
2013-10-31 06:30:00,63.6,58.0,29.97,SE,146,4.0,5.0,82,0.00,,,0.00,VWS V14.01,2013-10-31 10:30:00,
2013-10-31 06:31:00,63.6,58.0,29.98,South,186,2.0,3.0,82,0.00,,,0.00,VWS V14.01,2013-10-31 10:31:00,
2013-10-31 06:32:00,63.6,58.0,29.98,South,186,4.0,4.0,82,0.00,,,0.00,VWS V14.01,2013-10-31 10:32:00,
2013-10-31 06:33:00,63.6,58.0,29.97,SSW,207,4.0,5.0,82,0.00,,,0.00,VWS V14.01,2013-10-31 10:33:00,
2013-10-31 06:34:00,63.6,58.0,29.97,SW,214,2.0,4.0,82,0.00,,,0.00,VWS V14.01,2013-10-31 10:34:00,
2013-10-31 06:35:00,63.6,58.0,29.97,SSE,158,4.0,4.0,82,0.00,,,0.00,VWS V14.01,2013-10-31 10:35:00,
2013-10-31 06:36:00,63.6,58.0,29.98,SE,146,0.0,3.0,82,0.00,,,0.00,VWS V14.01,2013-10-31 10:36:00,
2013-10-31 06:37:00,63.5,57.9,29.98,South,191,1.0,3.0,82,0.00,,,0.00,VWS V14.01,2013-10-31 10:37:00,
2013-10-31 06:38:00,63.5,57.9,29.98,SSE,155,2.0,5.0,82,0.00,,,0.00,VWS V14.01,2013-10-31 10:38:00,
2013-10-31 06:39:00,63.6,58.0,29.98,SW,228,2.0,4.0,82,0.00,,,0.00,VWS V14.01,2013-10-31 10:39:00,
2013-10-31 06:40:00,63.6,58.0,29.97,South,186,5.0,5.0,82,0.00,,,0.00,VWS V14.01,2013-10-31 10:40:00,
2013-10-31 06:41:00,63.5,57.9,29.97,SW,220,1.0,8.0,82,0.00,,,0.00,VWS V14.01,2013-10-31 10:41:00,
2013-10-31 06:42:00,63.5,57.9,29.97,SE,143,3.0,8.0,82,0.00,,,0.00,VWS V14.01,2013-10-31 10:42:00,
2013-10-31 06:43:00,63.6,58.0,29.97,South,186,1.0,5.0,82,0.00,,,0.00,VWS V14.01,2013-10-31 10:43:00,
2013-10-31 06:44:00,63.6,58.0,29.97,WSW,239,1.0,4.0,82,0.00,,,0.00,VWS V14.01,2013-10-31 10:44:00,
2013-10-31 06:45:00,63.6,58.0,29.98,SSW,201,2.0,3.0,82,0.00,,,0.00,VWS V14.01,2013-10-31 10:45:00,
2013-10-31 06:46:00,63.6,58.0,29.98,SSE,158,2.0,8.0,82,0.00,,,0.00,VWS V14.01,2013-10-31 10:46:00,
2013-10-31 06:47:00,63.6,58.0,29.98,SSW,210,4.0,8.0,82,0.00,,,0.00,VWS V14.01,2013-10-31 10:47:00,
2013-10-31 06:48:00,63.6,58.0,29.98,SSE,158,1.0,4.0,82,0.00,,,0.00,VWS V14.01,2013-10-31 10:48:00,
2013-10-31 06:49:00,63.6,58.0,29.98,SW,217,1.0,6.0,82,0.00,,,0.00,VWS V14.01,2013-10-31 10:49:00,
2013-10-31 06:50:00,63.6,58.0,29.98,SSW,211,3.0,3.0,82,0.00,,,0.00,VWS V14.01,2013-10-31 10:50:00,
2013-10-31 06:51:00,63.6,58.0,29.98,SW,221,4.0,6.0,82,0.00,,,0.00,VWS V14.01,2013-10-31 10:51:00,
2013-10-31 06:52:00,63.6,58.0,29.98,SSW,200,4.0,6.0,82,0.00,,,0.00,VWS V14.01,2013-10-31 10:52:00,
2013-10-31 06:53:00,63.6,58.0,29.98,SW,228,3.0,4.0,82,0.00,,,0.00,VWS V14.01,2013-10-31 10:53:00,
2013-10-31 06:54:00,63.6,58.0,29.98,South,173,3.0,3.0,82,0.00,,,0.00,VWS V14.01,2013-10-31 10:54:00,
2013-10-31 06:55:00,63.6,58.0,29.98,SSE,150,4.0,5.0,82,0.00,,,0.00,VWS V14.01,2013-10-31 10:55:00,
2013-10-31 06:56:00,63.6,58.0,29.98,SSW,205,2.0,7.0,82,0.00,,,0.00,VWS V14.01,2013-10-31 10:56:00,
2013-10-31 06:57:00,63.6,58.0,29.98,South,188,1.0,7.0,82,0.00,,,0.00,VWS V14.01,2013-10-31 10:57:00,
2013-10-31 06:58:00,63.6,58.0,29.98,SE,135,2.0,6.0,82,0.00,,,0.00,VWS V14.01,2013-10-31 10:58:00,
2013-10-31 06:59:00,63.6,58.0,29.98,SSW,204,3.0,4.0,82,0.00,,,0.00,VWS V14.01,2013-10-31 10:59:00,
2013-10-31 07:00:00,63.6,58.0,29.98,South,173,5.0,6.0,82,0.00,,,0.00,VWS V14.01,2013-10-31 11:00:00,
2013-10-31 07:01:00,63.6,58.0,29.98,SSW,203,4.0,4.0,82,0.00,,,0.00,VWS V14.01,2013-10-31 11:01:00,
2013-10-31 07:02:00,63.6,58.0,29.98,SW,218,1.0,4.0,82,0.00,,,0.00,VWS V14.01,2013-10-31 11:02:00,
2013-10-31 07:03:00,63.6,58.0,29.97,SSE,166,2.0,3.0,82,0.00,,,0.00,VWS V14.01,2013-10-31 11:03:00,
2013-10-31 07:04:00,63.6,58.0,29.97,SSE,157,2.0,3.0,82,0.00,,,0.00,VWS V14.01,2013-10-31 11:04:00,
2013-10-31 07:05:00,63.6,58.0,29.98,SSE,157,2.0,4.0,82,0.00,,,0.00,VWS V14.01,2013-10-31 11:05:00,
2013-10-31 07:06:00,63.6,58.0,29.98,SSE,153,1.0,2.0,82,0.00,,,0.00,VWS V14.01,2013-10-31 11:06:00,
2013-10-31 07:07:00,63.6,58.0,29.98,SSE,150,3.0,4.0,82,0.00,,,0.00,VWS V14.01,2013-10-31 11:07:00,
2013-10-31 07:08:00,63.6,58.0,29.97,SE,129,1.0,4.0,82,0.00,,,0.00,VWS V14.01,2013-10-31 11:08:00,
2013-10-31 07:09:00,63.6,58.0,29.97,SSW,192,1.0,2.0,82,0.00,,,0.00,VWS V14.01,2013-10-31 11:09:00,
2013-10-31 07:10:00,63.5,57.9,29.98,SE,132,2.0,8.0,82,0.00,,,0.00,VWS V14.01,2013-10-31 11:10:00,
2013-10-31 07:11:00,63.5,57.9,29.97,South,191,6.0,8.0,82,0.00,,,0.00,VWS V14.01,2013-10-31 11:11:00,
2013-10-31 07:12:00,63.5,57.9,29.97,SSE,148,3.0,8.0,82,0.00,,,0.00,VWS V14.01,2013-10-31 11:12:00,
2013-10-31 07:13:00,63.5,57.9,29.97,SW,214,3.0,4.0,82,0.00,,,0.00,VWS V14.01,2013-10-31 11:13:00,
2013-10-31 07:14:00,63.5,57.9,29.97,SSE,161,3.0,4.0,82,0.00,,,0.00,VWS V14.01,2013-10-31 11:14:00,
2013-10-31 07:15:00,63.5,57.9,29.97,SSW,207,3.0,3.0,82,0.00,,,0.00,VWS V14.01,2013-10-31 11:15:00,
2013-10-31 07:16:00,63.5,57.9,29.97,SE,134,3.0,5.0,82,0.00,,,0.00,VWS V14.01,2013-10-31 11:16:00,
2013-10-31 07:17:00,63.5,57.9,29.97,SSW,207,4.0,5.0,82,0.00,,,0.00,VWS V14.01,2013-10-31 11:17:00,
2013-10-31 07:18:00,63.5,57.9,29.97,SSW,205,2.0,4.0,82,0.00,,,0.00,VWS V14.01,2013-10-31 11:18:00,
2013-10-31 07:19:00,63.6,58.0,29.97,South,170,5.0,6.0,82,0.00,,,0.00,VWS V14.01,2013-10-31 11:19:00,
2013-10-31 07:20:00,63.6,58.0,29.97,SSW,205,3.0,5.0,82,0.00,,,0.00,VWS V14.01,2013-10-31 11:20:00,
2013-10-31 07:21:00,63.6,58.0,29.97,SW,218,3.0,3.0,82,0.00,,,0.00,VWS V14.01,2013-10-31 11:21:00,
2013-10-31 07:22:00,63.6,58.0,29.97,South,175,4.0,7.0,82,0.00,,,0.00,VWS V14.01,2013-10-31 11:22:00,
2013-10-31 07:23:00,63.6,58.0,29.97,SE,145,3.0,4.0,82,0.00,,,0.00,VWS V14.01,2013-10-31 11:23:00,
2013-10-31 07:24:00,63.6,58.0,29.97,SE,142,2.0,4.0,82,0.00,,,0.00,VWS V14.01,2013-10-31 11:24:00,
2013-10-31 07:25:00,63.6,58.0,29.97,South,172,3.0,4.0,82,0.00,,,0.00,VWS V14.01,2013-10-31 11:25:00,
2013-10-31 07:26:00,63.5,57.9,29.97,SSE,163,3.0,3.0,82,0.00,,,0.00,VWS V14.01,2013-10-31 11:26:00,
2013-10-31 07:27:00,63.5,57.9,29.97,SSE,166,3.0,3.0,82,0.00,,,0.00,VWS V14.01,2013-10-31 11:27:00,
2013-10-31 07:28:00,63.5,57.9,29.97,South,187,1.0,4.0,82,0.00,,,0.00,VWS V14.01,2013-10-31 11:28:00,
2013-10-31 07:29:00,63.5,57.9,29.97,SSE,148,2.0,6.0,82,0.00,,,0.00,VWS V14.01,2013-10-31 11:29:00,
2013-10-31 07:30:00,63.5,57.9,29.97,South,184,1.0,4.0,82,0.00,,,0.00,VWS V14.01,2013-10-31 11:30:00,
2013-10-31 07:31:00,63.5,57.9,29.96,SSW,211,3.0,3.0,82,0.00,,,0.00,VWS V14.01,2013-10-31 11:31:00,
2013-10-31 07:32:00,63.5,57.9,29.96,WSW,242,2.0,3.0,82,0.00,,,0.00,VWS V14.01,2013-10-31 11:32:00,
2013-10-31 07:33:00,63.4,57.8,29.96,SSE,150,2.0,2.0,82,0.00,,,0.00,VWS V14.01,2013-10-31 11:33:00,
2013-10-31 07:34:00,63.4,57.8,29.96,SSW,200,0.0,3.0,82,0.00,,,0.00,VWS V14.01,2013-10-31 11:34:00,
2013-10-31 07:35:00,63.4,57.8,29.96,SW,231,2.0,5.0,82,0.00,,,0.00,VWS V14.01,2013-10-31 11:35:00,
2013-10-31 07:36:00,63.4,57.8,29.96,South,177,4.0,6.0,82,0.00,,,0.00,VWS V14.01,2013-10-31 11:36:00,
2013-10-31 07:37:00,63.4,57.8,29.96,East,101,3.0,6.0,82,0.00,,,0.00,VWS V14.01,2013-10-31 11:37:00,
2013-10-31 07:38:00,63.4,57.8,29.96,South,187,1.0,6.0,82,0.00,,,0.00,VWS V14.01,2013-10-31 11:38:00,
2013-10-31 07:39:00,63.4,57.8,29.96,SE,136,4.0,4.0,82,0.00,,,0.00,VWS V14.01,2013-10-31 11:39:00,
2013-10-31 07:40:00,63.4,57.8,29.96,SSW,203,4.0,5.0,82,0.00,,,0.00,VWS V14.01,2013-10-31 11:40:00,
2013-10-31 07:41:00,63.4,57.8,29.96,SSW,200,2.0,3.0,82,0.00,,,0.00,VWS V14.01,2013-10-31 11:41:00,
2013-10-31 07:42:00,63.4,57.8,29.96,SSE,160,1.0,3.0,82,0.00,,,0.00,VWS V14.01,2013-10-31 11:42:00,
2013-10-31 07:43:00,63.4,57.8,29.96,SSE,158,2.0,5.0,82,0.00,,,0.00,VWS V14.01,2013-10-31 11:43:00,
2013-10-31 07:44:00,63.4,57.8,29.96,South,174,3.0,6.0,82,0.00,,,0.00,VWS V14.01,2013-10-31 11:44:00,
2013-10-31 07:45:00,63.4,57.8,29.96,ESE,103,0.0,5.0,82,0.00,,,0.00,VWS V14.01,2013-10-31 11:45:00,
2013-10-31 07:46:00,63.4,57.8,29.95,ESE,123,3.0,6.0,82,0.00,,,0.00,VWS V14.01,2013-10-31 11:46:00,
2013-10-31 07:47:00,63.4,57.8,29.95,South,176,2.0,6.0,82,0.00,,,0.00,VWS V14.01,2013-10-31 11:47:00,
2013-10-31 07:48:00,63.4,57.8,29.95,SSE,147,2.0,4.0,82,0.00,,,0.00,VWS V14.01,2013-10-31 11:48:00,
2013-10-31 07:49:00,63.4,57.8,29.95,ESE,122,2.0,3.0,82,0.00,,,0.00,VWS V14.01,2013-10-31 11:49:00,
2013-10-31 07:50:00,63.4,57.8,29.95,SSE,151,3.0,5.0,82,0.00,,,0.00,VWS V14.01,2013-10-31 11:50:00,
2013-10-31 07:51:00,63.4,57.8,29.95,SSE,168,2.0,2.0,82,0.00,,,0.00,VWS V14.01,2013-10-31 11:51:00,
2013-10-31 07:52:00,63.4,57.8,29.95,SW,236,3.0,3.0,82,0.00,,,0.00,VWS V14.01,2013-10-31 11:52:00,
2013-10-31 07:53:00,63.4,57.8,29.95,SSE,162,2.0,4.0,82,0.00,,,0.00,VWS V14.01,2013-10-31 11:53:00,
2013-10-31 07:54:00,63.4,57.8,29.95,SE,138,6.0,6.0,82,0.00,,,0.00,VWS V14.01,2013-10-31 11:54:00,
2013-10-31 07:55:00,63.4,57.8,29.95,SSE,150,2.0,6.0,82,0.00,,,0.00,VWS V14.01,2013-10-31 11:55:00,
2013-10-31 07:56:00,63.4,57.8,29.95,SSE,152,2.0,2.0,82,0.00,,,0.00,VWS V14.01,2013-10-31 11:56:00,
2013-10-31 07:57:00,63.4,57.8,29.95,SSE,153,2.0,3.0,82,0.00,,,0.00,VWS V14.01,2013-10-31 11:57:00,
2013-10-31 07:58:00,63.4,57.8,29.95,SE,136,3.0,5.0,82,0.00,,,0.00,VWS V14.01,2013-10-31 11:58:00,
2013-10-31 07:59:00,63.4,57.8,29.95,ESE,110,3.0,5.0,82,0.00,,,0.00,VWS V14.01,2013-10-31 11:59:00,
2013-10-31 08:00:00,63.4,57.8,29.95,SSW,195,2.0,4.0,82,0.00,,,0.00,VWS V14.01,2013-10-31 12:00:00,
2013-10-31 08:01:00,63.4,57.8,29.95,SE,136,4.0,4.0,82,0.00,,,0.00,VWS V14.01,2013-10-31 12:01:00,
2013-10-31 08:02:00,63.4,57.8,29.95,South,187,2.0,4.0,82,0.00,,,0.00,VWS V14.01,2013-10-31 12:02:00,
2013-10-31 08:03:00,63.3,57.7,29.95,SW,229,2.0,5.0,82,0.00,,,0.00,VWS V14.01,2013-10-31 12:03:00,
2013-10-31 08:04:00,63.3,57.7,29.94,SSE,156,0.0,3.0,82,0.00,,,0.00,VWS V14.01,2013-10-31 12:04:00,
2013-10-31 08:05:00,63.3,57.7,29.95,South,183,3.0,5.0,82,0.00,,,0.00,VWS V14.01,2013-10-31 12:05:00,
2013-10-31 08:06:00,63.3,57.7,29.94,South,169,1.0,1.0,82,0.00,,,0.00,VWS V14.01,2013-10-31 12:06:00,
2013-10-31 08:07:00,63.4,57.8,29.94,South,191,1.0,3.0,82,0.00,,,0.00,VWS V14.01,2013-10-31 12:07:00,
2013-10-31 08:08:00,63.3,57.7,29.94,South,177,1.0,3.0,82,0.00,,,0.00,VWS V14.01,2013-10-31 12:08:00,
2013-10-31 08:09:00,63.3,57.7,29.94,SSE,147,2.0,3.0,82,0.00,,,0.00,VWS V14.01,2013-10-31 12:09:00,
2013-10-31 08:10:00,63.3,57.7,29.94,SSW,193,4.0,4.0,82,0.00,,,0.00,VWS V14.01,2013-10-31 12:10:00,
2013-10-31 08:11:00,63.3,57.7,29.94,SSW,198,5.0,8.0,82,0.00,,,0.00,VWS V14.01,2013-10-31 12:11:00,
2013-10-31 08:12:00,63.3,57.7,29.94,South,178,6.0,8.0,82,0.00,,,0.00,VWS V14.01,2013-10-31 12:12:00,
2013-10-31 08:13:00,63.3,57.7,29.94,SSW,198,3.0,6.0,82,0.00,,,0.00,VWS V14.01,2013-10-31 12:13:00,
2013-10-31 08:14:00,63.4,57.8,29.94,South,173,3.0,4.0,82,0.00,,,0.00,VWS V14.01,2013-10-31 12:14:00,
2013-10-31 08:15:00,63.4,57.8,29.94,ESE,106,4.0,6.0,82,0.00,,,0.00,VWS V14.01,2013-10-31 12:15:00,
2013-10-31 08:16:00,63.4,57.8,29.94,SSE,165,2.0,2.0,82,0.00,,,0.00,VWS V14.01,2013-10-31 12:16:00,
2013-10-31 08:17:00,63.4,57.8,29.94,SE,132,1.0,3.0,82,0.00,,,0.00,VWS V14.01,2013-10-31 12:17:00,
2013-10-31 08:18:00,63.4,57.8,29.94,SSW,203,5.0,7.0,82,0.00,,,0.00,VWS V14.01,2013-10-31 12:18:00,
2013-10-31 08:19:00,63.4,57.8,29.94,WSW,248,2.0,5.0,82,0.00,,,0.00,VWS V14.01,2013-10-31 12:19:00,
2013-10-31 08:20:00,63.4,57.8,29.94,ESE,121,2.0,2.0,82,0.00,,,0.00,VWS V14.01,2013-10-31 12:20:00,
2013-10-31 08:21:00,63.4,57.8,29.93,SSW,195,1.0,4.0,82,0.00,,,0.00,VWS V14.01,2013-10-31 12:21:00,
2013-10-31 08:22:00,63.4,57.8,29.93,SSE,164,1.0,4.0,82,0.00,,,0.00,VWS V14.01,2013-10-31 12:22:00,
2013-10-31 08:23:00,63.4,57.8,29.93,South,181,1.0,3.0,82,0.00,,,0.00,VWS V14.01,2013-10-31 12:23:00,
2013-10-31 08:24:00,63.4,57.8,29.93,SE,131,1.0,2.0,82,0.00,,,0.00,VWS V14.01,2013-10-31 12:24:00,
2013-10-31 08:25:00,63.4,57.5,29.93,SSE,153,2.0,10.0,81,0.00,,,0.00,VWS V14.01,2013-10-31 12:25:00,
2013-10-31 08:26:00,63.4,57.5,29.93,South,179,4.0,5.0,81,0.00,,,0.00,VWS V14.01,2013-10-31 12:26:00,
2013-10-31 08:27:00,63.4,57.5,29.93,SSE,148,3.0,5.0,81,0.00,,,0.00,VWS V14.01,2013-10-31 12:27:00,
2013-10-31 08:28:00,63.5,57.6,29.93,SSE,153,0.0,6.0,81,0.00,,,0.00,VWS V14.01,2013-10-31 12:28:00,
2013-10-31 08:29:00,63.5,57.6,29.93,SSE,155,2.0,3.0,81,0.00,,,0.00,VWS V14.01,2013-10-31 12:29:00,
2013-10-31 08:30:00,63.5,57.6,29.93,South,191,3.0,3.0,81,0.00,,,0.00,VWS V14.01,2013-10-31 12:30:00,
2013-10-31 08:31:00,63.5,57.6,29.93,South,170,1.0,4.0,81,0.00,,,0.00,VWS V14.01,2013-10-31 12:31:00,
2013-10-31 08:32:00,63.5,57.6,29.93,South,186,3.0,4.0,81,0.00,,,0.00,VWS V14.01,2013-10-31 12:32:00,
2013-10-31 08:33:00,63.5,57.6,29.93,SE,146,6.0,6.0,81,0.00,,,0.00,VWS V14.01,2013-10-31 12:33:00,
2013-10-31 08:34:00,63.6,57.7,29.93,WSW,237,1.0,6.0,81,0.00,,,0.00,VWS V14.01,2013-10-31 12:34:00,
2013-10-31 08:35:00,63.5,57.6,29.93,SSE,167,4.0,6.0,81,0.00,,,0.00,VWS V14.01,2013-10-31 12:35:00,
2013-10-31 08:36:00,63.6,57.7,29.92,SSE,162,2.0,3.0,81,0.00,,,0.00,VWS V14.01,2013-10-31 12:36:00,
2013-10-31 08:37:00,63.6,57.7,29.92,SE,140,1.0,3.0,81,0.00,,,0.00,VWS V14.01,2013-10-31 12:37:00,
2013-10-31 08:38:00,63.6,57.7,29.92,SSW,198,4.0,4.0,81,0.00,,,0.00,VWS V14.01,2013-10-31 12:38:00,
2013-10-31 08:39:00,63.6,57.7,29.92,South,186,3.0,6.0,81,0.00,,,0.00,VWS V14.01,2013-10-31 12:39:00,
2013-10-31 08:40:00,63.6,57.7,29.93,South,173,4.0,4.0,81,0.00,,,0.00,VWS V14.01,2013-10-31 12:40:00,
2013-10-31 08:41:00,63.6,57.7,29.92,SSE,165,2.0,7.0,81,0.00,,,0.00,VWS V14.01,2013-10-31 12:41:00,
2013-10-31 08:42:00,63.6,57.7,29.92,SE,146,3.0,7.0,81,0.00,,,0.00,VWS V14.01,2013-10-31 12:42:00,
2013-10-31 08:43:00,63.6,57.7,29.92,South,181,4.0,7.0,81,0.00,,,0.00,VWS V14.01,2013-10-31 12:43:00,
2013-10-31 08:44:00,63.6,57.7,29.92,ESE,110,3.0,4.0,81,0.00,,,0.00,VWS V14.01,2013-10-31 12:44:00,
2013-10-31 08:45:00,63.7,57.8,29.92,SE,142,3.0,4.0,81,0.00,,,0.00,VWS V14.01,2013-10-31 12:45:00,
2013-10-31 08:46:00,63.7,57.8,29.92,SSW,207,2.0,2.0,81,0.00,,,0.00,VWS V14.01,2013-10-31 12:46:00,
2013-10-31 08:47:00,63.7,57.8,29.92,South,191,2.0,4.0,81,0.00,,,0.00,VWS V14.01,2013-10-31 12:47:00,
2013-10-31 08:48:00,63.7,57.8,29.92,SSE,153,1.0,3.0,81,0.00,,,0.00,VWS V14.01,2013-10-31 12:48:00,
2013-10-31 08:49:00,63.7,57.4,29.92,SE,144,3.0,5.0,80,0.00,,,0.00,VWS V14.01,2013-10-31 12:49:00,
2013-10-31 08:50:00,63.7,57.4,29.92,SE,143,2.0,3.0,80,0.00,,,0.00,VWS V14.01,2013-10-31 12:50:00,
2013-10-31 08:51:00,63.8,57.5,29.92,SSW,197,3.0,3.0,80,0.00,,,0.00,VWS V14.01,2013-10-31 12:51:00,
2013-10-31 08:52:00,63.8,57.5,29.92,SSE,165,4.0,6.0,80,0.00,,,0.00,VWS V14.01,2013-10-31 12:52:00,
2013-10-31 08:53:00,63.8,57.5,29.92,South,170,1.0,4.0,80,0.00,,,0.00,VWS V14.01,2013-10-31 12:53:00,
2013-10-31 08:54:00,63.8,57.5,29.92,South,184,3.0,3.0,80,0.00,,,0.00,VWS V14.01,2013-10-31 12:54:00,
2013-10-31 08:55:00,63.8,57.5,29.92,South,186,3.0,5.0,80,0.00,,,0.00,VWS V14.01,2013-10-31 12:55:00,
2013-10-31 08:56:00,63.8,57.9,29.92,SSE,151,2.0,2.0,81,0.00,,,0.00,VWS V14.01,2013-10-31 12:56:00,
2013-10-31 08:57:00,63.8,57.9,29.92,SE,143,3.0,4.0,81,0.00,,,0.00,VWS V14.01,2013-10-31 12:57:00,
2013-10-31 08:58:00,63.8,57.5,29.92,SE,134,2.0,5.0,80,0.00,,,0.00,VWS V14.01,2013-10-31 12:58:00,
2013-10-31 08:59:00,63.9,57.6,29.92,South,184,2.0,4.0,80,0.00,,,0.00,VWS V14.01,2013-10-31 12:59:00,
2013-10-31 09:00:00,63.9,57.6,29.92,South,169,1.0,7.0,80,0.00,,,0.00,VWS V14.01,2013-10-31 13:00:00,
2013-10-31 09:01:00,63.9,57.6,29.92,South,188,5.0,6.0,80,0.00,,,0.00,VWS V14.01,2013-10-31 13:01:00,
2013-10-31 09:02:00,63.9,57.6,29.92,South,181,1.0,6.0,80,0.00,,,0.00,VWS V14.01,2013-10-31 13:02:00,
2013-10-31 09:03:00,63.9,57.6,29.92,SSE,163,3.0,7.0,80,0.00,,,0.00,VWS V14.01,2013-10-31 13:03:00,
2013-10-31 09:04:00,64.0,57.7,29.92,SSW,192,2.0,5.0,80,0.00,,,0.00,VWS V14.01,2013-10-31 13:04:00,
2013-10-31 09:05:00,64.0,57.7,29.92,SSE,149,8.0,8.0,80,0.00,,,0.00,VWS V14.01,2013-10-31 13:05:00,
2013-10-31 09:06:00,64.1,57.5,29.91,SSE,150,2.0,7.0,79,0.00,,,0.00,VWS V14.01,2013-10-31 13:06:00,
2013-10-31 09:07:00,64.1,57.5,29.91,SSE,163,3.0,7.0,79,0.00,,,0.00,VWS V14.01,2013-10-31 13:07:00,
2013-10-31 09:08:00,64.1,57.5,29.91,SSW,211,7.0,8.0,79,0.00,,,0.00,VWS V14.01,2013-10-31 13:08:00,
2013-10-31 09:09:00,64.2,57.6,29.91,SSW,193,2.0,8.0,79,0.00,,,0.00,VWS V14.01,2013-10-31 13:09:00,
2013-10-31 09:10:00,64.2,57.6,29.91,South,188,8.0,8.0,79,0.00,,,0.00,VWS V14.01,2013-10-31 13:10:00,
2013-10-31 09:11:00,64.3,57.7,29.91,SSW,201,2.0,3.0,79,0.00,,,0.00,VWS V14.01,2013-10-31 13:11:00,
2013-10-31 09:12:00,64.3,57.7,29.91,SW,228,2.0,4.0,79,0.00,,,0.00,VWS V14.01,2013-10-31 13:12:00,
2013-10-31 09:13:00,64.3,57.7,29.91,SSE,150,4.0,6.0,79,0.00,,,0.00,VWS V14.01,2013-10-31 13:13:00,
2013-10-31 09:14:00,64.3,57.7,29.91,South,179,4.0,6.0,79,0.00,,,0.00,VWS V14.01,2013-10-31 13:14:00,
2013-10-31 09:15:00,64.4,57.8,29.91,SSE,159,3.0,10.0,79,0.00,,,0.00,VWS V14.01,2013-10-31 13:15:00,
2013-10-31 09:16:00,64.4,57.4,29.91,SW,214,6.0,6.0,78,0.00,,,0.00,VWS V14.01,2013-10-31 13:16:00,
2013-10-31 09:17:00,64.5,57.5,29.91,SW,214,3.0,6.0,78,0.00,,,0.00,VWS V14.01,2013-10-31 13:17:00,
2013-10-31 09:18:00,64.5,57.5,29.91,SSE,160,4.0,9.0,78,0.00,,,0.00,VWS V14.01,2013-10-31 13:18:00,
2013-10-31 09:19:00,64.6,57.6,29.91,SSE,153,3.0,5.0,78,0.00,,,0.00,VWS V14.01,2013-10-31 13:19:00,
2013-10-31 09:20:00,64.6,57.6,29.91,SSE,163,3.0,7.0,78,0.00,,,0.00,VWS V14.01,2013-10-31 13:20:00,
2013-10-31 09:21:00,64.6,57.6,29.91,SE,142,2.0,4.0,78,0.00,,,0.00,VWS V14.01,2013-10-31 13:21:00,
2013-10-31 09:22:00,64.6,57.6,29.91,SSW,195,12.0,12.0,78,0.00,,,0.00,VWS V14.01,2013-10-31 13:22:00,
2013-10-31 09:23:00,64.7,57.7,29.91,SE,136,7.0,12.0,78,0.00,,,0.00,VWS V14.01,2013-10-31 13:23:00,
2013-10-31 09:24:00,64.7,57.7,29.91,South,179,4.0,7.0,78,0.00,,,0.00,VWS V14.01,2013-10-31 13:24:00,
2013-10-31 09:25:00,64.7,57.7,29.92,SSE,149,1.0,4.0,78,0.00,,,0.00,VWS V14.01,2013-10-31 13:25:00,
2013-10-31 09:26:00,64.7,57.7,29.92,South,187,2.0,4.0,78,0.00,,,0.00,VWS V14.01,2013-10-31 13:26:00,
2013-10-31 09:27:00,64.7,57.7,29.92,South,176,2.0,4.0,78,0.00,,,0.00,VWS V14.01,2013-10-31 13:27:00,
2013-10-31 09:28:00,64.7,57.7,29.92,SSW,210,3.0,5.0,78,0.00,,,0.00,VWS V14.01,2013-10-31 13:28:00,
2013-10-31 09:29:00,64.7,57.7,29.92,SSE,150,3.0,8.0,78,0.00,,,0.00,VWS V14.01,2013-10-31 13:29:00,
2013-10-31 09:30:00,64.7,57.7,29.92,SSE,148,4.0,5.0,78,0.00,,,0.00,VWS V14.01,2013-10-31 13:30:00,
2013-10-31 09:31:00,64.8,57.8,29.92,SSE,155,2.0,4.0,78,0.00,,,0.00,VWS V14.01,2013-10-31 13:31:00,
2013-10-31 09:32:00,64.8,57.8,29.92,South,181,3.0,8.0,78,0.00,,,0.00,VWS V14.01,2013-10-31 13:32:00,
2013-10-31 09:33:00,64.8,57.8,29.92,SSW,211,3.0,6.0,78,0.00,,,0.00,VWS V14.01,2013-10-31 13:33:00,
2013-10-31 09:34:00,64.8,57.8,29.92,SE,124,4.0,5.0,78,0.00,,,0.00,VWS V14.01,2013-10-31 13:34:00,
2013-10-31 09:35:00,64.8,57.8,29.92,SSW,205,2.0,5.0,78,0.00,,,0.00,VWS V14.01,2013-10-31 13:35:00,
2013-10-31 09:36:00,64.9,57.5,29.92,South,174,7.0,9.0,77,0.00,,,0.00,VWS V14.01,2013-10-31 13:36:00,
2013-10-31 09:37:00,64.9,57.5,29.92,South,179,3.0,9.0,77,0.00,,,0.00,VWS V14.01,2013-10-31 13:37:00,
2013-10-31 09:38:00,64.9,57.5,29.92,South,172,1.0,4.0,77,0.00,,,0.00,VWS V14.01,2013-10-31 13:38:00,
2013-10-31 09:39:00,65.0,57.6,29.92,SW,231,8.0,8.0,77,0.00,,,0.00,VWS V14.01,2013-10-31 13:39:00,
2013-10-31 09:40:00,65.0,57.6,29.92,SSW,198,7.0,8.0,77,0.00,,,0.00,VWS V14.01,2013-10-31 13:40:00,
2013-10-31 09:41:00,65.1,57.7,29.92,South,188,6.0,6.0,77,0.00,,,0.00,VWS V14.01,2013-10-31 13:41:00,
2013-10-31 09:42:00,65.1,57.7,29.92,SSW,203,5.0,6.0,77,0.00,,,0.00,VWS V14.01,2013-10-31 13:42:00,
2013-10-31 09:43:00,65.1,57.7,29.92,SSE,166,2.0,5.0,77,0.00,,,0.00,VWS V14.01,2013-10-31 13:43:00,
2013-10-31 09:44:00,65.1,57.7,29.92,SSW,201,4.0,7.0,77,0.00,,,0.00,VWS V14.01,2013-10-31 13:44:00,
2013-10-31 09:45:00,65.1,57.7,29.91,SSW,207,4.0,10.0,77,0.00,,,0.00,VWS V14.01,2013-10-31 13:45:00,
2013-10-31 09:46:00,65.2,57.8,29.92,SSE,167,4.0,5.0,77,0.00,,,0.00,VWS V14.01,2013-10-31 13:46:00,
2013-10-31 09:47:00,65.2,57.5,29.92,SSW,204,4.0,9.0,76,0.00,,,0.00,VWS V14.01,2013-10-31 13:47:00,
2013-10-31 09:48:00,65.2,57.8,29.92,SE,136,2.0,8.0,77,0.00,,,0.00,VWS V14.01,2013-10-31 13:48:00,
2013-10-31 09:49:00,65.2,57.8,29.91,South,188,3.0,6.0,77,0.00,,,0.00,VWS V14.01,2013-10-31 13:49:00,
2013-10-31 09:50:00,65.2,57.8,29.91,South,179,0.0,5.0,77,0.00,,,0.00,VWS V14.01,2013-10-31 13:50:00,
2013-10-31 09:51:00,65.1,57.7,29.91,SSE,163,3.0,3.0,77,0.00,,,0.00,VWS V14.01,2013-10-31 13:51:00,
2013-10-31 09:52:00,65.1,57.7,29.91,SSW,201,3.0,5.0,77,0.00,,,0.00,VWS V14.01,2013-10-31 13:52:00,
2013-10-31 09:53:00,65.1,57.7,29.91,East,97,2.0,11.0,77,0.00,,,0.00,VWS V14.01,2013-10-31 13:53:00,
2013-10-31 09:54:00,65.1,57.7,29.91,SW,236,8.0,8.0,77,0.00,,,0.00,VWS V14.01,2013-10-31 13:54:00,
2013-10-31 09:55:00,65.1,57.7,29.91,SSW,211,6.0,8.0,77,0.00,,,0.00,VWS V14.01,2013-10-31 13:55:00,
2013-10-31 09:56:00,65.1,57.4,29.91,SSE,147,5.0,10.0,76,0.00,,,0.00,VWS V14.01,2013-10-31 13:56:00,
2013-10-31 09:57:00,65.1,57.4,29.91,East,101,2.0,10.0,76,0.00,,,0.00,VWS V14.01,2013-10-31 13:57:00,
2013-10-31 09:58:00,65.1,57.7,29.91,South,177,3.0,5.0,77,0.00,,,0.00,VWS V14.01,2013-10-31 13:58:00,
2013-10-31 09:59:00,65.1,57.7,29.91,SSE,166,3.0,5.0,77,0.00,,,0.00,VWS V14.01,2013-10-31 13:59:00,
2013-10-31 10:00:00,65.1,57.7,29.91,South,172,6.0,6.0,77,0.00,,,0.00,VWS V14.01,2013-10-31 14:00:00,
2013-10-31 10:01:00,65.1,57.7,29.91,SSE,160,4.0,9.0,77,0.00,,,0.00,VWS V14.01,2013-10-31 14:01:00,
2013-10-31 10:02:00,65.1,57.4,29.91,SW,214,11.0,11.0,76,0.00,,,0.00,VWS V14.01,2013-10-31 14:02:00,
2013-10-31 10:03:00,65.1,57.4,29.91,South,184,8.0,11.0,76,0.00,,,0.00,VWS V14.01,2013-10-31 14:03:00,
2013-10-31 10:04:00,65.2,57.8,29.91,SSE,151,3.0,9.0,77,0.00,,,0.00,VWS V14.01,2013-10-31 14:04:00,
2013-10-31 10:05:00,65.2,57.8,29.91,SSE,148,2.0,5.0,77,0.00,,,0.00,VWS V14.01,2013-10-31 14:05:00,
2013-10-31 10:06:00,65.2,57.8,29.91,South,187,3.0,7.0,77,0.00,,,0.00,VWS V14.01,2013-10-31 14:06:00,
2013-10-31 10:07:00,65.2,57.8,29.91,West,259,6.0,8.0,77,0.00,,,0.00,VWS V14.01,2013-10-31 14:07:00,
2013-10-31 10:08:00,65.2,57.5,29.91,SSW,201,4.0,9.0,76,0.00,,,0.00,VWS V14.01,2013-10-31 14:08:00,
2013-10-31 10:09:00,65.2,57.5,29.91,SE,139,6.0,7.0,76,0.00,,,0.00,VWS V14.01,2013-10-31 14:09:00,
2013-10-31 10:10:00,65.2,57.8,29.91,SW,215,3.0,6.0,77,0.00,,,0.00,VWS V14.01,2013-10-31 14:10:00,
2013-10-31 10:11:00,65.2,57.8,29.91,SSE,160,3.0,6.0,77,0.00,,,0.00,VWS V14.01,2013-10-31 14:11:00,
2013-10-31 10:12:00,65.2,57.8,29.91,SSW,207,5.0,6.0,77,0.00,,,0.00,VWS V14.01,2013-10-31 14:12:00,
2013-10-31 10:13:00,65.2,57.8,29.91,SSW,195,4.0,5.0,77,0.00,,,0.00,VWS V14.01,2013-10-31 14:13:00,
2013-10-31 10:14:00,65.2,57.8,29.91,SSE,167,5.0,7.0,77,0.00,,,0.00,VWS V14.01,2013-10-31 14:14:00,
2013-10-31 10:15:00,65.2,57.8,29.91,South,184,5.0,10.0,77,0.00,,,0.00,VWS V14.01,2013-10-31 14:15:00,
2013-10-31 10:16:00,65.2,57.8,29.91,SSE,150,2.0,3.0,77,0.00,,,0.00,VWS V14.01,2013-10-31 14:16:00,
2013-10-31 10:17:00,65.2,58.2,29.91,SW,214,3.0,4.0,78,0.00,,,0.00,VWS V14.01,2013-10-31 14:17:00,
2013-10-31 10:18:00,65.2,58.2,29.90,SW,226,8.0,8.0,78,0.00,,,0.00,VWS V14.01,2013-10-31 14:18:00,
2013-10-31 10:19:00,65.1,58.1,29.90,SE,132,2.0,8.0,78,0.00,,,0.00,VWS V14.01,2013-10-31 14:19:00,
2013-10-31 10:20:00,65.1,58.1,29.90,SSW,194,5.0,12.0,78,0.00,,,0.00,VWS V14.01,2013-10-31 14:20:00,
2013-10-31 10:21:00,65.1,57.7,29.90,SE,132,4.0,6.0,77,0.00,,,0.00,VWS V14.01,2013-10-31 14:21:00,
2013-10-31 10:22:00,65.1,57.7,29.90,South,177,7.0,7.0,77,0.00,,,0.00,VWS V14.01,2013-10-31 14:22:00,
2013-10-31 10:23:00,65.1,57.7,29.90,SW,228,3.0,7.0,77,0.00,,,0.00,VWS V14.01,2013-10-31 14:23:00,
2013-10-31 10:24:00,65.1,58.1,29.90,SSW,210,6.0,11.0,78,0.00,,,0.00,VWS V14.01,2013-10-31 14:24:00,
2013-10-31 10:25:00,65.1,57.7,29.90,SE,133,6.0,6.0,77,0.00,,,0.00,VWS V14.01,2013-10-31 14:25:00,
2013-10-31 10:26:00,65.1,58.1,29.90,South,186,5.0,6.0,78,0.00,,,0.00,VWS V14.01,2013-10-31 14:26:00,
2013-10-31 10:27:00,65.1,57.7,29.90,South,174,8.0,8.0,77,0.00,,,0.00,VWS V14.01,2013-10-31 14:27:00,
2013-10-31 10:28:00,65.1,57.7,29.90,South,179,6.0,9.0,77,0.00,,,0.00,VWS V14.01,2013-10-31 14:28:00,
2013-10-31 10:29:00,65.1,57.7,29.90,SSE,159,2.0,8.0,77,0.00,,,0.00,VWS V14.01,2013-10-31 14:29:00,
2013-10-31 10:30:00,65.1,58.1,29.90,WSW,239,3.0,6.0,78,0.00,,,0.00,VWS V14.01,2013-10-31 14:30:00,
2013-10-31 10:31:00,65.1,58.1,29.90,SSE,160,6.0,6.0,78,0.00,,,0.00,VWS V14.01,2013-10-31 14:31:00,
2013-10-31 10:32:00,65.1,58.1,29.90,SSW,198,4.0,10.0,78,0.00,,,0.00,VWS V14.01,2013-10-31 14:32:00,
2013-10-31 10:33:00,65.1,58.1,29.90,SE,138,2.0,5.0,78,0.00,,,0.00,VWS V14.01,2013-10-31 14:33:00,
2013-10-31 10:34:00,65.1,57.7,29.90,South,181,5.0,9.0,77,0.00,,,0.00,VWS V14.01,2013-10-31 14:34:00,
2013-10-31 10:35:00,65.1,57.7,29.90,SSE,162,4.0,6.0,77,0.00,,,0.00,VWS V14.01,2013-10-31 14:35:00,
2013-10-31 10:36:00,65.1,58.1,29.90,SSE,166,2.0,5.0,78,0.00,,,0.00,VWS V14.01,2013-10-31 14:36:00,
2013-10-31 10:37:00,65.1,58.1,29.90,SSW,204,7.0,9.0,78,0.00,,,0.00,VWS V14.01,2013-10-31 14:37:00,
2013-10-31 10:38:00,65.1,57.7,29.90,ENE,63,4.0,9.0,77,0.00,,,0.00,VWS V14.01,2013-10-31 14:38:00,
2013-10-31 10:39:00,65.1,57.7,29.90,South,184,3.0,7.0,77,0.00,,,0.00,VWS V14.01,2013-10-31 14:39:00,
2013-10-31 10:40:00,65.2,57.8,29.90,SSE,167,2.0,5.0,77,0.00,,,0.00,VWS V14.01,2013-10-31 14:40:00,
2013-10-31 10:41:00,65.2,57.8,29.90,SSW,198,2.0,4.0,77,0.00,,,0.00,VWS V14.01,2013-10-31 14:41:00,
2013-10-31 10:42:00,65.2,57.8,29.90,SSW,194,7.0,9.0,77,0.00,,,0.00,VWS V14.01,2013-10-31 14:42:00,
2013-10-31 10:43:00,65.2,57.8,29.90,SSE,162,9.0,9.0,77,0.00,,,0.00,VWS V14.01,2013-10-31 14:43:00,
2013-10-31 10:44:00,65.2,57.8,29.90,South,170,9.0,9.0,77,0.00,,,0.00,VWS V14.01,2013-10-31 14:44:00,
2013-10-31 10:45:00,65.2,57.8,29.90,SSW,209,4.0,10.0,77,0.00,,,0.00,VWS V14.01,2013-10-31 14:45:00,
2013-10-31 10:46:00,65.2,58.2,29.90,WSW,252,6.0,6.0,78,0.00,,,0.00,VWS V14.01,2013-10-31 14:46:00,
2013-10-31 10:47:00,65.2,57.8,29.89,South,186,3.0,6.0,77,0.00,,,0.00,VWS V14.01,2013-10-31 14:47:00,
2013-10-31 10:48:00,65.2,58.2,29.89,SSW,194,2.0,5.0,78,0.00,,,0.00,VWS V14.01,2013-10-31 14:48:00,
2013-10-31 10:49:00,65.2,58.2,29.89,SSE,155,8.0,11.0,78,0.00,,,0.00,VWS V14.01,2013-10-31 14:49:00,
2013-10-31 10:50:00,65.2,58.2,29.89,SE,142,8.0,11.0,78,0.00,,,0.00,VWS V14.01,2013-10-31 14:50:00,
2013-10-31 10:51:00,65.1,58.1,29.89,SSE,152,2.0,6.0,78,0.00,,,0.00,VWS V14.01,2013-10-31 14:51:00,
2013-10-31 10:52:00,65.1,58.1,29.89,South,170,2.0,6.0,78,0.00,,,0.00,VWS V14.01,2013-10-31 14:52:00,
2013-10-31 10:53:00,65.1,58.1,29.89,SW,219,1.0,6.0,78,0.00,,,0.00,VWS V14.01,2013-10-31 14:53:00,
2013-10-31 10:54:00,65.1,58.1,29.89,SSW,194,5.0,6.0,78,0.00,,,0.00,VWS V14.01,2013-10-31 14:54:00,
2013-10-31 10:55:00,65.0,58.3,29.89,West,259,5.0,5.0,79,0.00,,,0.00,VWS V14.01,2013-10-31 14:55:00,
2013-10-31 10:56:00,65.0,58.0,29.89,SSE,150,1.0,3.0,78,0.00,,,0.00,VWS V14.01,2013-10-31 14:56:00,
2013-10-31 10:57:00,65.0,58.3,29.89,South,184,3.0,5.0,79,0.00,,,0.00,VWS V14.01,2013-10-31 14:57:00,
2013-10-31 10:58:00,64.9,58.2,29.89,SSE,164,1.0,5.0,79,0.00,,,0.00,VWS V14.01,2013-10-31 14:58:00,
2013-10-31 10:59:00,64.9,58.2,29.89,SSE,150,5.0,5.0,79,0.00,,,0.00,VWS V14.01,2013-10-31 14:59:00,
2013-10-31 11:00:00,64.8,58.1,29.89,SE,140,2.0,6.0,79,0.00,,,0.00,VWS V14.01,2013-10-31 15:00:00,
2013-10-31 11:01:00,64.8,58.1,29.89,SSE,163,7.0,7.0,79,0.00,,,0.00,VWS V14.01,2013-10-31 15:01:00,
2013-10-31 11:02:00,64.8,58.1,29.89,SSE,153,4.0,7.0,79,0.00,,,0.00,VWS V14.01,2013-10-31 15:02:00,
2013-10-31 11:03:00,64.7,58.0,29.89,SE,132,3.0,8.0,79,0.00,,,0.00,VWS V14.01,2013-10-31 15:03:00,
2013-10-31 11:04:00,64.7,58.0,29.89,SW,236,4.0,6.0,79,0.00,,,0.00,VWS V14.01,2013-10-31 15:04:00,
2013-10-31 11:05:00,64.7,58.0,29.89,South,179,5.0,5.0,79,0.00,,,0.00,VWS V14.01,2013-10-31 15:05:00,
2013-10-31 11:06:00,64.7,58.0,29.89,WSW,248,4.0,4.0,79,0.00,,,0.00,VWS V14.01,2013-10-31 15:06:00,
2013-10-31 11:07:00,64.7,58.4,29.89,SE,142,3.0,8.0,80,0.00,,,0.00,VWS V14.01,2013-10-31 15:07:00,
2013-10-31 11:08:00,64.6,58.0,29.89,South,184,2.0,7.0,79,0.00,,,0.00,VWS V14.01,2013-10-31 15:08:00,
2013-10-31 11:09:00,64.6,58.0,29.89,ESE,112,3.0,8.0,79,0.00,,,0.00,VWS V14.01,2013-10-31 15:09:00,
2013-10-31 11:10:00,64.6,58.0,29.88,South,170,3.0,7.0,79,0.00,,,0.00,VWS V14.01,2013-10-31 15:10:00,
2013-10-31 11:11:00,64.6,58.0,29.88,South,187,6.0,6.0,79,0.00,,,0.00,VWS V14.01,2013-10-31 15:11:00,
2013-10-31 11:12:00,64.6,58.3,29.88,SW,215,10.0,10.0,80,0.00,,,0.00,VWS V14.01,2013-10-31 15:12:00,
2013-10-31 11:13:00,64.7,58.0,29.88,ENE,57,2.0,10.0,79,0.00,,,0.00,VWS V14.01,2013-10-31 15:13:00,
2013-10-31 11:14:00,64.6,58.3,29.88,South,183,4.0,6.0,80,0.00,,,0.00,VWS V14.01,2013-10-31 15:14:00,
2013-10-31 11:15:00,64.6,58.3,29.88,SSE,163,3.0,7.0,80,0.00,,,0.00,VWS V14.01,2013-10-31 15:15:00,
2013-10-31 11:16:00,64.6,58.3,29.88,SSE,152,4.0,4.0,80,0.00,,,0.00,VWS V14.01,2013-10-31 15:16:00,
2013-10-31 11:17:00,64.6,58.0,29.88,SW,229,3.0,11.0,79,0.00,,,0.00,VWS V14.01,2013-10-31 15:17:00,
2013-10-31 11:18:00,64.6,58.0,29.88,SSW,195,6.0,8.0,79,0.00,,,0.00,VWS V14.01,2013-10-31 15:18:00,
2013-10-31 11:19:00,64.6,58.0,29.88,South,169,4.0,6.0,79,0.00,,,0.00,VWS V14.01,2013-10-31 15:19:00,
2013-10-31 11:20:00,64.6,58.0,29.88,WSW,237,7.0,8.0,79,0.00,,,0.00,VWS V14.01,2013-10-31 15:20:00,
2013-10-31 11:21:00,64.6,58.3,29.88,SW,220,5.0,6.0,80,0.00,,,0.00,VWS V14.01,2013-10-31 15:21:00,
2013-10-31 11:22:00,64.6,58.0,29.88,SSE,155,2.0,6.0,79,0.00,,,0.00,VWS V14.01,2013-10-31 15:22:00,
2013-10-31 11:23:00,64.6,58.0,29.88,SW,228,4.0,11.0,79,0.00,,,0.00,VWS V14.01,2013-10-31 15:23:00,
2013-10-31 11:24:00,64.6,58.0,29.87,South,172,2.0,4.0,79,0.00,,,0.00,VWS V14.01,2013-10-31 15:24:00,
2013-10-31 11:25:00,64.6,58.0,29.87,SSW,192,5.0,5.0,79,0.00,,,0.00,VWS V14.01,2013-10-31 15:25:00,
2013-10-31 11:26:00,64.6,58.0,29.87,East,91,3.0,7.0,79,0.00,,,0.00,VWS V14.01,2013-10-31 15:26:00,
2013-10-31 11:27:00,64.6,58.0,29.87,South,177,4.0,5.0,79,0.00,,,0.00,VWS V14.01,2013-10-31 15:27:00,
2013-10-31 11:28:00,64.6,58.0,29.87,SE,139,3.0,4.0,79,0.00,,,0.00,VWS V14.01,2013-10-31 15:28:00,
2013-10-31 11:29:00,64.6,58.3,29.87,ESE,110,4.0,5.0,80,0.00,,,0.00,VWS V14.01,2013-10-31 15:29:00,
2013-10-31 11:30:00,64.6,58.0,29.87,SSW,211,4.0,11.0,79,0.00,,,0.00,VWS V14.01,2013-10-31 15:30:00,
2013-10-31 11:31:00,64.6,58.0,29.87,SSW,205,11.0,11.0,79,0.00,,,0.00,VWS V14.01,2013-10-31 15:31:00,
2013-10-31 11:32:00,64.6,58.0,29.87,SSW,207,2.0,11.0,79,0.00,,,0.00,VWS V14.01,2013-10-31 15:32:00,
2013-10-31 11:33:00,64.7,58.0,29.87,SSE,153,2.0,5.0,79,0.00,,,0.00,VWS V14.01,2013-10-31 15:33:00,
2013-10-31 11:34:00,64.7,58.0,29.87,SW,214,9.0,9.0,79,0.00,,,0.00,VWS V14.01,2013-10-31 15:34:00,
2013-10-31 11:35:00,64.7,58.0,29.87,SW,217,10.0,10.0,79,0.00,,,0.00,VWS V14.01,2013-10-31 15:35:00,
2013-10-31 11:36:00,64.7,58.0,29.87,SSE,148,5.0,5.0,79,0.00,,,0.00,VWS V14.01,2013-10-31 15:36:00,
2013-10-31 11:37:00,64.7,58.0,29.87,SSE,166,5.0,10.0,79,0.00,,,0.00,VWS V14.01,2013-10-31 15:37:00,
2013-10-31 11:38:00,64.7,58.0,29.87,SSW,211,3.0,13.0,79,0.00,,,0.00,VWS V14.01,2013-10-31 15:38:00,
2013-10-31 11:39:00,64.8,58.1,29.87,SE,141,3.0,9.0,79,0.00,,,0.00,VWS V14.01,2013-10-31 15:39:00,
2013-10-31 11:40:00,64.8,58.1,29.87,SSW,203,6.0,9.0,79,0.00,,,0.00,VWS V14.01,2013-10-31 15:40:00,
2013-10-31 11:41:00,64.8,58.1,29.87,SSW,193,4.0,7.0,79,0.00,,,0.00,VWS V14.01,2013-10-31 15:41:00,
2013-10-31 11:42:00,64.8,58.1,29.87,South,186,5.0,9.0,79,0.00,,,0.00,VWS V14.01,2013-10-31 15:42:00,
2013-10-31 11:43:00,64.9,58.2,29.87,South,183,2.0,5.0,79,0.00,,,0.00,VWS V14.01,2013-10-31 15:43:00,
2013-10-31 11:44:00,64.9,57.9,29.87,South,172,5.0,10.0,78,0.00,,,0.00,VWS V14.01,2013-10-31 15:44:00,
2013-10-31 11:45:00,64.9,57.9,29.87,South,182,7.0,7.0,78,0.00,,,0.00,VWS V14.01,2013-10-31 15:45:00,
2013-10-31 11:46:00,64.9,57.9,29.87,ESE,122,6.0,11.0,78,0.00,,,0.00,VWS V14.01,2013-10-31 15:46:00,
2013-10-31 11:47:00,65.0,58.3,29.87,SSE,165,0.0,7.0,79,0.00,,,0.00,VWS V14.01,2013-10-31 15:47:00,
2013-10-31 11:48:00,65.0,58.3,29.87,SSW,198,1.0,8.0,79,0.00,,,0.00,VWS V14.01,2013-10-31 15:48:00,
2013-10-31 11:49:00,65.0,58.0,29.87,SSE,165,6.0,7.0,78,0.00,,,0.00,VWS V14.01,2013-10-31 15:49:00,
2013-10-31 11:50:00,65.0,58.3,29.87,West,262,2.0,6.0,79,0.00,,,0.00,VWS V14.01,2013-10-31 15:50:00,
2013-10-31 11:51:00,65.0,58.3,29.87,SE,124,6.0,10.0,79,0.00,,,0.00,VWS V14.01,2013-10-31 15:51:00,
2013-10-31 11:52:00,65.0,58.3,29.87,WSW,255,4.0,7.0,79,0.00,,,0.00,VWS V14.01,2013-10-31 15:52:00,
2013-10-31 11:53:00,65.0,58.3,29.87,SSW,198,6.0,6.0,79,0.00,,,0.00,VWS V14.01,2013-10-31 15:53:00,
2013-10-31 11:54:00,65.0,58.3,29.86,South,176,4.0,9.0,79,0.00,,,0.00,VWS V14.01,2013-10-31 15:54:00,
2013-10-31 11:55:00,65.0,58.0,29.86,SE,124,8.0,10.0,78,0.00,,,0.00,VWS V14.01,2013-10-31 15:55:00,
2013-10-31 11:56:00,65.1,58.1,29.86,SE,143,4.0,12.0,78,0.00,,,0.00,VWS V14.01,2013-10-31 15:56:00,
2013-10-31 11:57:00,65.1,58.1,29.86,SSW,198,5.0,10.0,78,0.00,,,0.00,VWS V14.01,2013-10-31 15:57:00,
2013-10-31 11:58:00,65.1,58.1,29.86,ESE,121,7.0,7.0,78,0.00,,,0.00,VWS V14.01,2013-10-31 15:58:00,
2013-10-31 11:59:00,65.1,58.1,29.86,SSW,192,7.0,7.0,78,0.00,,,0.00,VWS V14.01,2013-10-31 15:59:00,
2013-10-31 12:00:00,65.2,58.2,29.86,SSW,198,3.0,8.0,78,0.00,,,0.00,VWS V14.01,2013-10-31 16:00:00,
2013-10-31 12:01:00,65.2,58.2,29.86,ENE,75,3.0,10.0,78,0.00,,,0.00,VWS V14.01,2013-10-31 16:01:00,
2013-10-31 12:02:00,65.2,58.2,29.86,SSE,152,7.0,8.0,78,0.00,,,0.00,VWS V14.01,2013-10-31 16:02:00,
2013-10-31 12:03:00,65.2,58.2,29.86,SSW,198,5.0,8.0,78,0.00,,,0.00,VWS V14.01,2013-10-31 16:03:00,
2013-10-31 12:04:00,65.2,57.8,29.86,SSE,160,6.0,14.0,77,0.00,,,0.00,VWS V14.01,2013-10-31 16:04:00,
2013-10-31 12:05:00,65.3,58.3,29.85,SE,136,4.0,5.0,78,0.00,,,0.00,VWS V14.01,2013-10-31 16:05:00,
2013-10-31 12:06:00,65.3,57.9,29.85,SW,226,5.0,13.0,77,0.00,,,0.00,VWS V14.01,2013-10-31 16:06:00,
2013-10-31 12:07:00,65.3,58.3,29.85,South,176,1.0,5.0,78,0.00,,,0.00,VWS V14.01,2013-10-31 16:07:00,
2013-10-31 12:08:00,65.4,58.4,29.85,South,175,6.0,9.0,78,0.00,,,0.00,VWS V14.01,2013-10-31 16:08:00,
2013-10-31 12:09:00,65.4,58.0,29.85,SE,132,7.0,12.0,77,0.00,,,0.00,VWS V14.01,2013-10-31 16:09:00,
2013-10-31 12:10:00,65.4,58.0,29.85,SSE,165,8.0,8.0,77,0.00,,,0.00,VWS V14.01,2013-10-31 16:10:00,
2013-10-31 12:11:00,65.4,58.0,29.85,SSE,167,8.0,10.0,77,0.00,,,0.00,VWS V14.01,2013-10-31 16:11:00,
2013-10-31 12:12:00,65.5,58.1,29.85,SSE,166,6.0,8.0,77,0.00,,,0.00,VWS V14.01,2013-10-31 16:12:00,
2013-10-31 12:13:00,65.5,58.1,29.85,SSW,194,7.0,10.0,77,0.00,,,0.00,VWS V14.01,2013-10-31 16:13:00,
2013-10-31 12:14:00,65.5,58.1,29.85,SE,132,5.0,9.0,77,0.00,,,0.00,VWS V14.01,2013-10-31 16:14:00,
2013-10-31 12:15:00,65.6,57.8,29.85,SSE,148,13.0,16.0,76,0.00,,,0.00,VWS V14.01,2013-10-31 16:15:00,
2013-10-31 12:16:00,65.6,57.8,29.85,SSW,210,16.0,16.0,76,0.00,,,0.00,VWS V14.01,2013-10-31 16:16:00,
2013-10-31 12:17:00,65.7,57.6,29.84,SSW,208,9.0,16.0,75,0.00,,,0.00,VWS V14.01,2013-10-31 16:17:00,
2013-10-31 12:18:00,65.7,57.9,29.84,SE,144,5.0,12.0,76,0.00,,,0.00,VWS V14.01,2013-10-31 16:18:00,
2013-10-31 12:19:00,65.8,58.0,29.84,South,169,5.0,9.0,76,0.00,,,0.00,VWS V14.01,2013-10-31 16:19:00,
2013-10-31 12:20:00,65.9,57.8,29.84,SSW,195,5.0,5.0,75,0.00,,,0.00,VWS V14.01,2013-10-31 16:20:00,
2013-10-31 12:21:00,65.9,57.8,29.84,SSE,162,4.0,13.0,75,0.00,,,0.00,VWS V14.01,2013-10-31 16:21:00,
2013-10-31 12:22:00,65.9,57.8,29.84,SSW,211,6.0,13.0,75,0.00,,,0.00,VWS V14.01,2013-10-31 16:22:00,
2013-10-31 12:23:00,66.0,57.9,29.84,SSW,205,6.0,14.0,75,0.00,,,0.00,VWS V14.01,2013-10-31 16:23:00,
2013-10-31 12:24:00,66.0,57.9,29.84,SSE,162,6.0,9.0,75,0.00,,,0.00,VWS V14.01,2013-10-31 16:24:00,
2013-10-31 12:25:00,66.2,58.0,29.84,SE,145,4.0,8.0,75,0.00,,,0.00,VWS V14.01,2013-10-31 16:25:00,
2013-10-31 12:26:00,66.2,58.0,29.84,SSW,211,8.0,9.0,75,0.00,,,0.00,VWS V14.01,2013-10-31 16:26:00,
2013-10-31 12:27:00,66.2,58.0,29.84,SSW,193,4.0,8.0,75,0.00,,,0.00,VWS V14.01,2013-10-31 16:27:00,
2013-10-31 12:28:00,66.2,58.0,29.84,SSE,152,10.0,14.0,75,0.00,,,0.00,VWS V14.01,2013-10-31 16:28:00,
2013-10-31 12:29:00,66.3,57.8,29.84,SSE,152,10.0,13.0,74,0.00,,,0.00,VWS V14.01,2013-10-31 16:29:00,
2013-10-31 12:30:00,66.4,57.9,29.84,SW,214,14.0,14.0,74,0.00,,,0.00,VWS V14.01,2013-10-31 16:30:00,
2013-10-31 12:31:00,66.3,57.8,29.84,WSW,252,7.0,13.0,74,0.00,,,0.00,VWS V14.01,2013-10-31 16:31:00,
2013-10-31 12:32:00,66.4,57.5,29.83,SSW,211,6.0,14.0,73,0.00,,,0.00,VWS V14.01,2013-10-31 16:32:00,
2013-10-31 12:33:00,66.4,57.9,29.83,South,184,7.0,10.0,74,0.00,,,0.00,VWS V14.01,2013-10-31 16:33:00,
2013-10-31 12:34:00,66.4,57.9,29.84,SSE,149,14.0,14.0,74,0.00,,,0.00,VWS V14.01,2013-10-31 16:34:00,
2013-10-31 12:35:00,66.4,57.5,29.83,SSE,167,7.0,9.0,73,0.00,,,0.00,VWS V14.01,2013-10-31 16:35:00,
2013-10-31 12:36:00,66.4,57.5,29.84,South,181,9.0,13.0,73,0.00,,,0.00,VWS V14.01,2013-10-31 16:36:00,
2013-10-31 12:37:00,66.5,57.2,29.83,SSW,205,5.0,17.0,72,0.00,,,0.00,VWS V14.01,2013-10-31 16:37:00,
2013-10-31 12:38:00,66.5,57.2,29.83,SW,220,12.0,12.0,72,0.00,,,0.00,VWS V14.01,2013-10-31 16:38:00,
2013-10-31 12:39:00,66.5,57.6,29.84,SSE,155,5.0,15.0,73,0.00,,,0.00,VWS V14.01,2013-10-31 16:39:00,
2013-10-31 12:40:00,66.4,57.5,29.84,SSW,201,5.0,10.0,73,0.00,,,0.00,VWS V14.01,2013-10-31 16:40:00,
2013-10-31 12:41:00,66.5,57.6,29.83,WNW,293,5.0,11.0,73,0.00,,,0.00,VWS V14.01,2013-10-31 16:41:00,
2013-10-31 12:42:00,66.4,57.1,29.84,SSW,198,4.0,16.0,72,0.00,,,0.00,VWS V14.01,2013-10-31 16:42:00,
2013-10-31 12:43:00,66.4,57.5,29.83,SW,220,12.0,12.0,73,0.00,,,0.00,VWS V14.01,2013-10-31 16:43:00,
2013-10-31 12:44:00,66.4,57.5,29.83,South,191,9.0,13.0,73,0.00,,,0.00,VWS V14.01,2013-10-31 16:44:00,
2013-10-31 12:45:00,66.4,57.5,29.83,South,180,6.0,12.0,73,0.00,,,0.00,VWS V14.01,2013-10-31 16:45:00,
2013-10-31 12:46:00,66.4,57.5,29.83,South,174,6.0,8.0,73,0.00,,,0.00,VWS V14.01,2013-10-31 16:46:00,
2013-10-31 12:47:00,66.3,57.4,29.83,SSW,203,7.0,8.0,73,0.00,,,0.00,VWS V14.01,2013-10-31 16:47:00,
2013-10-31 12:48:00,66.3,57.4,29.83,South,186,5.0,11.0,73,0.00,,,0.00,VWS V14.01,2013-10-31 16:48:00,
2013-10-31 12:49:00,66.3,57.8,29.83,SW,214,8.0,9.0,74,0.00,,,0.00,VWS V14.01,2013-10-31 16:49:00,
2013-10-31 12:50:00,66.3,57.8,29.83,SW,215,9.0,17.0,74,0.00,,,0.00,VWS V14.01,2013-10-31 16:50:00,
2013-10-31 12:51:00,66.2,57.3,29.83,South,186,4.0,10.0,73,0.00,,,0.00,VWS V14.01,2013-10-31 16:51:00,
2013-10-31 12:52:00,66.2,57.3,29.83,SSE,164,8.0,15.0,73,0.00,,,0.00,VWS V14.01,2013-10-31 16:52:00,
2013-10-31 12:53:00,66.2,56.9,29.83,SW,226,4.0,17.0,72,0.00,,,0.00,VWS V14.01,2013-10-31 16:53:00,
2013-10-31 12:54:00,66.2,56.5,29.83,WSW,240,11.0,19.0,71,0.00,,,0.00,VWS V14.01,2013-10-31 16:54:00,
2013-10-31 12:55:00,66.1,56.8,29.83,South,183,12.0,13.0,72,0.00,,,0.00,VWS V14.01,2013-10-31 16:55:00,
2013-10-31 12:56:00,66.1,56.4,29.83,SSW,205,14.0,20.0,71,0.00,,,0.00,VWS V14.01,2013-10-31 16:56:00,
2013-10-31 12:57:00,66.1,56.4,29.83,SSW,210,13.0,27.0,71,0.00,,,0.00,VWS V14.01,2013-10-31 16:57:00,
2013-10-31 12:58:00,66.1,56.0,29.83,SSW,203,19.0,23.0,70,0.00,,,0.00,VWS V14.01,2013-10-31 16:58:00,
2013-10-31 12:59:00,66.0,56.3,29.83,SSW,207,9.0,20.0,71,0.00,,,0.00,VWS V14.01,2013-10-31 16:59:00,
2013-10-31 13:00:00,66.0,56.3,29.83,SSW,204,25.0,25.0,71,0.00,,,0.00,VWS V14.01,2013-10-31 17:00:00,
2013-10-31 13:01:00,65.9,56.2,29.83,SE,125,13.0,16.0,71,0.00,,,0.00,VWS V14.01,2013-10-31 17:01:00,
2013-10-31 13:02:00,65.9,56.6,29.83,SW,228,11.0,16.0,72,0.00,,,0.00,VWS V14.01,2013-10-31 17:02:00,
2013-10-31 13:03:00,65.8,56.9,29.83,SE,131,9.0,13.0,73,0.00,,,0.00,VWS V14.01,2013-10-31 17:03:00,
2013-10-31 13:04:00,65.7,56.8,29.84,South,191,6.0,14.0,73,0.00,,,0.00,VWS V14.01,2013-10-31 17:04:00,
2013-10-31 13:05:00,65.5,56.6,29.83,WSW,238,6.0,12.0,73,0.00,,,0.00,VWS V14.01,2013-10-31 17:05:00,
2013-10-31 13:06:00,65.6,56.7,29.83,SSW,198,12.0,13.0,73,0.00,,,0.00,VWS V14.01,2013-10-31 17:06:00,
2013-10-31 13:07:00,65.4,56.5,29.83,South,187,11.0,16.0,73,0.00,,,0.00,VWS V14.01,2013-10-31 17:07:00,
2013-10-31 13:08:00,65.4,56.5,29.83,South,190,11.0,13.0,73,0.00,,,0.00,VWS V14.01,2013-10-31 17:08:00,
2013-10-31 13:09:00,65.3,56.8,29.83,SSW,198,3.0,11.0,74,0.00,,,0.00,VWS V14.01,2013-10-31 17:09:00,
2013-10-31 13:10:00,65.2,56.7,29.83,West,270,10.0,13.0,74,0.00,,,0.00,VWS V14.01,2013-10-31 17:10:00,
2013-10-31 13:11:00,65.1,57.0,29.84,South,176,16.0,16.0,75,0.00,,,0.00,VWS V14.01,2013-10-31 17:11:00,
2013-10-31 13:12:00,65.0,56.9,29.84,South,190,4.0,16.0,75,0.00,,,0.00,VWS V14.01,2013-10-31 17:12:00,
2013-10-31 13:13:00,65.0,56.9,29.84,SW,226,13.0,17.0,75,0.00,,,0.00,VWS V14.01,2013-10-31 17:13:00,
2013-10-31 13:14:00,64.9,56.8,29.84,SSE,166,14.0,16.0,75,0.00,,,0.00,VWS V14.01,2013-10-31 17:14:00,
2013-10-31 13:15:00,64.8,56.7,29.84,SSW,212,13.0,17.0,75,0.00,,,0.00,VWS V14.01,2013-10-31 17:15:00,
2013-10-31 13:16:00,64.7,57.0,29.83,South,170,8.0,10.0,76,0.00,,,0.00,VWS V14.01,2013-10-31 17:16:00,
2013-10-31 13:17:00,64.7,56.6,29.83,SW,214,16.0,16.0,75,0.00,,,0.00,VWS V14.01,2013-10-31 17:17:00,
2013-10-31 13:18:00,64.6,56.9,29.83,South,188,5.0,16.0,76,0.00,,,0.00,VWS V14.01,2013-10-31 17:18:00,
2013-10-31 13:19:00,64.6,56.9,29.83,SSE,155,3.0,13.0,76,0.00,,,0.00,VWS V14.01,2013-10-31 17:19:00,
2013-10-31 13:20:00,64.6,56.9,29.83,SSE,153,6.0,12.0,76,0.00,,,0.00,VWS V14.01,2013-10-31 17:20:00,
2013-10-31 13:21:00,64.5,56.8,29.82,SSW,193,8.0,13.0,76,0.00,,,0.00,VWS V14.01,2013-10-31 17:21:00,
2013-10-31 13:22:00,64.5,56.8,29.82,SSE,162,5.0,13.0,76,0.00,,,0.00,VWS V14.01,2013-10-31 17:22:00,
2013-10-31 13:23:00,64.5,56.8,29.81,SSE,153,7.0,10.0,76,0.00,,,0.00,VWS V14.01,2013-10-31 17:23:00,
2013-10-31 13:24:00,64.5,57.1,29.81,SSE,153,5.0,9.0,77,0.00,,,0.00,VWS V14.01,2013-10-31 17:24:00,
2013-10-31 13:25:00,64.6,57.2,29.81,SE,142,10.0,12.0,77,0.00,,,0.00,VWS V14.01,2013-10-31 17:25:00,
2013-10-31 13:26:00,64.6,57.2,29.81,SW,226,4.0,7.0,77,0.00,,,0.00,VWS V14.01,2013-10-31 17:26:00,
2013-10-31 13:27:00,64.6,57.2,29.81,SSW,198,4.0,10.0,77,0.00,,,0.00,VWS V14.01,2013-10-31 17:27:00,
2013-10-31 13:28:00,64.7,57.3,29.81,SW,232,9.0,9.0,77,0.00,,,0.00,VWS V14.01,2013-10-31 17:28:00,
2013-10-31 13:29:00,64.7,57.0,29.81,SSW,207,7.0,14.0,76,0.00,,,0.00,VWS V14.01,2013-10-31 17:29:00,
2013-10-31 13:30:00,64.7,57.0,29.81,SW,231,8.0,12.0,76,0.00,,,0.00,VWS V14.01,2013-10-31 17:30:00,
2013-10-31 13:31:00,64.9,57.2,29.81,WSW,238,11.0,15.0,76,0.00,,,0.00,VWS V14.01,2013-10-31 17:31:00,
2013-10-31 13:32:00,64.9,57.2,29.81,SSE,165,10.0,15.0,76,0.00,,,0.00,VWS V14.01,2013-10-31 17:32:00,
2013-10-31 13:33:00,64.9,56.8,29.81,SW,235,6.0,16.0,75,0.00,,,0.00,VWS V14.01,2013-10-31 17:33:00,
2013-10-31 13:34:00,65.0,57.3,29.81,SSE,157,12.0,17.0,76,0.00,,,0.00,VWS V14.01,2013-10-31 17:34:00,
2013-10-31 13:35:00,65.0,56.9,29.81,South,170,10.0,14.0,75,0.00,,,0.00,VWS V14.01,2013-10-31 17:35:00,
2013-10-31 13:36:00,65.0,56.9,29.81,SE,136,6.0,14.0,75,0.00,,,0.00,VWS V14.01,2013-10-31 17:36:00,
2013-10-31 13:37:00,65.1,57.0,29.81,South,180,9.0,15.0,75,0.00,,,0.00,VWS V14.01,2013-10-31 17:37:00,
2013-10-31 13:38:00,65.1,56.6,29.81,WSW,238,7.0,14.0,74,0.00,,,0.00,VWS V14.01,2013-10-31 17:38:00,
2013-10-31 13:39:00,65.1,56.6,29.80,SSE,148,9.0,11.0,74,0.00,,,0.00,VWS V14.01,2013-10-31 17:39:00,
2013-10-31 13:40:00,65.1,57.0,29.80,SSW,203,6.0,10.0,75,0.00,,,0.00,VWS V14.01,2013-10-31 17:40:00,
2013-10-31 13:41:00,65.2,57.1,29.80,SSW,203,9.0,19.0,75,0.00,,,0.00,VWS V14.01,2013-10-31 17:41:00,
2013-10-31 13:42:00,65.2,56.7,29.80,South,175,4.0,19.0,74,0.00,,,0.00,VWS V14.01,2013-10-31 17:42:00,
2013-10-31 13:43:00,65.2,57.1,29.80,SE,125,4.0,10.0,75,0.00,,,0.00,VWS V14.01,2013-10-31 17:43:00,
2013-10-31 13:44:00,65.2,57.1,29.80,SSW,211,4.0,7.0,75,0.00,,,0.00,VWS V14.01,2013-10-31 17:44:00,
2013-10-31 13:45:00,65.3,57.2,29.80,SSW,209,4.0,10.0,75,0.00,,,0.00,VWS V14.01,2013-10-31 17:45:00,
2013-10-31 13:46:00,65.3,57.2,29.80,SSE,149,5.0,7.0,75,0.00,,,0.00,VWS V14.01,2013-10-31 17:46:00,
2013-10-31 13:47:00,65.3,56.8,29.80,South,188,12.0,12.0,74,0.00,,,0.00,VWS V14.01,2013-10-31 17:47:00,
2013-10-31 13:48:00,65.3,56.8,29.80,South,172,5.0,12.0,74,0.00,,,0.00,VWS V14.01,2013-10-31 17:48:00,
2013-10-31 13:49:00,65.3,56.8,29.80,WSW,238,8.0,10.0,74,0.00,,,0.00,VWS V14.01,2013-10-31 17:49:00,
2013-10-31 13:50:00,65.4,57.3,29.80,SE,144,7.0,8.0,75,0.00,,,0.00,VWS V14.01,2013-10-31 17:50:00,
2013-10-31 13:51:00,65.4,56.9,29.80,South,188,6.0,19.0,74,0.00,,,0.00,VWS V14.01,2013-10-31 17:51:00,
2013-10-31 13:52:00,65.4,56.9,29.80,SE,141,8.0,19.0,74,0.00,,,0.00,VWS V14.01,2013-10-31 17:52:00,
2013-10-31 13:53:00,65.3,56.8,29.80,South,172,8.0,11.0,74,0.00,,,0.00,VWS V14.01,2013-10-31 17:53:00,
2013-10-31 13:54:00,65.3,56.8,29.81,SW,229,8.0,11.0,74,0.00,,,0.00,VWS V14.01,2013-10-31 17:54:00,
2013-10-31 13:55:00,65.3,57.2,29.80,South,186,5.0,8.0,75,0.00,,,0.00,VWS V14.01,2013-10-31 17:55:00,
2013-10-31 13:56:00,65.3,57.2,29.79,SE,124,9.0,11.0,75,0.00,,,0.00,VWS V14.01,2013-10-31 17:56:00,
2013-10-31 13:57:00,65.2,57.1,29.79,SE,142,4.0,11.0,75,0.00,,,0.00,VWS V14.01,2013-10-31 17:57:00,
2013-10-31 13:58:00,65.2,57.1,29.79,South,174,6.0,7.0,75,0.00,,,0.00,VWS V14.01,2013-10-31 17:58:00,
2013-10-31 13:59:00,65.2,57.5,29.79,South,180,8.0,8.0,76,0.00,,,0.00,VWS V14.01,2013-10-31 17:59:00,
2013-10-31 14:00:00,65.2,57.5,29.79,SE,143,3.0,10.0,76,0.00,,,0.00,VWS V14.01,2013-10-31 18:00:00,
2013-10-31 14:01:00,65.1,57.4,29.78,SSE,165,11.0,12.0,76,0.00,,,0.00,VWS V14.01,2013-10-31 18:01:00,
2013-10-31 14:02:00,65.2,57.5,29.78,West,265,17.0,18.0,76,0.00,,,0.00,VWS V14.01,2013-10-31 18:02:00,
2013-10-31 14:03:00,65.1,57.4,29.78,SW,222,8.0,17.0,76,0.00,,,0.00,VWS V14.01,2013-10-31 18:03:00,
2013-10-31 14:04:00,65.2,57.5,29.78,SE,144,15.0,15.0,76,0.00,,,0.00,VWS V14.01,2013-10-31 18:04:00,
2013-10-31 14:05:00,65.2,57.5,29.78,SSW,204,12.0,15.0,76,0.00,,,0.00,VWS V14.01,2013-10-31 18:05:00,
2013-10-31 14:06:00,65.2,57.5,29.78,SSW,211,8.0,13.0,76,0.00,,,0.00,VWS V14.01,2013-10-31 18:06:00,
2013-10-31 14:07:00,65.2,57.8,29.78,SSE,162,9.0,13.0,77,0.00,,,0.00,VWS V14.01,2013-10-31 18:07:00,
2013-10-31 14:08:00,65.2,57.8,29.78,WSW,237,7.0,13.0,77,0.00,,,0.00,VWS V14.01,2013-10-31 18:08:00,
2013-10-31 14:09:00,65.2,57.8,29.78,SSW,195,10.0,11.0,77,0.00,,,0.00,VWS V14.01,2013-10-31 18:09:00,
2013-10-31 14:10:00,65.2,58.2,29.78,South,184,5.0,11.0,78,0.00,,,0.00,VWS V14.01,2013-10-31 18:10:00,
2013-10-31 14:11:00,65.2,58.2,29.78,SSE,153,3.0,8.0,78,0.00,,,0.00,VWS V14.01,2013-10-31 18:11:00,
2013-10-31 14:12:00,65.2,58.2,29.78,SW,219,11.0,11.0,78,0.00,,,0.00,VWS V14.01,2013-10-31 18:12:00,
2013-10-31 14:13:00,65.2,58.2,29.78,South,184,8.0,12.0,78,0.00,,,0.00,VWS V14.01,2013-10-31 18:13:00,
2013-10-31 14:14:00,65.2,58.2,29.78,SSW,205,9.0,13.0,78,0.00,,,0.00,VWS V14.01,2013-10-31 18:14:00,
2013-10-31 14:15:00,65.2,58.5,29.78,South,181,3.0,13.0,79,0.00,,,0.00,VWS V14.01,2013-10-31 18:15:00,
2013-10-31 14:16:00,65.2,58.5,29.77,SSE,148,7.0,10.0,79,0.00,,,0.00,VWS V14.01,2013-10-31 18:16:00,
2013-10-31 14:17:00,65.2,58.5,29.77,WSW,239,14.0,14.0,79,0.00,,,0.00,VWS V14.01,2013-10-31 18:17:00,
2013-10-31 14:18:00,65.2,58.5,29.77,SSE,153,15.0,15.0,79,0.00,,,0.00,VWS V14.01,2013-10-31 18:18:00,
2013-10-31 14:19:00,65.2,58.5,29.77,South,190,5.0,16.0,79,0.00,,,0.00,VWS V14.01,2013-10-31 18:19:00,
2013-10-31 14:20:00,65.1,58.4,29.77,SE,124,9.0,11.0,79,0.00,,,0.00,VWS V14.01,2013-10-31 18:20:00,
2013-10-31 14:21:00,65.1,58.8,29.77,SSE,158,11.0,14.0,80,0.00,,,0.00,VWS V14.01,2013-10-31 18:21:00,
2013-10-31 14:22:00,65.1,58.8,29.77,North,352,7.0,14.0,80,0.00,,,0.00,VWS V14.01,2013-10-31 18:22:00,
2013-10-31 14:23:00,65.1,58.8,29.77,SW,218,11.0,11.0,80,0.00,,,0.00,VWS V14.01,2013-10-31 18:23:00,
2013-10-31 14:24:00,65.0,58.7,29.77,SSE,162,8.0,12.0,80,0.00,,,0.00,VWS V14.01,2013-10-31 18:24:00,
2013-10-31 14:25:00,65.0,58.7,29.77,SSE,158,6.0,12.0,80,0.00,,,0.00,VWS V14.01,2013-10-31 18:25:00,
2013-10-31 14:26:00,64.9,58.9,29.77,SSW,207,9.0,9.0,81,0.00,,,0.00,VWS V14.01,2013-10-31 18:26:00,
2013-10-31 14:27:00,64.9,58.9,29.77,SSE,155,9.0,9.0,81,0.00,,,0.00,VWS V14.01,2013-10-31 18:27:00,
2013-10-31 14:28:00,64.8,58.8,29.77,SSW,193,8.0,10.0,81,0.00,,,0.00,VWS V14.01,2013-10-31 18:28:00,
2013-10-31 14:29:00,64.8,58.8,29.77,South,187,4.0,12.0,81,0.00,,,0.00,VWS V14.01,2013-10-31 18:29:00,
2013-10-31 14:30:00,64.7,58.7,29.76,South,186,3.0,5.0,81,0.00,,,0.00,VWS V14.01,2013-10-31 18:30:00,
2013-10-31 14:31:00,64.7,58.7,29.76,SE,132,9.0,13.0,81,0.00,,,0.00,VWS V14.01,2013-10-31 18:31:00,
2013-10-31 14:32:00,64.7,58.7,29.76,South,169,8.0,13.0,81,0.00,,,0.00,VWS V14.01,2013-10-31 18:32:00,
2013-10-31 14:33:00,64.6,59.0,29.76,SSW,212,8.0,12.0,82,0.00,,,0.00,VWS V14.01,2013-10-31 18:33:00,
2013-10-31 14:34:00,64.6,59.0,29.76,SSE,149,5.0,10.0,82,0.00,,,0.00,VWS V14.01,2013-10-31 18:34:00,
2013-10-31 14:35:00,64.6,59.0,29.76,South,174,7.0,15.0,82,0.00,,,0.00,VWS V14.01,2013-10-31 18:35:00,
2013-10-31 14:36:00,64.6,59.0,29.75,SE,138,8.0,10.0,82,0.00,,,0.00,VWS V14.01,2013-10-31 18:36:00,
2013-10-31 14:37:00,64.6,59.0,29.75,SW,227,12.0,12.0,82,0.00,,,0.00,VWS V14.01,2013-10-31 18:37:00,
2013-10-31 14:38:00,64.6,59.0,29.75,SSW,194,7.0,14.0,82,0.00,,,0.00,VWS V14.01,2013-10-31 18:38:00,
2013-10-31 14:39:00,64.7,59.4,29.75,SSW,211,11.0,17.0,83,0.00,,,0.00,VWS V14.01,2013-10-31 18:39:00,
2013-10-31 14:40:00,64.7,59.4,29.75,ESE,119,8.0,14.0,83,0.00,,,0.00,VWS V14.01,2013-10-31 18:40:00,
2013-10-31 14:41:00,64.6,59.7,29.75,SSW,193,10.0,13.0,84,0.00,,,0.00,VWS V14.01,2013-10-31 18:41:00,
2013-10-31 14:42:00,64.6,59.7,29.75,SE,124,10.0,13.0,84,0.00,,,0.00,VWS V14.01,2013-10-31 18:42:00,
2013-10-31 14:43:00,64.5,59.6,29.75,SSE,153,4.0,10.0,84,0.00,,,0.00,VWS V14.01,2013-10-31 18:43:00,
2013-10-31 14:44:00,64.5,59.6,29.75,SSW,198,5.0,9.0,84,0.00,,,0.00,VWS V14.01,2013-10-31 18:44:00,
2013-10-31 14:45:00,64.4,59.8,29.75,SSW,200,4.0,8.0,85,0.00,,,0.00,VWS V14.01,2013-10-31 18:45:00,
2013-10-31 14:46:00,64.3,59.7,29.75,SE,144,5.0,9.0,85,0.00,,,0.00,VWS V14.01,2013-10-31 18:46:00,
2013-10-31 14:47:00,64.2,59.6,29.75,SE,131,9.0,9.0,85,0.00,,,0.00,VWS V14.01,2013-10-31 18:47:00,
2013-10-31 14:48:00,64.2,59.6,29.75,ESE,108,2.0,9.0,85,0.00,,,0.00,VWS V14.01,2013-10-31 18:48:00,
2013-10-31 14:49:00,64.1,59.8,29.75,SW,224,6.0,12.0,86,0.00,,,0.00,VWS V14.01,2013-10-31 18:49:00,
2013-10-31 14:50:00,64.0,59.7,29.75,South,179,3.0,6.0,86,0.00,,,0.00,VWS V14.01,2013-10-31 18:50:00,
2013-10-31 14:51:00,64.0,60.1,29.74,ESE,120,4.0,8.0,87,0.01,,,0.01,VWS V14.01,2013-10-31 18:51:00,
2013-10-31 14:52:00,64.0,60.1,29.74,WSW,238,4.0,8.0,87,0.01,,,0.01,VWS V14.01,2013-10-31 18:52:00,
2013-10-31 14:53:00,63.9,60.0,29.74,SE,138,3.0,11.0,87,0.01,,,0.01,VWS V14.01,2013-10-31 18:53:00,
2013-10-31 14:54:00,63.9,60.0,29.74,NNW,341,5.0,9.0,87,0.01,,,0.01,VWS V14.01,2013-10-31 18:54:00,
2013-10-31 14:55:00,63.8,59.9,29.74,SW,226,9.0,14.0,87,0.01,,,0.01,VWS V14.01,2013-10-31 18:55:00,
2013-10-31 14:56:00,63.8,59.9,29.74,SSW,195,6.0,8.0,87,0.01,,,0.01,VWS V14.01,2013-10-31 18:56:00,
2013-10-31 14:57:00,63.8,59.9,29.74,SSE,158,7.0,9.0,87,0.01,,,0.01,VWS V14.01,2013-10-31 18:57:00,
2013-10-31 14:58:00,63.8,59.9,29.74,SSE,163,5.0,8.0,87,0.01,,,0.01,VWS V14.01,2013-10-31 18:58:00,
2013-10-31 14:59:00,63.7,59.8,29.74,SSW,201,8.0,10.0,87,0.01,,,0.01,VWS V14.01,2013-10-31 18:59:00,
2013-10-31 15:00:00,63.7,59.8,29.74,SSE,162,3.0,13.0,87,0.01,,,0.01,VWS V14.01,2013-10-31 19:00:00,
2013-10-31 15:01:00,63.7,59.8,29.74,South,186,8.0,18.0,87,0.01,,,0.01,VWS V14.01,2013-10-31 19:01:00,
2013-10-31 15:02:00,63.7,59.8,29.74,SE,145,4.0,18.0,87,0.01,,,0.01,VWS V14.01,2013-10-31 19:02:00,
2013-10-31 15:03:00,63.7,59.8,29.74,South,176,7.0,12.0,87,0.01,,,0.01,VWS V14.01,2013-10-31 19:03:00,
2013-10-31 15:04:00,63.7,59.8,29.73,SSE,166,13.0,13.0,87,0.01,,,0.01,VWS V14.01,2013-10-31 19:04:00,
2013-10-31 15:05:00,63.7,59.8,29.73,SSW,207,12.0,13.0,87,0.01,,,0.01,VWS V14.01,2013-10-31 19:05:00,
2013-10-31 15:06:00,63.7,59.8,29.73,ESE,122,8.0,10.0,87,0.01,,,0.01,VWS V14.01,2013-10-31 19:06:00,
2013-10-31 15:07:00,63.7,59.8,29.73,SSW,192,10.0,10.0,87,0.01,,,0.01,VWS V14.01,2013-10-31 19:07:00,
2013-10-31 15:08:00,63.7,60.1,29.73,SSE,160,8.0,13.0,88,0.01,,,0.01,VWS V14.01,2013-10-31 19:08:00,
2013-10-31 15:09:00,63.7,60.1,29.73,South,184,7.0,8.0,88,0.01,,,0.01,VWS V14.01,2013-10-31 19:09:00,
2013-10-31 15:10:00,63.7,59.8,29.73,SSW,194,2.0,9.0,87,0.01,,,0.01,VWS V14.01,2013-10-31 19:10:00,
2013-10-31 15:11:00,63.8,59.9,29.73,SSW,195,13.0,13.0,87,0.01,,,0.01,VWS V14.01,2013-10-31 19:11:00,
2013-10-31 15:12:00,63.8,59.9,29.73,SSE,162,5.0,13.0,87,0.01,,,0.01,VWS V14.01,2013-10-31 19:12:00,
2013-10-31 15:13:00,63.8,59.9,29.73,SSW,203,6.0,16.0,87,0.01,,,0.01,VWS V14.01,2013-10-31 19:13:00,
2013-10-31 15:14:00,63.8,59.9,29.73,WSW,249,10.0,11.0,87,0.01,,,0.01,VWS V14.01,2013-10-31 19:14:00,
2013-10-31 15:15:00,63.8,59.9,29.73,SW,236,4.0,11.0,87,0.01,,,0.01,VWS V14.01,2013-10-31 19:15:00,
2013-10-31 15:16:00,63.9,60.0,29.73,WSW,254,5.0,10.0,87,0.01,,,0.01,VWS V14.01,2013-10-31 19:16:00,
2013-10-31 15:17:00,63.9,60.0,29.73,SW,222,13.0,13.0,87,0.01,,,0.01,VWS V14.01,2013-10-31 19:17:00,
2013-10-31 15:18:00,63.8,59.9,29.72,South,188,5.0,13.0,87,0.01,,,0.01,VWS V14.01,2013-10-31 19:18:00,
2013-10-31 15:19:00,63.9,60.0,29.72,SSW,212,3.0,10.0,87,0.01,,,0.01,VWS V14.01,2013-10-31 19:19:00,
2013-10-31 15:20:00,63.8,59.9,29.72,South,177,8.0,12.0,87,0.01,,,0.01,VWS V14.01,2013-10-31 19:20:00,
2013-10-31 15:21:00,63.8,59.9,29.72,SSW,210,7.0,12.0,87,0.01,,,0.01,VWS V14.01,2013-10-31 19:21:00,
2013-10-31 15:22:00,63.8,59.9,29.72,SE,125,11.0,13.0,87,0.01,,,0.01,VWS V14.01,2013-10-31 19:22:00,
2013-10-31 15:23:00,63.8,59.9,29.72,ESE,122,11.0,12.0,87,0.01,,,0.01,VWS V14.01,2013-10-31 19:23:00,
2013-10-31 15:24:00,63.8,59.9,29.72,SSW,204,8.0,11.0,87,0.01,,,0.01,VWS V14.01,2013-10-31 19:24:00,
2013-10-31 15:25:00,63.8,59.9,29.72,South,176,5.0,16.0,87,0.02,,,0.02,VWS V14.01,2013-10-31 19:25:00,
2013-10-31 15:26:00,63.8,59.9,29.72,SSW,198,6.0,9.0,87,0.02,,,0.02,VWS V14.01,2013-10-31 19:26:00,
2013-10-31 15:27:00,63.7,59.8,29.72,South,169,8.0,9.0,87,0.02,,,0.02,VWS V14.01,2013-10-31 19:27:00,
2013-10-31 15:28:00,63.7,59.8,29.72,South,188,14.0,14.0,87,0.02,,,0.02,VWS V14.01,2013-10-31 19:28:00,
2013-10-31 15:29:00,63.7,59.8,29.72,South,172,4.0,14.0,87,0.02,,,0.02,VWS V14.01,2013-10-31 19:29:00,
2013-10-31 15:30:00,63.7,59.8,29.72,SSE,155,10.0,13.0,87,0.02,,,0.02,VWS V14.01,2013-10-31 19:30:00,
2013-10-31 15:31:00,63.7,59.8,29.72,South,188,14.0,14.0,87,0.02,,,0.02,VWS V14.01,2013-10-31 19:31:00,
2013-10-31 15:32:00,63.8,59.9,29.72,ESE,117,6.0,16.0,87,0.02,,,0.02,VWS V14.01,2013-10-31 19:32:00,
2013-10-31 15:33:00,63.8,60.2,29.71,SSW,195,9.0,12.0,88,0.02,,,0.02,VWS V14.01,2013-10-31 19:33:00,
2013-10-31 15:34:00,63.8,59.9,29.71,SSW,193,11.0,12.0,87,0.02,,,0.02,VWS V14.01,2013-10-31 19:34:00,
2013-10-31 15:35:00,63.8,59.9,29.71,South,173,4.0,12.0,87,0.02,,,0.02,VWS V14.01,2013-10-31 19:35:00,
2013-10-31 15:36:00,63.8,60.2,29.71,South,190,9.0,14.0,88,0.02,,,0.02,VWS V14.01,2013-10-31 19:36:00,
2013-10-31 15:37:00,63.8,60.2,29.71,SSW,209,10.0,14.0,88,0.02,,,0.02,VWS V14.01,2013-10-31 19:37:00,
2013-10-31 15:38:00,63.8,60.2,29.71,SW,221,15.0,15.0,88,0.02,,,0.02,VWS V14.01,2013-10-31 19:38:00,
2013-10-31 15:39:00,63.8,60.2,29.71,SE,146,5.0,15.0,88,0.02,,,0.02,VWS V14.01,2013-10-31 19:39:00,
2013-10-31 15:40:00,63.8,60.2,29.71,East,101,10.0,10.0,88,0.02,,,0.02,VWS V14.01,2013-10-31 19:40:00,
2013-10-31 15:41:00,63.8,60.2,29.70,SW,232,6.0,6.0,88,0.02,,,0.02,VWS V14.01,2013-10-31 19:41:00,
2013-10-31 15:42:00,63.8,60.2,29.70,SSE,158,5.0,6.0,88,0.02,,,0.02,VWS V14.01,2013-10-31 19:42:00,
2013-10-31 15:43:00,63.8,60.2,29.70,SSW,194,4.0,11.0,88,0.02,,,0.02,VWS V14.01,2013-10-31 19:43:00,
2013-10-31 15:44:00,63.8,60.2,29.70,SSE,149,4.0,9.0,88,0.02,,,0.02,VWS V14.01,2013-10-31 19:44:00,
2013-10-31 15:45:00,63.9,60.3,29.70,WSW,253,12.0,13.0,88,0.02,,,0.02,VWS V14.01,2013-10-31 19:45:00,
2013-10-31 15:46:00,63.9,60.3,29.70,South,172,10.0,10.0,88,0.02,,,0.02,VWS V14.01,2013-10-31 19:46:00,
2013-10-31 15:47:00,64.0,60.1,29.70,SSW,197,12.0,12.0,87,0.02,,,0.02,VWS V14.01,2013-10-31 19:47:00,
2013-10-31 15:48:00,64.0,60.1,29.70,SE,136,6.0,15.0,87,0.02,,,0.02,VWS V14.01,2013-10-31 19:48:00,
2013-10-31 15:49:00,64.1,60.2,29.70,SSW,198,6.0,11.0,87,0.02,,,0.02,VWS V14.01,2013-10-31 19:49:00,
2013-10-31 15:50:00,64.1,60.2,29.70,South,184,6.0,11.0,87,0.02,,,0.02,VWS V14.01,2013-10-31 19:50:00,
2013-10-31 15:51:00,64.2,60.3,29.70,South,178,6.0,10.0,87,0.02,,,0.02,VWS V14.01,2013-10-31 19:51:00,
2013-10-31 15:52:00,64.2,60.3,29.70,SW,235,6.0,11.0,87,0.02,,,0.02,VWS V14.01,2013-10-31 19:52:00,
2013-10-31 15:53:00,64.2,60.3,29.70,SSE,160,6.0,12.0,87,0.01,,,0.02,VWS V14.01,2013-10-31 19:53:00,
2013-10-31 15:54:00,64.3,60.3,29.70,South,187,12.0,12.0,87,0.01,,,0.02,VWS V14.01,2013-10-31 19:54:00,
2013-10-31 15:55:00,64.3,60.0,29.70,SSE,166,11.0,12.0,86,0.01,,,0.02,VWS V14.01,2013-10-31 19:55:00,
2013-10-31 15:56:00,64.4,60.1,29.69,SSE,151,6.0,15.0,86,0.01,,,0.02,VWS V14.01,2013-10-31 19:56:00,
2013-10-31 15:57:00,64.5,60.2,29.69,SE,146,16.0,16.0,86,0.01,,,0.02,VWS V14.01,2013-10-31 19:57:00,
2013-10-31 15:58:00,64.6,60.3,29.70,SSW,212,15.0,16.0,86,0.01,,,0.02,VWS V14.01,2013-10-31 19:58:00,
2013-10-31 15:59:00,64.7,60.1,29.70,SSW,198,9.0,15.0,85,0.01,,,0.02,VWS V14.01,2013-10-31 19:59:00,
2013-10-31 16:00:00,64.7,60.1,29.70,SSW,198,9.0,15.0,85,0.01,,,0.02,VWS V14.01,2013-10-31 20:00:00,
2013-10-31 16:01:00,64.8,60.2,29.70,SSW,193,14.0,14.0,85,0.01,,,0.02,VWS V14.01,2013-10-31 20:01:00,
2013-10-31 16:02:00,64.9,60.3,29.69,South,185,9.0,14.0,85,0.01,,,0.02,VWS V14.01,2013-10-31 20:02:00,
2013-10-31 16:03:00,64.9,60.3,29.69,SW,222,8.0,13.0,85,0.01,,,0.02,VWS V14.01,2013-10-31 20:03:00,
2013-10-31 16:04:00,65.0,60.0,29.69,SSW,205,7.0,14.0,84,0.01,,,0.02,VWS V14.01,2013-10-31 20:04:00,
2013-10-31 16:05:00,65.0,60.0,29.69,SSW,205,7.0,14.0,84,0.01,,,0.02,VWS V14.01,2013-10-31 20:05:00,
2013-10-31 16:06:00,65.1,60.5,29.69,South,191,13.0,13.0,85,0.01,,,0.02,VWS V14.01,2013-10-31 20:06:00,
2013-10-31 16:07:00,65.2,60.2,29.69,WSW,239,5.0,13.0,84,0.01,,,0.02,VWS V14.01,2013-10-31 20:07:00,
2013-10-31 16:08:00,65.2,60.6,29.69,SE,143,9.0,11.0,85,0.01,,,0.02,VWS V14.01,2013-10-31 20:08:00,
2013-10-31 16:09:00,65.3,60.3,29.69,SSE,166,7.0,9.0,84,0.01,,,0.02,VWS V14.01,2013-10-31 20:09:00,
2013-10-31 16:10:00,65.3,60.3,29.69,SSE,166,7.0,9.0,84,0.01,,,0.02,VWS V14.01,2013-10-31 20:10:00,
2013-10-31 16:11:00,65.4,60.5,29.69,SE,127,11.0,11.0,84,0.01,,,0.02,VWS V14.01,2013-10-31 20:11:00,
2013-10-31 16:12:00,65.4,60.5,29.69,South,176,14.0,15.0,84,0.01,,,0.02,VWS V14.01,2013-10-31 20:12:00,
2013-10-31 16:13:00,65.4,60.5,29.69,SW,214,5.0,14.0,84,0.01,,,0.02,VWS V14.01,2013-10-31 20:13:00,
2013-10-31 16:14:00,65.6,60.6,29.69,North,359,8.0,9.0,84,0.01,,,0.02,VWS V14.01,2013-10-31 20:14:00,
2013-10-31 16:15:00,65.6,60.6,29.69,North,359,8.0,9.0,84,0.01,,,0.02,VWS V14.01,2013-10-31 20:15:00,
2013-10-31 16:16:00,65.6,60.6,29.69,SSW,198,13.0,13.0,84,0.01,,,0.02,VWS V14.01,2013-10-31 20:16:00,
2013-10-31 16:17:00,65.6,60.6,29.69,ESE,120,10.0,17.0,84,0.01,,,0.02,VWS V14.01,2013-10-31 20:17:00,
2013-10-31 16:18:00,65.7,60.4,29.69,SSE,155,10.0,17.0,83,0.01,,,0.02,VWS V14.01,2013-10-31 20:18:00,
2013-10-31 16:19:00,65.8,60.5,29.69,SSE,159,6.0,10.0,83,0.01,,,0.02,VWS V14.01,2013-10-31 20:19:00,
2013-10-31 16:20:00,65.8,60.5,29.69,South,190,4.0,10.0,83,0.01,,,0.02,VWS V14.01,2013-10-31 20:20:00,
2013-10-31 16:21:00,65.9,60.9,29.69,West,269,8.0,11.0,84,0.01,,,0.02,VWS V14.01,2013-10-31 20:21:00,
2013-10-31 16:22:00,65.9,60.6,29.69,SSW,210,6.0,14.0,83,0.01,,,0.02,VWS V14.01,2013-10-31 20:22:00,
2013-10-31 16:23:00,65.9,60.6,29.69,SSW,198,10.0,10.0,83,0.01,,,0.02,VWS V14.01,2013-10-31 20:23:00,
2013-10-31 16:24:00,66.0,61.0,29.68,SSW,205,8.0,10.0,84,0.01,,,0.02,VWS V14.01,2013-10-31 20:24:00,
2013-10-31 16:25:00,66.0,61.0,29.68,SSW,205,8.0,10.0,84,0.01,,,0.02,VWS V14.01,2013-10-31 20:25:00,
2013-10-31 16:26:00,65.9,60.6,29.68,ESE,108,7.0,13.0,83,0.00,,,0.02,VWS V14.01,2013-10-31 20:26:00,
2013-10-31 16:27:00,66.0,60.7,29.68,SW,233,10.0,14.0,83,0.00,,,0.02,VWS V14.01,2013-10-31 20:27:00,
2013-10-31 16:28:00,66.0,60.7,29.69,SSE,167,5.0,10.0,83,0.00,,,0.02,VWS V14.01,2013-10-31 20:28:00,
2013-10-31 16:29:00,66.0,61.0,29.69,WSW,248,13.0,13.0,84,0.00,,,0.02,VWS V14.01,2013-10-31 20:29:00,
2013-10-31 16:30:00,66.0,60.7,29.68,SSW,211,11.0,13.0,83,0.00,,,0.02,VWS V14.01,2013-10-31 20:30:00,
2013-10-31 16:31:00,66.0,60.7,29.68,South,191,10.0,13.0,83,0.00,,,0.02,VWS V14.01,2013-10-31 20:31:00,
2013-10-31 16:32:00,66.0,60.7,29.68,SSW,211,6.0,10.0,83,0.00,,,0.02,VWS V14.01,2013-10-31 20:32:00,
2013-10-31 16:33:00,66.1,60.8,29.68,South,191,5.0,8.0,83,0.00,,,0.02,VWS V14.01,2013-10-31 20:33:00,
2013-10-31 16:34:00,66.0,61.0,29.68,SSE,166,7.0,11.0,84,0.00,,,0.02,VWS V14.01,2013-10-31 20:34:00,
2013-10-31 16:35:00,66.0,61.0,29.68,SSE,166,7.0,11.0,84,0.00,,,0.02,VWS V14.01,2013-10-31 20:35:00,
2013-10-31 16:36:00,66.0,60.7,29.68,WSW,243,12.0,12.0,83,0.00,,,0.02,VWS V14.01,2013-10-31 20:36:00,
2013-10-31 16:37:00,66.1,60.8,29.67,SSE,162,8.0,14.0,83,0.00,,,0.02,VWS V14.01,2013-10-31 20:37:00,
2013-10-31 16:38:00,66.1,60.8,29.67,South,169,9.0,11.0,83,0.00,,,0.02,VWS V14.01,2013-10-31 20:38:00,
2013-10-31 16:39:00,66.2,60.9,29.67,SSE,156,9.0,11.0,83,0.00,,,0.02,VWS V14.01,2013-10-31 20:39:00,
2013-10-31 16:40:00,66.2,60.9,29.67,SSE,157,8.0,11.0,83,0.00,,,0.02,VWS V14.01,2013-10-31 20:40:00,
2013-10-31 16:41:00,66.2,60.9,29.67,SSE,148,7.0,9.0,83,0.00,,,0.02,VWS V14.01,2013-10-31 20:41:00,
2013-10-31 16:42:00,66.2,60.9,29.67,South,183,5.0,8.0,83,0.00,,,0.02,VWS V14.01,2013-10-31 20:42:00,
2013-10-31 16:43:00,66.2,60.9,29.67,SSW,195,7.0,13.0,83,0.00,,,0.02,VWS V14.01,2013-10-31 20:43:00,
2013-10-31 16:44:00,66.2,60.9,29.67,SSW,212,4.0,7.0,83,0.00,,,0.02,VWS V14.01,2013-10-31 20:44:00,
2013-10-31 16:45:00,66.2,60.9,29.67,SSE,155,5.0,7.0,83,0.00,,,0.02,VWS V14.01,2013-10-31 20:45:00,
2013-10-31 16:46:00,66.2,60.9,29.67,South,172,14.0,14.0,83,0.00,,,0.02,VWS V14.01,2013-10-31 20:46:00,
2013-10-31 16:47:00,66.2,60.9,29.67,West,274,7.0,20.0,83,0.00,,,0.02,VWS V14.01,2013-10-31 20:47:00,
2013-10-31 16:48:00,66.2,60.9,29.67,SSE,149,13.0,16.0,83,0.00,,,0.02,VWS V14.01,2013-10-31 20:48:00,
2013-10-31 16:49:00,66.1,60.8,29.67,SE,141,9.0,16.0,83,0.00,,,0.02,VWS V14.01,2013-10-31 20:49:00,
2013-10-31 16:50:00,66.1,60.8,29.67,SSW,205,12.0,16.0,83,0.00,,,0.02,VWS V14.01,2013-10-31 20:50:00,
2013-10-31 16:51:00,66.2,60.9,29.67,South,172,5.0,12.0,83,0.00,,,0.02,VWS V14.01,2013-10-31 20:51:00,
2013-10-31 16:52:00,66.1,60.8,29.67,WSW,238,5.0,13.0,83,0.00,,,0.02,VWS V14.01,2013-10-31 20:52:00,
2013-10-31 16:53:00,66.1,60.8,29.67,SW,214,11.0,14.0,83,0.00,,,0.02,VWS V14.01,2013-10-31 20:53:00,
2013-10-31 16:54:00,66.1,60.8,29.67,South,190,6.0,18.0,83,0.00,,,0.02,VWS V14.01,2013-10-31 20:54:00,
2013-10-31 16:55:00,66.1,60.8,29.67,South,190,6.0,18.0,83,0.00,,,0.02,VWS V14.01,2013-10-31 20:55:00,
2013-10-31 16:56:00,66.1,60.8,29.67,WSW,239,13.0,13.0,83,0.00,,,0.02,VWS V14.01,2013-10-31 20:56:00,
2013-10-31 16:57:00,66.1,60.5,29.66,SSW,207,11.0,14.0,82,0.00,,,0.02,VWS V14.01,2013-10-31 20:57:00,
2013-10-31 16:58:00,66.1,60.5,29.66,SE,145,8.0,13.0,82,0.00,,,0.02,VWS V14.01,2013-10-31 20:58:00,
2013-10-31 16:59:00,66.1,60.5,29.66,WSW,243,7.0,15.0,82,0.00,,,0.02,VWS V14.01,2013-10-31 20:59:00,
2013-10-31 17:00:00,66.1,60.5,29.66,WSW,243,7.0,15.0,82,0.00,,,0.02,VWS V14.01,2013-10-31 21:00:00,
2013-10-31 17:01:00,66.2,60.9,29.66,South,172,9.0,9.0,83,0.00,,,0.02,VWS V14.01,2013-10-31 21:01:00,
2013-10-31 17:02:00,66.1,60.8,29.66,SW,214,4.0,9.0,83,0.00,,,0.02,VWS V14.01,2013-10-31 21:02:00,
2013-10-31 17:03:00,66.1,60.8,29.66,SW,219,11.0,12.0,83,0.00,,,0.02,VWS V14.01,2013-10-31 21:03:00,
2013-10-31 17:04:00,66.0,60.3,29.66,SSE,149,7.0,7.0,82,0.00,,,0.02,VWS V14.01,2013-10-31 21:04:00,
2013-10-31 17:05:00,66.0,60.7,29.67,SSE,153,7.0,14.0,83,0.00,,,0.02,VWS V14.01,2013-10-31 21:05:00,
2013-10-31 17:06:00,66.1,60.5,29.66,SE,125,4.0,13.0,82,0.00,,,0.02,VWS V14.01,2013-10-31 21:06:00,
2013-10-31 17:07:00,66.1,60.5,29.66,SSE,153,9.0,12.0,82,0.00,,,0.02,VWS V14.01,2013-10-31 21:07:00,
2013-10-31 17:08:00,66.1,60.5,29.66,SSE,155,7.0,10.0,82,0.00,,,0.02,VWS V14.01,2013-10-31 21:08:00,
2013-10-31 17:09:00,66.1,60.5,29.66,South,172,9.0,14.0,82,0.00,,,0.02,VWS V14.01,2013-10-31 21:09:00,
2013-10-31 17:10:00,66.1,60.5,29.66,NE,46,14.0,14.0,82,0.00,,,0.02,VWS V14.01,2013-10-31 21:10:00,
2013-10-31 17:11:00,66.1,60.5,29.66,SSW,210,14.0,14.0,82,0.00,,,0.02,VWS V14.01,2013-10-31 21:11:00,
2013-10-31 17:12:00,66.1,60.5,29.66,SSE,158,6.0,14.0,82,0.00,,,0.02,VWS V14.01,2013-10-31 21:12:00,
2013-10-31 17:13:00,66.2,60.5,29.66,West,269,2.0,9.0,82,0.00,,,0.02,VWS V14.01,2013-10-31 21:13:00,
2013-10-31 17:14:00,66.1,60.5,29.66,SSE,150,7.0,7.0,82,0.00,,,0.02,VWS V14.01,2013-10-31 21:14:00,
2013-10-31 17:15:00,66.1,60.5,29.65,South,187,6.0,10.0,82,0.00,,,0.02,VWS V14.01,2013-10-31 21:15:00,
2013-10-31 17:16:00,66.1,60.5,29.66,South,175,6.0,10.0,82,0.00,,,0.02,VWS V14.01,2013-10-31 21:16:00,
2013-10-31 17:17:00,66.1,60.5,29.65,South,191,9.0,15.0,82,0.00,,,0.02,VWS V14.01,2013-10-31 21:17:00,
2013-10-31 17:18:00,66.1,60.5,29.65,South,187,9.0,13.0,82,0.00,,,0.02,VWS V14.01,2013-10-31 21:18:00,
2013-10-31 17:19:00,66.1,60.5,29.65,SE,139,8.0,8.0,82,0.00,,,0.02,VWS V14.01,2013-10-31 21:19:00,
2013-10-31 17:20:00,66.1,60.5,29.65,South,177,4.0,12.0,82,0.00,,,0.02,VWS V14.01,2013-10-31 21:20:00,
2013-10-31 17:21:00,66.1,60.5,29.65,South,177,9.0,10.0,82,0.00,,,0.02,VWS V14.01,2013-10-31 21:21:00,
2013-10-31 17:22:00,66.1,60.5,29.65,SSE,151,8.0,14.0,82,0.00,,,0.02,VWS V14.01,2013-10-31 21:22:00,
2013-10-31 17:23:00,66.1,60.5,29.66,SSE,147,11.0,20.0,82,0.00,,,0.02,VWS V14.01,2013-10-31 21:23:00,
2013-10-31 17:24:00,66.2,60.5,29.66,SW,225,7.0,9.0,82,0.00,,,0.02,VWS V14.01,2013-10-31 21:24:00,
2013-10-31 17:25:00,66.2,60.5,29.66,SSE,153,9.0,11.0,82,0.00,,,0.02,VWS V14.01,2013-10-31 21:25:00,
2013-10-31 17:26:00,66.1,60.5,29.66,SSW,194,7.0,13.0,82,0.00,,,0.02,VWS V14.01,2013-10-31 21:26:00,
2013-10-31 17:27:00,66.1,60.5,29.65,South,181,6.0,11.0,82,0.00,,,0.02,VWS V14.01,2013-10-31 21:27:00,
2013-10-31 17:28:00,66.1,60.5,29.65,SE,129,9.0,11.0,82,0.00,,,0.02,VWS V14.01,2013-10-31 21:28:00,
2013-10-31 17:29:00,66.1,60.5,29.65,South,184,10.0,10.0,82,0.00,,,0.02,VWS V14.01,2013-10-31 21:29:00,
2013-10-31 17:30:00,66.1,60.5,29.65,SSE,162,6.0,11.0,82,0.00,,,0.02,VWS V14.01,2013-10-31 21:30:00,
2013-10-31 17:31:00,66.1,60.5,29.65,South,187,9.0,10.0,82,0.00,,,0.02,VWS V14.01,2013-10-31 21:31:00,
2013-10-31 17:32:00,66.1,60.5,29.65,SW,219,5.0,9.0,82,0.00,,,0.02,VWS V14.01,2013-10-31 21:32:00,
2013-10-31 17:33:00,66.1,60.5,29.65,SSE,148,11.0,13.0,82,0.00,,,0.02,VWS V14.01,2013-10-31 21:33:00,
2013-10-31 17:34:00,66.1,60.5,29.65,SSW,212,10.0,11.0,82,0.00,,,0.02,VWS V14.01,2013-10-31 21:34:00,
2013-10-31 17:35:00,66.1,60.5,29.65,South,187,11.0,11.0,82,0.00,,,0.02,VWS V14.01,2013-10-31 21:35:00,
2013-10-31 17:36:00,66.1,60.5,29.65,SE,145,12.0,13.0,82,0.00,,,0.02,VWS V14.01,2013-10-31 21:36:00,
2013-10-31 17:37:00,66.1,60.5,29.65,SSW,198,7.0,13.0,82,0.00,,,0.02,VWS V14.01,2013-10-31 21:37:00,
2013-10-31 17:38:00,66.1,60.5,29.64,SSE,161,8.0,13.0,82,0.00,,,0.02,VWS V14.01,2013-10-31 21:38:00,
2013-10-31 17:39:00,66.1,60.5,29.64,South,173,6.0,13.0,82,0.00,,,0.02,VWS V14.01,2013-10-31 21:39:00,
2013-10-31 17:40:00,66.1,60.5,29.64,South,173,6.0,13.0,82,0.00,,,0.02,VWS V14.01,2013-10-31 21:40:00,
2013-10-31 17:41:00,66.0,60.3,29.64,South,190,5.0,14.0,82,0.00,,,0.02,VWS V14.01,2013-10-31 21:41:00,
2013-10-31 17:42:00,66.0,60.3,29.65,ESE,106,9.0,20.0,82,0.00,,,0.02,VWS V14.01,2013-10-31 21:42:00,
2013-10-31 17:43:00,66.0,60.3,29.64,SSE,167,9.0,11.0,82,0.00,,,0.02,VWS V14.01,2013-10-31 21:43:00,
2013-10-31 17:44:00,66.0,60.3,29.64,South,179,5.0,15.0,82,0.00,,,0.02,VWS V14.01,2013-10-31 21:44:00,
2013-10-31 17:45:00,66.0,60.3,29.64,South,179,5.0,15.0,82,0.00,,,0.02,VWS V14.01,2013-10-31 21:45:00,
2013-10-31 17:46:00,66.0,60.3,29.64,ESE,110,5.0,12.0,82,0.00,,,0.02,VWS V14.01,2013-10-31 21:46:00,
2013-10-31 17:47:00,66.0,60.3,29.64,SW,223,4.0,10.0,82,0.00,,,0.02,VWS V14.01,2013-10-31 21:47:00,
2013-10-31 17:48:00,66.0,60.3,29.64,SSW,211,7.0,8.0,82,0.00,,,0.02,VWS V14.01,2013-10-31 21:48:00,
2013-10-31 17:49:00,66.0,60.3,29.64,South,169,6.0,11.0,82,0.00,,,0.02,VWS V14.01,2013-10-31 21:49:00,
2013-10-31 17:50:00,66.0,60.3,29.64,South,169,6.0,11.0,82,0.00,,,0.02,VWS V14.01,2013-10-31 21:50:00,
2013-10-31 17:51:00,65.9,60.3,29.64,SSE,159,8.0,14.0,82,0.00,,,0.02,VWS V14.01,2013-10-31 21:51:00,
2013-10-31 17:52:00,65.9,60.3,29.64,South,176,5.0,16.0,82,0.00,,,0.02,VWS V14.01,2013-10-31 21:52:00,
2013-10-31 17:53:00,65.9,60.3,29.64,WSW,254,6.0,14.0,82,0.00,,,0.02,VWS V14.01,2013-10-31 21:53:00,
2013-10-31 17:54:00,65.9,60.3,29.64,South,191,12.0,13.0,82,0.00,,,0.02,VWS V14.01,2013-10-31 21:54:00,
2013-10-31 17:55:00,65.9,60.3,29.64,South,191,12.0,13.0,82,0.00,,,0.02,VWS V14.01,2013-10-31 21:55:00,
2013-10-31 17:56:00,65.9,60.3,29.64,South,173,5.0,13.0,82,0.00,,,0.02,VWS V14.01,2013-10-31 21:56:00,
2013-10-31 17:57:00,65.9,60.6,29.64,SSE,158,7.0,11.0,83,0.00,,,0.02,VWS V14.01,2013-10-31 21:57:00,
2013-10-31 17:58:00,65.8,60.5,29.64,South,179,9.0,9.0,83,0.00,,,0.02,VWS V14.01,2013-10-31 21:58:00,
2013-10-31 17:59:00,65.8,60.5,29.64,South,170,8.0,9.0,83,0.00,,,0.02,VWS V14.01,2013-10-31 21:59:00,
2013-10-31 18:00:00,65.8,60.5,29.64,SSW,201,7.0,9.0,83,0.00,,,0.02,VWS V14.01,2013-10-31 22:00:00,
2013-10-31 18:01:00,65.7,60.4,29.64,SSW,198,8.0,11.0,83,0.00,,,0.02,VWS V14.01,2013-10-31 22:01:00,
2013-10-31 18:02:00,65.7,60.4,29.64,South,184,6.0,13.0,83,0.00,,,0.02,VWS V14.01,2013-10-31 22:02:00,
2013-10-31 18:03:00,65.6,60.3,29.64,SSE,163,6.0,12.0,83,0.00,,,0.02,VWS V14.01,2013-10-31 22:03:00,
2013-10-31 18:04:00,65.5,60.5,29.63,South,173,7.0,11.0,84,0.00,,,0.02,VWS V14.01,2013-10-31 22:04:00,
2013-10-31 18:05:00,65.5,60.5,29.63,South,173,7.0,11.0,84,0.00,,,0.02,VWS V14.01,2013-10-31 22:05:00,
2013-10-31 18:06:00,65.5,60.5,29.63,SSW,200,7.0,7.0,84,0.00,,,0.02,VWS V14.01,2013-10-31 22:06:00,
2013-10-31 18:07:00,65.5,60.5,29.63,South,184,10.0,10.0,84,0.00,,,0.02,VWS V14.01,2013-10-31 22:07:00,
2013-10-31 18:08:00,65.4,60.5,29.63,South,191,3.0,12.0,84,0.00,,,0.02,VWS V14.01,2013-10-31 22:08:00,
2013-10-31 18:09:00,65.3,60.7,29.63,SSE,153,4.0,10.0,85,0.01,,,0.03,VWS V14.01,2013-10-31 22:09:00,
2013-10-31 18:10:00,65.3,60.7,29.63,SSE,153,4.0,10.0,85,0.01,,,0.03,VWS V14.01,2013-10-31 22:10:00,
2013-10-31 18:11:00,65.2,60.2,29.63,South,181,8.0,10.0,84,0.01,,,0.03,VWS V14.01,2013-10-31 22:11:00,
2013-10-31 18:12:00,65.2,60.6,29.63,SSW,211,7.0,13.0,85,0.01,,,0.03,VWS V14.01,2013-10-31 22:12:00,
2013-10-31 18:13:00,65.2,60.6,29.63,SSE,161,7.0,10.0,85,0.01,,,0.03,VWS V14.01,2013-10-31 22:13:00,
2013-10-31 18:14:00,65.1,60.5,29.63,SSE,155,3.0,9.0,85,0.01,,,0.03,VWS V14.01,2013-10-31 22:14:00,
2013-10-31 18:15:00,65.1,60.5,29.63,SSE,155,3.0,9.0,85,0.01,,,0.03,VWS V14.01,2013-10-31 22:15:00,
2013-10-31 18:16:00,65.1,60.5,29.63,SSW,195,12.0,12.0,85,0.01,,,0.03,VWS V14.01,2013-10-31 22:16:00,
2013-10-31 18:17:00,65.1,60.5,29.63,SSW,197,3.0,14.0,85,0.01,,,0.03,VWS V14.01,2013-10-31 22:17:00,
2013-10-31 18:18:00,65.1,60.5,29.62,South,183,8.0,11.0,85,0.01,,,0.03,VWS V14.01,2013-10-31 22:18:00,
2013-10-31 18:19:00,65.0,60.4,29.62,South,179,8.0,12.0,85,0.01,,,0.03,VWS V14.01,2013-10-31 22:19:00,
2013-10-31 18:20:00,65.0,60.4,29.62,South,179,8.0,12.0,85,0.01,,,0.03,VWS V14.01,2013-10-31 22:20:00,
2013-10-31 18:21:00,65.0,60.4,29.62,SSW,195,4.0,9.0,85,0.01,,,0.03,VWS V14.01,2013-10-31 22:21:00,
2013-10-31 18:22:00,65.0,60.4,29.62,SSE,163,6.0,13.0,85,0.01,,,0.03,VWS V14.01,2013-10-31 22:22:00,
2013-10-31 18:23:00,64.9,60.3,29.62,South,177,6.0,9.0,85,0.01,,,0.03,VWS V14.01,2013-10-31 22:23:00,
2013-10-31 18:24:00,64.9,60.6,29.62,South,170,5.0,7.0,86,0.01,,,0.03,VWS V14.01,2013-10-31 22:24:00,
2013-10-31 18:25:00,64.9,60.6,29.62,South,170,5.0,7.0,86,0.01,,,0.03,VWS V14.01,2013-10-31 22:25:00,
2013-10-31 18:26:00,64.9,60.6,29.62,ESE,121,5.0,11.0,86,0.01,,,0.03,VWS V14.01,2013-10-31 22:26:00,
2013-10-31 18:27:00,64.8,60.5,29.62,WSW,249,15.0,15.0,86,0.01,,,0.03,VWS V14.01,2013-10-31 22:27:00,
2013-10-31 18:28:00,64.8,60.5,29.62,SSW,205,6.0,15.0,86,0.01,,,0.03,VWS V14.01,2013-10-31 22:28:00,
2013-10-31 18:29:00,64.9,60.6,29.61,SW,226,6.0,9.0,86,0.01,,,0.03,VWS V14.01,2013-10-31 22:29:00,
2013-10-31 18:30:00,64.9,60.6,29.61,SW,226,6.0,9.0,86,0.01,,,0.03,VWS V14.01,2013-10-31 22:30:00,
2013-10-31 18:31:00,64.9,60.6,29.61,SSE,164,8.0,10.0,86,0.01,,,0.03,VWS V14.01,2013-10-31 22:31:00,
2013-10-31 18:32:00,64.9,60.3,29.61,SSE,153,7.0,11.0,85,0.01,,,0.03,VWS V14.01,2013-10-31 22:32:00,
2013-10-31 18:33:00,64.9,60.3,29.61,ESE,119,4.0,7.0,85,0.01,,,0.03,VWS V14.01,2013-10-31 22:33:00,
2013-10-31 18:34:00,65.0,60.4,29.61,South,184,4.0,9.0,85,0.01,,,0.03,VWS V14.01,2013-10-31 22:34:00,
2013-10-31 18:35:00,65.0,60.4,29.61,South,184,4.0,9.0,85,0.01,,,0.03,VWS V14.01,2013-10-31 22:35:00,
2013-10-31 18:36:00,65.0,60.4,29.61,SSE,162,7.0,11.0,85,0.01,,,0.03,VWS V14.01,2013-10-31 22:36:00,
2013-10-31 18:37:00,65.0,60.4,29.61,SSE,159,13.0,15.0,85,0.01,,,0.03,VWS V14.01,2013-10-31 22:37:00,
2013-10-31 18:38:00,65.1,60.5,29.61,SSE,162,8.0,13.0,85,0.01,,,0.03,VWS V14.01,2013-10-31 22:38:00,
2013-10-31 18:39:00,65.2,60.6,29.60,SE,146,10.0,10.0,85,0.01,,,0.03,VWS V14.01,2013-10-31 22:39:00,
2013-10-31 18:40:00,65.2,60.6,29.60,SE,146,10.0,10.0,85,0.01,,,0.03,VWS V14.01,2013-10-31 22:40:00,
2013-10-31 18:41:00,65.2,60.6,29.60,South,169,6.0,10.0,85,0.01,,,0.03,VWS V14.01,2013-10-31 22:41:00,
2013-10-31 18:42:00,65.3,60.7,29.60,SSE,152,7.0,7.0,85,0.01,,,0.03,VWS V14.01,2013-10-31 22:42:00,
2013-10-31 18:43:00,65.3,60.3,29.60,SSE,152,5.0,13.0,84,0.01,,,0.03,VWS V14.01,2013-10-31 22:43:00,
2013-10-31 18:44:00,65.3,60.3,29.60,SSE,149,5.0,8.0,84,0.01,,,0.03,VWS V14.01,2013-10-31 22:44:00,
2013-10-31 18:45:00,65.3,60.3,29.60,SSE,149,5.0,8.0,84,0.01,,,0.03,VWS V14.01,2013-10-31 22:45:00,
2013-10-31 18:46:00,65.4,60.5,29.60,South,176,5.0,9.0,84,0.01,,,0.03,VWS V14.01,2013-10-31 22:46:00,
2013-10-31 18:47:00,65.4,60.5,29.60,SE,140,5.0,8.0,84,0.01,,,0.03,VWS V14.01,2013-10-31 22:47:00,
2013-10-31 18:48:00,65.4,60.5,29.60,South,175,10.0,14.0,84,0.01,,,0.03,VWS V14.01,2013-10-31 22:48:00,
2013-10-31 18:49:00,65.4,60.5,29.60,SSE,153,6.0,7.0,84,0.01,,,0.03,VWS V14.01,2013-10-31 22:49:00,
2013-10-31 18:50:00,65.4,60.5,29.60,SSW,193,5.0,7.0,84,0.01,,,0.03,VWS V14.01,2013-10-31 22:50:00,
2013-10-31 18:51:00,65.5,60.5,29.59,South,181,7.0,12.0,84,0.01,,,0.03,VWS V14.01,2013-10-31 22:51:00,
2013-10-31 18:52:00,65.5,60.5,29.59,SE,146,8.0,10.0,84,0.01,,,0.03,VWS V14.01,2013-10-31 22:52:00,
2013-10-31 18:53:00,65.6,60.6,29.59,WSW,243,7.0,11.0,84,0.01,,,0.03,VWS V14.01,2013-10-31 22:53:00,
2013-10-31 18:54:00,65.6,60.6,29.59,SSE,167,7.0,12.0,84,0.01,,,0.03,VWS V14.01,2013-10-31 22:54:00,
2013-10-31 18:55:00,65.6,60.6,29.59,SSW,212,7.0,12.0,84,0.01,,,0.03,VWS V14.01,2013-10-31 22:55:00,
2013-10-31 18:56:00,65.6,60.6,29.58,SSW,201,5.0,13.0,84,0.01,,,0.03,VWS V14.01,2013-10-31 22:56:00,
2013-10-31 18:57:00,65.6,60.6,29.58,SSE,149,7.0,14.0,84,0.01,,,0.03,VWS V14.01,2013-10-31 22:57:00,
2013-10-31 18:58:00,65.7,60.7,29.58,SSW,197,4.0,9.0,84,0.01,,,0.03,VWS V14.01,2013-10-31 22:58:00,
2013-10-31 18:59:00,65.7,60.7,29.58,South,181,10.0,10.0,84,0.01,,,0.03,VWS V14.01,2013-10-31 22:59:00,
2013-10-31 19:00:00,65.7,60.7,29.58,South,174,18.0,18.0,84,0.01,,,0.03,VWS V14.01,2013-10-31 23:00:00,
2013-10-31 19:01:00,65.8,60.5,29.58,SSW,210,7.0,18.0,83,0.01,,,0.03,VWS V14.01,2013-10-31 23:01:00,
2013-10-31 19:02:00,65.9,60.6,29.57,SSE,156,9.0,12.0,83,0.01,,,0.03,VWS V14.01,2013-10-31 23:02:00,
2013-10-31 19:03:00,66.0,60.7,29.57,South,170,7.0,13.0,83,0.01,,,0.03,VWS V14.01,2013-10-31 23:03:00,
2013-10-31 19:04:00,66.1,60.8,29.57,SE,144,7.0,11.0,83,0.01,,,0.03,VWS V14.01,2013-10-31 23:04:00,
2013-10-31 19:05:00,66.1,60.8,29.57,SE,128,7.0,11.0,83,0.01,,,0.03,VWS V14.01,2013-10-31 23:05:00,
2013-10-31 19:06:00,66.2,60.9,29.57,South,191,5.0,10.0,83,0.01,,,0.03,VWS V14.01,2013-10-31 23:06:00,
2013-10-31 19:07:00,66.2,60.9,29.57,SSW,203,4.0,11.0,83,0.01,,,0.03,VWS V14.01,2013-10-31 23:07:00,
2013-10-31 19:08:00,66.2,60.5,29.57,SSW,207,7.0,12.0,82,0.01,,,0.03,VWS V14.01,2013-10-31 23:08:00,
2013-10-31 19:09:00,66.3,60.7,29.57,South,189,3.0,11.0,82,0.01,,,0.03,VWS V14.01,2013-10-31 23:09:00,
2013-10-31 19:10:00,66.3,60.7,29.57,South,189,3.0,11.0,82,0.01,,,0.03,VWS V14.01,2013-10-31 23:10:00,
2013-10-31 19:11:00,66.3,60.7,29.57,SSW,193,7.0,10.0,82,0.00,,,0.03,VWS V14.01,2013-10-31 23:11:00,
2013-10-31 19:12:00,66.4,60.7,29.57,SSW,205,6.0,10.0,82,0.00,,,0.03,VWS V14.01,2013-10-31 23:12:00,
2013-10-31 19:13:00,66.4,60.7,29.57,SSE,159,7.0,18.0,82,0.00,,,0.03,VWS V14.01,2013-10-31 23:13:00,
2013-10-31 19:14:00,66.4,60.7,29.57,SSW,210,11.0,11.0,82,0.00,,,0.03,VWS V14.01,2013-10-31 23:14:00,
2013-10-31 19:15:00,66.4,60.7,29.57,SSW,204,9.0,11.0,82,0.00,,,0.03,VWS V14.01,2013-10-31 23:15:00,
2013-10-31 19:16:00,66.4,60.7,29.57,South,169,9.0,11.0,82,0.00,,,0.03,VWS V14.01,2013-10-31 23:16:00,
2013-10-31 19:17:00,66.5,60.8,29.56,South,172,7.0,13.0,82,0.00,,,0.03,VWS V14.01,2013-10-31 23:17:00,
2013-10-31 19:18:00,66.5,60.8,29.57,SSW,205,5.0,11.0,82,0.00,,,0.03,VWS V14.01,2013-10-31 23:18:00,
2013-10-31 19:19:00,66.5,60.8,29.57,SW,229,9.0,15.0,82,0.00,,,0.03,VWS V14.01,2013-10-31 23:19:00,
2013-10-31 19:20:00,66.5,60.8,29.57,SW,229,9.0,15.0,82,0.00,,,0.03,VWS V14.01,2013-10-31 23:20:00,
2013-10-31 19:21:00,66.5,60.8,29.57,South,191,11.0,14.0,82,0.00,,,0.03,VWS V14.01,2013-10-31 23:21:00,
2013-10-31 19:22:00,66.5,61.2,29.57,SE,143,8.0,14.0,83,0.00,,,0.03,VWS V14.01,2013-10-31 23:22:00,
2013-10-31 19:23:00,66.5,61.2,29.57,SSE,165,5.0,15.0,83,0.00,,,0.03,VWS V14.01,2013-10-31 23:23:00,
2013-10-31 19:24:00,66.5,61.2,29.57,SSE,150,8.0,11.0,83,0.00,,,0.03,VWS V14.01,2013-10-31 23:24:00,
2013-10-31 19:25:00,66.5,61.2,29.57,SSE,150,8.0,11.0,83,0.00,,,0.03,VWS V14.01,2013-10-31 23:25:00,
2013-10-31 19:26:00,66.5,61.2,29.57,South,175,5.0,9.0,83,0.00,,,0.03,VWS V14.01,2013-10-31 23:26:00,
2013-10-31 19:27:00,66.5,61.2,29.57,South,190,6.0,9.0,83,0.00,,,0.03,VWS V14.01,2013-10-31 23:27:00,
2013-10-31 19:28:00,66.5,61.2,29.57,SSE,165,14.0,14.0,83,0.00,,,0.03,VWS V14.01,2013-10-31 23:28:00,
2013-10-31 19:29:00,66.5,61.2,29.57,SSE,152,8.0,16.0,83,0.00,,,0.03,VWS V14.01,2013-10-31 23:29:00,
2013-10-31 19:30:00,66.5,61.2,29.57,South,186,11.0,16.0,83,0.00,,,0.03,VWS V14.01,2013-10-31 23:30:00,
2013-10-31 19:31:00,66.6,61.3,29.56,NW,308,16.0,17.0,83,0.00,,,0.03,VWS V14.01,2013-10-31 23:31:00,
2013-10-31 19:32:00,66.6,61.3,29.57,SSE,162,7.0,16.0,83,0.00,,,0.03,VWS V14.01,2013-10-31 23:32:00,
2013-10-31 19:33:00,66.6,61.3,29.57,SSW,207,14.0,17.0,83,0.00,,,0.03,VWS V14.01,2013-10-31 23:33:00,
2013-10-31 19:34:00,66.7,61.4,29.57,SSE,148,5.0,16.0,83,0.00,,,0.03,VWS V14.01,2013-10-31 23:34:00,
2013-10-31 19:35:00,66.7,61.4,29.57,ESE,121,13.0,16.0,83,0.00,,,0.03,VWS V14.01,2013-10-31 23:35:00,
2013-10-31 19:36:00,66.7,61.4,29.57,West,266,3.0,13.0,83,0.00,,,0.03,VWS V14.01,2013-10-31 23:36:00,
2013-10-31 19:37:00,66.7,61.4,29.57,WSW,239,5.0,10.0,83,0.00,,,0.03,VWS V14.01,2013-10-31 23:37:00,
2013-10-31 19:38:00,66.6,61.3,29.57,SSW,205,15.0,15.0,83,0.00,,,0.03,VWS V14.01,2013-10-31 23:38:00,
2013-10-31 19:39:00,66.6,61.3,29.57,SSE,148,2.0,11.0,83,0.00,,,0.03,VWS V14.01,2013-10-31 23:39:00,
2013-10-31 19:40:00,66.6,61.3,29.57,SE,134,6.0,11.0,83,0.00,,,0.03,VWS V14.01,2013-10-31 23:40:00,
2013-10-31 19:41:00,66.6,61.3,29.57,SSW,207,6.0,10.0,83,0.00,,,0.03,VWS V14.01,2013-10-31 23:41:00,
2013-10-31 19:42:00,66.6,61.3,29.57,SSE,153,8.0,16.0,83,0.00,,,0.03,VWS V14.01,2013-10-31 23:42:00,
2013-10-31 19:43:00,66.6,61.3,29.57,WSW,257,8.0,18.0,83,0.00,,,0.03,VWS V14.01,2013-10-31 23:43:00,
2013-10-31 19:44:00,66.6,61.3,29.56,SSW,211,11.0,15.0,83,0.00,,,0.03,VWS V14.01,2013-10-31 23:44:00,
2013-10-31 19:45:00,66.6,61.3,29.57,SSE,165,7.0,15.0,83,0.00,,,0.03,VWS V14.01,2013-10-31 23:45:00,
2013-10-31 19:46:00,66.6,61.3,29.57,South,180,9.0,15.0,83,0.00,,,0.03,VWS V14.01,2013-10-31 23:46:00,
2013-10-31 19:47:00,66.6,61.3,29.57,SSE,165,13.0,22.0,83,0.00,,,0.03,VWS V14.01,2013-10-31 23:47:00,
2013-10-31 19:48:00,66.6,61.3,29.57,SSW,200,4.0,17.0,83,0.00,,,0.03,VWS V14.01,2013-10-31 23:48:00,
2013-10-31 19:49:00,66.6,61.3,29.56,SSE,162,10.0,17.0,83,0.00,,,0.03,VWS V14.01,2013-10-31 23:49:00,
2013-10-31 19:50:00,66.6,61.3,29.56,SSE,167,7.0,17.0,83,0.00,,,0.03,VWS V14.01,2013-10-31 23:50:00,
2013-10-31 19:51:00,66.6,61.3,29.57,SSW,194,7.0,14.0,83,0.00,,,0.03,VWS V14.01,2013-10-31 23:51:00,
2013-10-31 19:52:00,66.6,61.3,29.57,WSW,246,7.0,7.0,83,0.00,,,0.03,VWS V14.01,2013-10-31 23:52:00,
2013-10-31 19:53:00,66.6,61.3,29.56,SSE,153,8.0,15.0,83,0.00,,,0.03,VWS V14.01,2013-10-31 23:53:00,
2013-10-31 19:54:00,66.6,61.3,29.56,SSE,167,9.0,15.0,83,0.00,,,0.03,VWS V14.01,2013-10-31 23:54:00,
2013-10-31 19:55:00,66.6,61.3,29.56,South,190,11.0,15.0,83,0.00,,,0.03,VWS V14.01,2013-10-31 23:55:00,
2013-10-31 19:56:00,66.7,61.4,29.55,SSE,151,9.0,17.0,83,0.00,,,0.03,VWS V14.01,2013-10-31 23:56:00,
2013-10-31 19:57:00,66.6,61.3,29.55,SSE,165,4.0,10.0,83,0.00,,,0.03,VWS V14.01,2013-10-31 23:57:00,
2013-10-31 19:58:00,66.6,61.3,29.55,ENE,75,9.0,9.0,83,0.00,,,0.03,VWS V14.01,2013-10-31 23:58:00,
2013-10-31 19:59:00,66.6,61.3,29.55,SE,139,7.0,10.0,83,0.00,,,0.03,VWS V14.01,2013-10-31 23:59:00,
2013-10-31 20:00:00,66.6,61.3,29.55,SE,124,13.0,13.0,83,0.00,,,0.03,VWS V14.01,2013-11-01 00:00:00,
2013-10-31 20:01:00,66.6,61.3,29.54,SSE,149,11.0,21.0,83,0.00,,,0.03,VWS V14.01,2013-11-01 00:01:00,
2013-10-31 20:02:00,66.6,61.3,29.55,SSE,158,12.0,13.0,83,0.00,,,0.03,VWS V14.01,2013-11-01 00:02:00,
2013-10-31 20:03:00,66.6,61.3,29.55,SW,222,8.0,12.0,83,0.00,,,0.03,VWS V14.01,2013-11-01 00:03:00,
2013-10-31 20:04:00,66.6,61.3,29.54,WSW,243,10.0,10.0,83,0.00,,,0.03,VWS V14.01,2013-11-01 00:04:00,
2013-10-31 20:05:00,66.6,61.3,29.54,SE,141,15.0,15.0,83,0.00,,,0.03,VWS V14.01,2013-11-01 00:05:00,
2013-10-31 20:06:00,66.6,61.3,29.55,ESE,110,10.0,18.0,83,0.00,,,0.03,VWS V14.01,2013-11-01 00:06:00,
2013-10-31 20:07:00,66.6,61.3,29.55,ESE,122,6.0,11.0,83,0.00,,,0.03,VWS V14.01,2013-11-01 00:07:00,
2013-10-31 20:08:00,66.6,61.3,29.55,SSW,193,8.0,11.0,83,0.00,,,0.03,VWS V14.01,2013-11-01 00:08:00,
2013-10-31 20:09:00,66.6,61.3,29.55,SSE,163,8.0,12.0,83,0.00,,,0.03,VWS V14.01,2013-11-01 00:09:00,
2013-10-31 20:10:00,66.6,61.3,29.55,South,184,7.0,12.0,83,0.00,,,0.03,VWS V14.01,2013-11-01 00:10:00,
2013-10-31 20:11:00,66.6,61.3,29.55,SSE,160,7.0,15.0,83,0.00,,,0.03,VWS V14.01,2013-11-01 00:11:00,
2013-10-31 20:12:00,66.5,61.5,29.54,SW,215,7.0,11.0,84,0.00,,,0.03,VWS V14.01,2013-11-01 00:12:00,
2013-10-31 20:13:00,66.5,61.5,29.54,South,173,8.0,15.0,84,0.00,,,0.03,VWS V14.01,2013-11-01 00:13:00,
2013-10-31 20:14:00,66.5,61.5,29.54,East,87,7.0,12.0,84,0.00,,,0.03,VWS V14.01,2013-11-01 00:14:00,
2013-10-31 20:15:00,66.5,61.5,29.54,SSE,158,8.0,12.0,84,0.00,,,0.03,VWS V14.01,2013-11-01 00:15:00,
2013-10-31 20:16:00,66.5,61.5,29.54,South,173,11.0,14.0,84,0.00,,,0.03,VWS V14.01,2013-11-01 00:16:00,
2013-10-31 20:17:00,66.5,61.5,29.55,SW,214,6.0,17.0,84,0.00,,,0.03,VWS V14.01,2013-11-01 00:17:00,
2013-10-31 20:18:00,66.5,61.5,29.55,SSW,201,9.0,9.0,84,0.00,,,0.03,VWS V14.01,2013-11-01 00:18:00,
2013-10-31 20:19:00,66.6,61.6,29.55,East,92,7.0,12.0,84,0.00,,,0.03,VWS V14.01,2013-11-01 00:19:00,
2013-10-31 20:20:00,66.6,61.6,29.55,SSE,157,5.0,12.0,84,0.00,,,0.03,VWS V14.01,2013-11-01 00:20:00,
2013-10-31 20:21:00,66.6,61.3,29.55,SSE,165,9.0,16.0,83,0.00,,,0.03,VWS V14.01,2013-11-01 00:21:00,
2013-10-31 20:22:00,66.6,61.3,29.54,South,176,14.0,14.0,83,0.00,,,0.03,VWS V14.01,2013-11-01 00:22:00,
2013-10-31 20:23:00,66.7,61.4,29.55,SSW,207,3.0,14.0,83,0.00,,,0.03,VWS V14.01,2013-11-01 00:23:00,
2013-10-31 20:24:00,66.6,61.3,29.54,SSE,155,10.0,14.0,83,0.00,,,0.03,VWS V14.01,2013-11-01 00:24:00,
2013-10-31 20:25:00,66.6,61.3,29.54,WSW,248,4.0,14.0,83,0.00,,,0.03,VWS V14.01,2013-11-01 00:25:00,
2013-10-31 20:26:00,66.7,61.4,29.54,SE,138,11.0,18.0,83,0.00,,,0.03,VWS V14.01,2013-11-01 00:26:00,
2013-10-31 20:27:00,66.7,61.4,29.54,South,170,9.0,15.0,83,0.00,,,0.03,VWS V14.01,2013-11-01 00:27:00,
2013-10-31 20:28:00,66.7,61.4,29.54,South,183,11.0,12.0,83,0.00,,,0.03,VWS V14.01,2013-11-01 00:28:00,
2013-10-31 20:29:00,66.7,61.4,29.54,WSW,253,16.0,16.0,83,0.00,,,0.03,VWS V14.01,2013-11-01 00:29:00,
2013-10-31 20:30:00,66.7,61.4,29.54,South,183,11.0,16.0,83,0.00,,,0.03,VWS V14.01,2013-11-01 00:30:00,
2013-10-31 20:31:00,66.7,61.4,29.54,ESE,119,11.0,16.0,83,0.00,,,0.03,VWS V14.01,2013-11-01 00:31:00,
2013-10-31 20:32:00,66.8,61.5,29.54,SSW,211,8.0,11.0,83,0.00,,,0.03,VWS V14.01,2013-11-01 00:32:00,
2013-10-31 20:33:00,66.8,61.5,29.54,SSE,153,10.0,10.0,83,0.00,,,0.03,VWS V14.01,2013-11-01 00:33:00,
2013-10-31 20:34:00,66.8,61.5,29.54,South,184,6.0,9.0,83,0.00,,,0.03,VWS V14.01,2013-11-01 00:34:00,
2013-10-31 20:35:00,66.8,61.5,29.54,SW,220,10.0,10.0,83,0.00,,,0.03,VWS V14.01,2013-11-01 00:35:00,
2013-10-31 20:36:00,66.8,61.5,29.54,South,176,7.0,12.0,83,0.00,,,0.03,VWS V14.01,2013-11-01 00:36:00,
2013-10-31 20:37:00,66.8,61.5,29.54,South,176,13.0,13.0,83,0.00,,,0.03,VWS V14.01,2013-11-01 00:37:00,
2013-10-31 20:38:00,66.8,61.5,29.54,ESE,119,6.0,13.0,83,0.00,,,0.03,VWS V14.01,2013-11-01 00:38:00,
2013-10-31 20:39:00,66.8,61.5,29.54,SSE,148,8.0,11.0,83,0.00,,,0.03,VWS V14.01,2013-11-01 00:39:00,
2013-10-31 20:40:00,66.8,61.5,29.54,South,184,11.0,11.0,83,0.00,,,0.03,VWS V14.01,2013-11-01 00:40:00,
2013-10-31 20:41:00,66.8,61.5,29.54,SE,145,8.0,11.0,83,0.00,,,0.03,VWS V14.01,2013-11-01 00:41:00,
2013-10-31 20:42:00,66.7,61.4,29.54,South,170,9.0,13.0,83,0.00,,,0.03,VWS V14.01,2013-11-01 00:42:00,
2013-10-31 20:43:00,66.7,61.4,29.54,WSW,252,9.0,9.0,83,0.00,,,0.03,VWS V14.01,2013-11-01 00:43:00,
2013-10-31 20:44:00,66.7,61.4,29.54,South,184,7.0,7.0,83,0.00,,,0.03,VWS V14.01,2013-11-01 00:44:00,
2013-10-31 20:45:00,66.7,61.4,29.54,SSE,149,6.0,7.0,83,0.00,,,0.03,VWS V14.01,2013-11-01 00:45:00,
2013-10-31 20:46:00,66.7,61.4,29.54,SW,215,14.0,14.0,83,0.00,,,0.03,VWS V14.01,2013-11-01 00:46:00,
2013-10-31 20:47:00,66.8,61.5,29.54,SSE,162,12.0,14.0,83,0.00,,,0.03,VWS V14.01,2013-11-01 00:47:00,
2013-10-31 20:48:00,66.8,61.5,29.53,SSE,150,8.0,16.0,83,0.00,,,0.03,VWS V14.01,2013-11-01 00:48:00,
2013-10-31 20:49:00,67.1,61.4,29.53,SSW,207,12.0,13.0,82,0.00,,,0.03,VWS V14.01,2013-11-01 00:49:00,
2013-10-31 20:50:00,67.1,61.4,29.53,SSE,153,7.0,13.0,82,0.00,,,0.03,VWS V14.01,2013-11-01 00:50:00,
2013-10-31 20:51:00,67.1,61.4,29.53,SSE,148,16.0,18.0,82,0.00,,,0.03,VWS V14.01,2013-11-01 00:51:00,
2013-10-31 20:52:00,67.2,61.5,29.53,South,191,5.0,16.0,82,0.00,,,0.03,VWS V14.01,2013-11-01 00:52:00,
2013-10-31 20:53:00,67.3,61.6,29.53,SE,143,8.0,18.0,82,0.00,,,0.03,VWS V14.01,2013-11-01 00:53:00,
2013-10-31 20:54:00,67.5,61.5,29.53,ESE,115,9.0,21.0,81,0.00,,,0.03,VWS V14.01,2013-11-01 00:54:00,
2013-10-31 20:55:00,67.5,61.5,29.53,South,183,5.0,21.0,81,0.00,,,0.03,VWS V14.01,2013-11-01 00:55:00,
2013-10-31 20:56:00,67.6,61.6,29.53,SSW,207,10.0,19.0,81,0.00,,,0.03,VWS V14.01,2013-11-01 00:56:00,
2013-10-31 20:57:00,67.7,61.7,29.53,South,191,7.0,12.0,81,0.00,,,0.03,VWS V14.01,2013-11-01 00:57:00,
2013-10-31 20:58:00,67.8,61.8,29.53,NNW,344,7.0,11.0,81,0.00,,,0.03,VWS V14.01,2013-11-01 00:58:00,
2013-10-31 20:59:00,67.8,61.8,29.52,South,191,12.0,15.0,81,0.00,,,0.03,VWS V14.01,2013-11-01 00:59:00,
2013-10-31 21:00:00,67.8,61.4,29.52,South,170,8.0,15.0,80,0.00,,,0.03,VWS V14.01,2013-11-01 01:00:00,
2013-10-31 21:01:00,67.7,61.7,29.52,SSE,153,6.0,9.0,81,0.00,,,0.03,VWS V14.01,2013-11-01 01:01:00,
2013-10-31 21:02:00,67.7,61.7,29.53,SW,226,6.0,8.0,81,0.00,,,0.03,VWS V14.01,2013-11-01 01:02:00,
2013-10-31 21:03:00,67.7,61.7,29.52,South,169,6.0,11.0,81,0.00,,,0.03,VWS V14.01,2013-11-01 01:03:00,
2013-10-31 21:04:00,67.6,61.6,29.52,South,177,5.0,10.0,81,0.00,,,0.03,VWS V14.01,2013-11-01 01:04:00,
2013-10-31 21:05:00,67.6,61.6,29.52,SE,141,5.0,10.0,81,0.00,,,0.03,VWS V14.01,2013-11-01 01:05:00,
2013-10-31 21:06:00,67.6,61.6,29.52,South,169,9.0,13.0,81,0.00,,,0.03,VWS V14.01,2013-11-01 01:06:00,
2013-10-31 21:07:00,67.6,61.6,29.52,SW,214,9.0,12.0,81,0.00,,,0.03,VWS V14.01,2013-11-01 01:07:00,
2013-10-31 21:08:00,67.6,61.6,29.52,South,179,6.0,9.0,81,0.00,,,0.03,VWS V14.01,2013-11-01 01:08:00,
2013-10-31 21:09:00,67.5,61.5,29.52,South,177,4.0,10.0,81,0.00,,,0.03,VWS V14.01,2013-11-01 01:09:00,
2013-10-31 21:10:00,67.6,61.6,29.52,ESE,118,10.0,10.0,81,0.00,,,0.03,VWS V14.01,2013-11-01 01:10:00,
2013-10-31 21:11:00,67.5,61.5,29.52,SSW,201,8.0,12.0,81,0.00,,,0.03,VWS V14.01,2013-11-01 01:11:00,
2013-10-31 21:12:00,67.6,61.6,29.51,WSW,242,10.0,10.0,81,0.00,,,0.03,VWS V14.01,2013-11-01 01:12:00,
2013-10-31 21:13:00,67.6,61.6,29.52,South,169,11.0,11.0,81,0.00,,,0.03,VWS V14.01,2013-11-01 01:13:00,
2013-10-31 21:14:00,67.6,61.6,29.52,NNE,31,10.0,11.0,81,0.00,,,0.03,VWS V14.01,2013-11-01 01:14:00,
2013-10-31 21:15:00,67.6,61.6,29.52,SE,142,7.0,14.0,81,0.00,,,0.03,VWS V14.01,2013-11-01 01:15:00,
2013-10-31 21:16:00,67.7,61.7,29.52,South,170,4.0,14.0,81,0.00,,,0.03,VWS V14.01,2013-11-01 01:16:00,
2013-10-31 21:17:00,67.7,61.7,29.52,South,181,7.0,14.0,81,0.00,,,0.03,VWS V14.01,2013-11-01 01:17:00,
2013-10-31 21:18:00,67.7,61.3,29.51,SE,133,13.0,13.0,80,0.00,,,0.03,VWS V14.01,2013-11-01 01:18:00,
2013-10-31 21:19:00,67.8,61.4,29.51,SSE,156,8.0,12.0,80,0.00,,,0.03,VWS V14.01,2013-11-01 01:19:00,
2013-10-31 21:20:00,67.8,61.4,29.51,SSW,209,11.0,12.0,80,0.00,,,0.03,VWS V14.01,2013-11-01 01:20:00,
2013-10-31 21:21:00,67.8,61.4,29.52,SSW,200,5.0,11.0,80,0.00,,,0.03,VWS V14.01,2013-11-01 01:21:00,
2013-10-31 21:22:00,67.8,61.4,29.52,South,181,6.0,8.0,80,0.00,,,0.03,VWS V14.01,2013-11-01 01:22:00,
2013-10-31 21:23:00,67.8,61.4,29.52,SSE,158,5.0,11.0,80,0.00,,,0.03,VWS V14.01,2013-11-01 01:23:00,
2013-10-31 21:24:00,67.8,61.4,29.51,SSE,158,8.0,12.0,80,0.00,,,0.03,VWS V14.01,2013-11-01 01:24:00,
2013-10-31 21:29:00,67.8,61.4,29.51,SE,135,6.0,11.0,80,0.00,,,0.03,VWS V14.01,2013-11-01 01:29:00,
2013-10-31 21:30:00,67.9,61.5,29.51,South,180,7.0,13.0,80,0.00,,,0.03,VWS V14.01,2013-11-01 01:30:00,
2013-10-31 21:31:00,67.9,61.5,29.51,South,180,7.0,13.0,80,0.00,,,0.03,VWS V14.01,2013-11-01 01:31:00,
2013-10-31 21:32:00,68.0,61.6,29.50,SW,220,10.0,10.0,80,0.00,,,0.03,VWS V14.01,2013-11-01 01:32:00,
2013-10-31 21:33:00,68.1,61.7,29.50,SSE,163,11.0,15.0,80,0.00,,,0.03,VWS V14.01,2013-11-01 01:33:00,
2013-10-31 21:34:00,68.1,61.3,29.50,SW,217,6.0,13.0,79,0.00,,,0.03,VWS V14.01,2013-11-01 01:34:00,
2013-10-31 21:35:00,68.2,61.5,29.50,SSW,198,7.0,13.0,79,0.00,,,0.03,VWS V14.01,2013-11-01 01:35:00,
2013-10-31 21:36:00,68.3,61.5,29.50,SSE,155,7.0,15.0,79,0.00,,,0.03,VWS V14.01,2013-11-01 01:36:00,
2013-10-31 21:37:00,68.3,61.5,29.50,SSW,211,13.0,15.0,79,0.00,,,0.03,VWS V14.01,2013-11-01 01:37:00,
2013-10-31 21:38:00,68.3,61.5,29.50,SSW,195,6.0,13.0,79,0.00,,,0.03,VWS V14.01,2013-11-01 01:38:00,
2013-10-31 21:39:00,68.4,61.6,29.50,SSW,209,4.0,12.0,79,0.00,,,0.03,VWS V14.01,2013-11-01 01:39:00,
2013-10-31 21:40:00,68.4,61.6,29.50,SW,235,14.0,14.0,79,0.00,,,0.03,VWS V14.01,2013-11-01 01:40:00,
2013-10-31 21:41:00,68.4,61.6,29.50,South,176,9.0,10.0,79,0.00,,,0.03,VWS V14.01,2013-11-01 01:41:00,
2013-10-31 21:42:00,68.4,61.6,29.50,SW,226,9.0,10.0,79,0.00,,,0.03,VWS V14.01,2013-11-01 01:42:00,
2013-10-31 21:43:00,68.4,61.6,29.50,SSE,166,7.0,14.0,79,0.00,,,0.03,VWS V14.01,2013-11-01 01:43:00,
2013-10-31 21:44:00,68.4,61.6,29.49,SSW,205,11.0,13.0,79,0.00,,,0.03,VWS V14.01,2013-11-01 01:44:00,
2013-10-31 21:45:00,68.5,61.7,29.50,SW,224,14.0,14.0,79,0.00,,,0.03,VWS V14.01,2013-11-01 01:45:00,
2013-10-31 21:46:00,68.5,61.7,29.50,SSW,203,5.0,16.0,79,0.00,,,0.03,VWS V14.01,2013-11-01 01:46:00,
2013-10-31 21:47:00,68.5,61.7,29.50,SW,233,10.0,16.0,79,0.00,,,0.03,VWS V14.01,2013-11-01 01:47:00,
2013-10-31 21:48:00,68.5,61.7,29.50,SSW,192,3.0,10.0,79,0.00,,,0.03,VWS V14.01,2013-11-01 01:48:00,
2013-10-31 21:49:00,68.5,61.7,29.50,SSW,210,5.0,14.0,79,0.00,,,0.03,VWS V14.01,2013-11-01 01:49:00,
2013-10-31 21:50:00,68.5,61.7,29.50,SW,220,11.0,17.0,79,0.00,,,0.03,VWS V14.01,2013-11-01 01:50:00,
2013-10-31 21:51:00,68.5,61.7,29.50,SSW,197,8.0,11.0,79,0.00,,,0.03,VWS V14.01,2013-11-01 01:51:00,
2013-10-31 21:52:00,68.6,61.8,29.49,South,180,6.0,11.0,79,0.00,,,0.03,VWS V14.01,2013-11-01 01:52:00,
2013-10-31 21:53:00,68.6,61.8,29.49,SSW,202,7.0,10.0,79,0.00,,,0.03,VWS V14.01,2013-11-01 01:53:00,
2013-10-31 21:54:00,68.6,61.8,29.50,SSW,202,9.0,15.0,79,0.00,,,0.03,VWS V14.01,2013-11-01 01:54:00,
2013-10-31 21:55:00,68.6,61.8,29.49,South,180,6.0,9.0,79,0.00,,,0.03,VWS V14.01,2013-11-01 01:55:00,
2013-10-31 21:56:00,68.6,61.8,29.49,SSW,202,6.0,13.0,79,0.00,,,0.03,VWS V14.01,2013-11-01 01:56:00,
2013-10-31 21:57:00,68.7,61.9,29.50,SSW,202,10.0,15.0,79,0.00,,,0.03,VWS V14.01,2013-11-01 01:57:00,
2013-10-31 21:58:00,68.8,61.7,29.49,SSE,158,10.0,16.0,78,0.00,,,0.03,VWS V14.01,2013-11-01 01:58:00,
2013-10-31 21:59:00,69.0,61.9,29.50,South,180,9.0,18.0,78,0.00,,,0.03,VWS V14.01,2013-11-01 01:59:00,
2013-10-31 22:00:00,69.1,62.0,29.50,South,180,12.0,18.0,78,0.00,,,0.03,VWS V14.01,2013-11-01 02:00:00,
2013-10-31 22:01:00,69.2,62.1,29.50,South,180,11.0,19.0,78,0.00,,,0.03,VWS V14.01,2013-11-01 02:01:00,
2013-10-31 22:02:00,69.4,62.2,29.49,SW,225,9.0,15.0,78,0.00,,,0.03,VWS V14.01,2013-11-01 02:02:00,
2013-10-31 22:03:00,69.5,62.0,29.49,SSW,202,9.0,15.0,77,0.00,,,0.03,VWS V14.01,2013-11-01 02:03:00,
2013-10-31 22:04:00,69.6,62.1,29.49,SSW,202,10.0,18.0,77,0.00,,,0.03,VWS V14.01,2013-11-01 02:04:00,
2013-10-31 22:05:00,69.7,62.2,29.49,SSE,158,13.0,20.0,77,0.00,,,0.03,VWS V14.01,2013-11-01 02:05:00,
2013-10-31 22:06:00,69.9,62.4,29.49,South,180,12.0,17.0,77,0.00,,,0.03,VWS V14.01,2013-11-01 02:06:00,
2013-10-31 22:07:00,70.0,62.5,29.49,SSE,158,8.0,14.0,77,0.00,,,0.03,VWS V14.01,2013-11-01 02:07:00,
2013-10-31 22:08:00,70.0,62.5,29.49,SSE,158,8.0,14.0,77,0.00,,,0.03,VWS V14.01,2013-11-01 02:08:00,
2013-10-31 22:09:00,70.2,62.3,29.49,South,169,10.0,10.0,76,0.00,,,0.03,VWS V14.01,2013-11-01 02:09:00,
2013-10-31 22:10:00,70.3,62.4,29.49,SSW,201,14.0,14.0,76,0.00,,,0.03,VWS V14.01,2013-11-01 02:10:00,
2013-10-31 22:11:00,70.3,62.4,29.49,South,172,12.0,18.0,76,0.00,,,0.03,VWS V14.01,2013-11-01 02:11:00,
2013-10-31 22:12:00,70.5,62.6,29.49,SW,236,5.0,14.0,76,0.00,,,0.03,VWS V14.01,2013-11-01 02:12:00,
2013-10-31 22:13:00,70.6,62.3,29.49,South,183,9.0,15.0,75,0.00,,,0.03,VWS V14.01,2013-11-01 02:13:00,
2013-10-31 22:14:00,70.7,62.4,29.49,SSE,155,10.0,15.0,75,0.00,,,0.03,VWS V14.01,2013-11-01 02:14:00,
2013-10-31 22:15:00,70.7,62.4,29.49,SSW,201,15.0,15.0,75,0.00,,,0.03,VWS V14.01,2013-11-01 02:15:00,
2013-10-31 22:16:00,70.8,62.5,29.49,SW,214,13.0,15.0,75,0.00,,,0.03,VWS V14.01,2013-11-01 02:16:00,
2013-10-31 22:17:00,70.9,62.6,29.49,WSW,246,7.0,18.0,75,0.00,,,0.03,VWS V14.01,2013-11-01 02:17:00,
2013-10-31 22:18:00,71.1,62.8,29.49,SW,218,7.0,23.0,75,0.00,,,0.03,VWS V14.01,2013-11-01 02:18:00,
2013-10-31 22:19:00,71.1,62.8,29.49,SSE,164,11.0,23.0,75,0.00,,,0.03,VWS V14.01,2013-11-01 02:19:00,
2013-10-31 22:20:00,71.1,62.8,29.49,South,191,17.0,23.0,75,0.00,,,0.03,VWS V14.01,2013-11-01 02:20:00,
2013-10-31 22:21:00,71.2,62.9,29.49,SW,220,13.0,18.0,75,0.00,,,0.03,VWS V14.01,2013-11-01 02:21:00,
2013-10-31 22:22:00,71.1,63.2,29.49,SSW,203,12.0,14.0,76,0.00,,,0.03,VWS V14.01,2013-11-01 02:22:00,
2013-10-31 22:23:00,71.1,63.2,29.49,SSW,202,11.0,18.0,76,0.00,,,0.03,VWS V14.01,2013-11-01 02:23:00,
2013-10-31 22:24:00,71.0,63.1,29.50,South,180,17.0,28.0,76,0.00,,,0.03,VWS V14.01,2013-11-01 02:24:00,
2013-10-31 22:25:00,71.0,63.1,29.50,SSW,202,9.0,14.0,76,0.00,,,0.03,VWS V14.01,2013-11-01 02:25:00,
2013-10-31 22:26:00,70.9,63.0,29.49,South,180,9.0,28.0,76,0.00,,,0.03,VWS V14.01,2013-11-01 02:26:00,
2013-10-31 22:27:00,70.9,63.0,29.49,South,180,9.0,28.0,76,0.00,,,0.03,VWS V14.01,2013-11-01 02:27:00,
2013-10-31 22:28:00,70.8,62.9,29.49,South,188,11.0,11.0,76,0.00,,,0.03,VWS V14.01,2013-11-01 02:28:00,
2013-10-31 22:29:00,70.8,62.9,29.49,SW,214,14.0,14.0,76,0.00,,,0.03,VWS V14.01,2013-11-01 02:29:00,
2013-10-31 22:30:00,70.8,62.9,29.49,South,184,8.0,22.0,76,0.00,,,0.03,VWS V14.01,2013-11-01 02:30:00,
2013-10-31 22:31:00,70.8,62.9,29.49,SW,221,9.0,9.0,76,0.00,,,0.03,VWS V14.01,2013-11-01 02:31:00,
2013-10-31 22:32:00,70.8,62.9,29.49,SSE,155,7.0,13.0,76,0.00,,,0.03,VWS V14.01,2013-11-01 02:32:00,
2013-10-31 22:33:00,70.8,62.9,29.49,South,177,10.0,18.0,76,0.00,,,0.03,VWS V14.01,2013-11-01 02:33:00,
2013-10-31 22:34:00,70.8,62.9,29.48,SSE,166,13.0,17.0,76,0.00,,,0.03,VWS V14.01,2013-11-01 02:34:00,
2013-10-31 22:35:00,70.8,62.9,29.48,SSE,165,16.0,19.0,76,0.00,,,0.03,VWS V14.01,2013-11-01 02:35:00,
2013-10-31 22:36:00,70.8,62.9,29.50,SSW,211,18.0,27.0,76,0.00,,,0.03,VWS V14.01,2013-11-01 02:36:00,
2013-10-31 22:37:00,70.9,63.0,29.49,SW,225,11.0,26.0,76,0.00,,,0.03,VWS V14.01,2013-11-01 02:37:00,
2013-10-31 22:38:00,71.0,63.1,29.49,East,79,5.0,26.0,76,0.00,,,0.03,VWS V14.01,2013-11-01 02:38:00,
2013-10-31 22:39:00,71.0,63.1,29.49,SSE,149,6.0,11.0,76,0.00,,,0.03,VWS V14.01,2013-11-01 02:39:00,
2013-10-31 22:40:00,71.0,63.1,29.49,SW,214,16.0,16.0,76,0.00,,,0.03,VWS V14.01,2013-11-01 02:40:00,
2013-10-31 22:41:00,71.0,63.1,29.49,SSE,160,6.0,17.0,76,0.00,,,0.03,VWS V14.01,2013-11-01 02:41:00,
2013-10-31 22:42:00,70.9,63.0,29.49,SSE,167,7.0,17.0,76,0.00,,,0.03,VWS V14.01,2013-11-01 02:42:00,
2013-10-31 22:43:00,70.9,63.0,29.49,South,184,22.0,22.0,76,0.00,,,0.03,VWS V14.01,2013-11-01 02:43:00,
2013-10-31 22:44:00,70.9,63.0,29.49,South,179,5.0,22.0,76,0.00,,,0.03,VWS V14.01,2013-11-01 02:44:00,
2013-10-31 22:45:00,70.9,63.3,29.49,WNW,288,19.0,19.0,77,0.00,,,0.03,VWS V14.01,2013-11-01 02:45:00,
2013-10-31 22:46:00,70.8,63.2,29.49,SW,232,22.0,22.0,77,0.00,,,0.03,VWS V14.01,2013-11-01 02:46:00,
2013-10-31 22:47:00,70.7,63.5,29.49,South,176,6.0,15.0,78,0.00,,,0.03,VWS V14.01,2013-11-01 02:47:00,
2013-10-31 22:48:00,70.6,63.4,29.49,South,191,6.0,15.0,78,0.00,,,0.03,VWS V14.01,2013-11-01 02:48:00,
2013-10-31 22:49:00,70.5,63.3,29.49,SSW,194,13.0,21.0,78,0.00,,,0.03,VWS V14.01,2013-11-01 02:49:00,
2013-10-31 22:50:00,70.4,63.2,29.49,SSW,194,14.0,15.0,78,0.00,,,0.03,VWS V14.01,2013-11-01 02:50:00,
2013-10-31 22:51:00,70.3,63.5,29.49,SSW,198,9.0,21.0,79,0.00,,,0.03,VWS V14.01,2013-11-01 02:51:00,
2013-10-31 22:52:00,70.2,63.4,29.49,South,180,11.0,18.0,79,0.00,,,0.03,VWS V14.01,2013-11-01 02:52:00,
2013-10-31 22:53:00,70.2,63.4,29.49,WNW,286,6.0,18.0,79,0.00,,,0.03,VWS V14.01,2013-11-01 02:53:00,
2013-10-31 22:54:00,70.1,63.3,29.48,South,188,4.0,12.0,79,0.00,,,0.03,VWS V14.01,2013-11-01 02:54:00,
2013-10-31 22:55:00,70.1,63.3,29.48,SSW,201,10.0,16.0,79,0.00,,,0.03,VWS V14.01,2013-11-01 02:55:00,
2013-10-31 22:56:00,70.1,63.3,29.49,SE,127,8.0,10.0,79,0.00,,,0.03,VWS V14.01,2013-11-01 02:56:00,
2013-10-31 22:57:00,70.1,63.3,29.49,South,180,17.0,17.0,79,0.00,,,0.03,VWS V14.01,2013-11-01 02:57:00,
2013-10-31 22:58:00,70.1,62.9,29.49,West,281,7.0,17.0,78,0.00,,,0.03,VWS V14.01,2013-11-01 02:58:00,
2013-10-31 22:59:00,70.1,63.3,29.50,ESE,108,9.0,12.0,79,0.00,,,0.03,VWS V14.01,2013-11-01 02:59:00,
2013-10-31 23:00:00,70.1,62.9,29.49,SE,144,6.0,24.0,78,0.00,,,0.03,VWS V14.01,2013-11-01 03:00:00,
2013-10-31 23:01:00,70.2,63.0,29.49,SSE,150,8.0,17.0,78,0.00,,,0.03,VWS V14.01,2013-11-01 03:01:00,
2013-10-31 23:02:00,70.3,63.1,29.49,SSE,162,7.0,11.0,78,0.00,,,0.03,VWS V14.01,2013-11-01 03:02:00,
2013-10-31 23:03:00,70.3,63.1,29.49,SE,136,4.0,11.0,78,0.00,,,0.03,VWS V14.01,2013-11-01 03:03:00,
2013-10-31 23:04:00,70.3,63.1,29.49,SSW,200,13.0,17.0,78,0.00,,,0.03,VWS V14.01,2013-11-01 03:04:00,
2013-10-31 23:05:00,70.3,63.1,29.49,SE,142,17.0,17.0,78,0.00,,,0.03,VWS V14.01,2013-11-01 03:05:00,
2013-10-31 23:06:00,70.3,63.1,29.49,South,187,19.0,19.0,78,0.00,,,0.03,VWS V14.01,2013-11-01 03:06:00,
2013-10-31 23:07:00,70.3,63.1,29.49,South,169,12.0,15.0,78,0.00,,,0.03,VWS V14.01,2013-11-01 03:07:00,
2013-10-31 23:08:00,70.3,63.1,29.49,SSE,158,12.0,15.0,78,0.00,,,0.03,VWS V14.01,2013-11-01 03:08:00,
2013-10-31 23:09:00,70.3,63.1,29.49,South,180,13.0,19.0,78,0.00,,,0.03,VWS V14.01,2013-11-01 03:09:00,
2013-10-31 23:10:00,70.3,63.1,29.49,South,169,6.0,17.0,78,0.00,,,0.03,VWS V14.01,2013-11-01 03:10:00,
2013-10-31 23:11:00,70.3,63.1,29.49,South,184,11.0,14.0,78,0.00,,,0.03,VWS V14.01,2013-11-01 03:11:00,
2013-10-31 23:12:00,70.3,63.1,29.49,South,172,8.0,13.0,78,0.00,,,0.03,VWS V14.01,2013-11-01 03:12:00,
2013-10-31 23:13:00,70.3,63.1,29.49,SW,214,5.0,14.0,78,0.00,,,0.03,VWS V14.01,2013-11-01 03:13:00,
2013-10-31 23:14:00,70.3,63.1,29.49,South,169,17.0,18.0,78,0.00,,,0.03,VWS V14.01,2013-11-01 03:14:00,
2013-10-31 23:15:00,70.3,63.1,29.49,WSW,246,6.0,17.0,78,0.00,,,0.03,VWS V14.01,2013-11-01 03:15:00,
2013-10-31 23:16:00,70.2,63.4,29.49,SW,228,12.0,20.0,79,0.00,,,0.03,VWS V14.01,2013-11-01 03:16:00,
2013-10-31 23:17:00,70.2,63.4,29.49,South,173,14.0,16.0,79,0.00,,,0.03,VWS V14.01,2013-11-01 03:17:00,
2013-10-31 23:18:00,70.1,63.3,29.49,South,170,6.0,16.0,79,0.00,,,0.03,VWS V14.01,2013-11-01 03:18:00,
2013-10-31 23:19:00,70.1,63.3,29.49,WSW,243,12.0,12.0,79,0.00,,,0.03,VWS V14.01,2013-11-01 03:19:00,
2013-10-31 23:20:00,70.1,63.3,29.49,West,276,11.0,27.0,79,0.00,,,0.03,VWS V14.01,2013-11-01 03:20:00,
2013-10-31 23:21:00,70.1,63.3,29.49,South,190,11.0,16.0,79,0.00,,,0.03,VWS V14.01,2013-11-01 03:21:00,
2013-10-31 23:22:00,70.0,63.5,29.49,SSW,194,10.0,18.0,80,0.00,,,0.03,VWS V14.01,2013-11-01 03:22:00,
2013-10-31 23:23:00,70.0,63.5,29.49,SSE,162,13.0,18.0,80,0.00,,,0.03,VWS V14.01,2013-11-01 03:23:00,
2013-10-31 23:24:00,69.9,63.5,29.49,SSW,207,11.0,22.0,80,0.00,,,0.03,VWS V14.01,2013-11-01 03:24:00,
2013-10-31 23:25:00,69.9,63.5,29.49,SE,132,12.0,17.0,80,0.00,,,0.03,VWS V14.01,2013-11-01 03:25:00,
2013-10-31 23:26:00,69.9,63.5,29.49,South,174,11.0,20.0,80,0.00,,,0.03,VWS V14.01,2013-11-01 03:26:00,
2013-10-31 23:27:00,69.8,63.4,29.49,South,174,13.0,18.0,80,0.00,,,0.03,VWS V14.01,2013-11-01 03:27:00,
2013-10-31 23:28:00,69.7,63.3,29.49,SSW,201,5.0,18.0,80,0.00,,,0.03,VWS V14.01,2013-11-01 03:28:00,
2013-10-31 23:29:00,69.7,63.6,29.49,South,186,11.0,14.0,81,0.00,,,0.03,VWS V14.01,2013-11-01 03:29:00,
2013-10-31 23:30:00,69.6,63.5,29.49,SW,236,12.0,14.0,81,0.00,,,0.03,VWS V14.01,2013-11-01 03:30:00,
2013-10-31 23:31:00,69.6,63.5,29.49,SW,225,13.0,19.0,81,0.00,,,0.03,VWS V14.01,2013-11-01 03:31:00,
2013-10-31 23:32:00,69.5,63.4,29.49,WSW,243,17.0,20.0,81,0.00,,,0.03,VWS V14.01,2013-11-01 03:32:00,
2013-10-31 23:33:00,69.5,63.4,29.49,SW,221,19.0,20.0,81,0.00,,,0.03,VWS V14.01,2013-11-01 03:33:00,
2013-10-31 23:34:00,69.4,63.3,29.49,WSW,249,9.0,19.0,81,0.00,,,0.03,VWS V14.01,2013-11-01 03:34:00,
2013-10-31 23:35:00,69.4,63.7,29.49,WSW,248,6.0,16.0,82,0.00,,,0.03,VWS V14.01,2013-11-01 03:35:00,
2013-10-31 23:36:00,69.4,63.7,29.49,SSW,212,10.0,21.0,82,0.00,,,0.03,VWS V14.01,2013-11-01 03:36:00,
2013-10-31 23:37:00,69.3,63.6,29.48,SSE,148,5.0,13.0,82,0.00,,,0.03,VWS V14.01,2013-11-01 03:37:00,
2013-10-31 23:38:00,69.3,63.6,29.48,SW,214,5.0,13.0,82,0.00,,,0.03,VWS V14.01,2013-11-01 03:38:00,
2013-10-31 23:39:00,69.2,63.5,29.49,SW,214,22.0,22.0,82,0.00,,,0.03,VWS V14.01,2013-11-01 03:39:00,
2013-10-31 23:40:00,69.2,63.5,29.49,SW,219,6.0,22.0,82,0.00,,,0.03,VWS V14.01,2013-11-01 03:40:00,
2013-10-31 23:41:00,69.1,63.4,29.49,ESE,106,9.0,27.0,82,0.00,,,0.03,VWS V14.01,2013-11-01 03:41:00,
2013-10-31 23:42:00,69.1,63.7,29.48,SW,215,14.0,16.0,83,0.00,,,0.03,VWS V14.01,2013-11-01 03:42:00,
2013-10-31 23:43:00,69.0,63.6,29.48,SSW,207,7.0,16.0,83,0.00,,,0.03,VWS V14.01,2013-11-01 03:43:00,
2013-10-31 23:44:00,69.0,63.6,29.48,WSW,257,10.0,18.0,83,0.00,,,0.03,VWS V14.01,2013-11-01 03:44:00,
2013-10-31 23:45:00,68.9,63.5,29.48,West,278,11.0,18.0,83,0.00,,,0.03,VWS V14.01,2013-11-01 03:45:00,
2013-10-31 23:46:00,68.9,63.5,29.49,SSE,156,18.0,27.0,83,0.00,,,0.03,VWS V14.01,2013-11-01 03:46:00,
2013-10-31 23:47:00,68.9,63.5,29.48,SSE,164,14.0,16.0,83,0.00,,,0.03,VWS V14.01,2013-11-01 03:47:00,
2013-10-31 23:48:00,68.9,63.5,29.48,South,179,24.0,24.0,83,0.00,,,0.03,VWS V14.01,2013-11-01 03:48:00,
2013-10-31 23:49:00,68.9,63.5,29.48,South,184,10.0,24.0,83,0.00,,,0.03,VWS V14.01,2013-11-01 03:49:00,
2013-10-31 23:52:00,68.8,63.8,29.48,SSW,204,6.0,13.0,84,0.00,,,0.03,VWS V14.01,2013-11-01 03:52:00,
2013-10-31 23:57:00,68.6,63.6,29.48,WSW,240,10.0,18.0,84,0.00,,,0.03,VWS V14.01,2013-11-01 03:57:00,